<?xml version="1.0" encoding="UTF-8"?>
<gpx version="1.1" creator="https://www.youtrack.es" xsi:schemaLocation="http://www.topografix.com/GPX/1/1 http://www.topografix.com/GPX/1/1/gpx.xsd http://www.garmin.com/xmlschemas/GpxExtensions/v3 http://www.garmin.com/xmlschemas/GpxExtensionsv3.xsd http://www.garmin.com/xmlschemas/TrackPointExtension/v1 http://www.garmin.com/xmlschemas/TrackPointExtensionv1.xsd" xmlns:gpxtpx="http://www.garmin.com/xmlschemas/TrackPointExtension/v1" xmlns:gpxx="http://www.garmin.com/xmlschemas/GpxExtensions/v3" xmlns:xsi="http://www.w3.org/2001/XMLSchema-instance">
  <metadata>
    <link href="https://www.youtrack.es">
      <text>YouTrack.es</text>
    </link>
    <time>2026-05-08T23:21:17Z</time>
  </metadata>
  <trk>
    <src>https://www.youtrack.es</src>
    <link href="https://www.youtrack.es/ruta/24325-guimaraes-santiago">
      <text>YouTrack.es</text>
    </link>
    <trkseg>
      <trkpt lat="41.45422" lon="-8.30962">
        <ele>176.2879638671875</ele>
        <time>2021-03-12T18:05:16.000Z</time>
      </trkpt>
      <trkpt lat="41.45437" lon="-8.30971">
        <ele>176.39593505859375</ele>
        <time>2021-03-12T18:05:16.004Z</time>
      </trkpt>
      <trkpt lat="41.45543" lon="-8.31054">
        <ele>172.8057861328125</ele>
        <time>2021-03-12T18:05:16.041Z</time>
      </trkpt>
      <trkpt lat="41.4567" lon="-8.31148">
        <ele>170.8363037109375</ele>
        <time>2021-03-12T18:05:16.117Z</time>
      </trkpt>
      <trkpt lat="41.45688" lon="-8.31156">
        <ele>171.638916015625</ele>
        <time>2021-03-12T18:05:16.198Z</time>
      </trkpt>
      <trkpt lat="41.45757" lon="-8.31168">
        <ele>173.8792724609375</ele>
        <time>2021-03-12T18:05:16.298Z</time>
      </trkpt>
      <trkpt lat="41.45821" lon="-8.31176">
        <ele>179.89183044433594</ele>
        <time>2021-03-12T18:05:16.415Z</time>
      </trkpt>
      <trkpt lat="41.45922" lon="-8.31192">
        <ele>186.74365234375</ele>
        <time>2021-03-12T18:05:16.559Z</time>
      </trkpt>
      <trkpt lat="41.45941" lon="-8.31197">
        <ele>188.80731201171875</ele>
        <time>2021-03-12T18:05:16.708Z</time>
      </trkpt>
      <trkpt lat="41.45955" lon="-8.31206">
        <ele>190.58302307128906</ele>
        <time>2021-03-12T18:05:16.861Z</time>
      </trkpt>
      <trkpt lat="41.45973" lon="-8.31225">
        <ele>189.42559814453125</ele>
        <time>2021-03-12T18:05:17.020Z</time>
      </trkpt>
      <trkpt lat="41.45993" lon="-8.31254">
        <ele>187.5598602294922</ele>
        <time>2021-03-12T18:05:17.187Z</time>
      </trkpt>
      <trkpt lat="41.46035" lon="-8.31323">
        <ele>183.5474395751953</ele>
        <time>2021-03-12T18:05:17.372Z</time>
      </trkpt>
      <trkpt lat="41.46038" lon="-8.31334">
        <ele>182.77955627441406</ele>
        <time>2021-03-12T18:05:17.559Z</time>
      </trkpt>
      <trkpt lat="41.46047" lon="-8.31339">
        <ele>182.15567016601562</ele>
        <time>2021-03-12T18:05:17.749Z</time>
      </trkpt>
      <trkpt lat="41.46061" lon="-8.31367">
        <ele>180.51614379882812</ele>
        <time>2021-03-12T18:05:17.946Z</time>
      </trkpt>
      <trkpt lat="41.46212" lon="-8.31608">
        <ele>169.97422790527344</ele>
        <time>2021-03-12T18:05:18.205Z</time>
      </trkpt>
      <trkpt lat="41.46223" lon="-8.31633">
        <ele>169.88287353515625</ele>
        <time>2021-03-12T18:05:18.470Z</time>
      </trkpt>
      <trkpt lat="41.46232" lon="-8.31664">
        <ele>169.52291870117188</ele>
        <time>2021-03-12T18:05:18.742Z</time>
      </trkpt>
      <trkpt lat="41.46246" lon="-8.31748">
        <ele>168.64752197265625</ele>
        <time>2021-03-12T18:05:19.031Z</time>
      </trkpt>
      <trkpt lat="41.46259" lon="-8.31862">
        <ele>164.98684692382812</ele>
        <time>2021-03-12T18:05:19.343Z</time>
      </trkpt>
      <trkpt lat="41.46283" lon="-8.32008">
        <ele>159.0831298828125</ele>
        <time>2021-03-12T18:05:19.685Z</time>
      </trkpt>
      <trkpt lat="41.46284" lon="-8.32028">
        <ele>158.9031524658203</ele>
        <time>2021-03-12T18:05:20.031Z</time>
      </trkpt>
      <trkpt lat="41.46282" lon="-8.32055">
        <ele>158.72206115722656</ele>
        <time>2021-03-12T18:05:20.383Z</time>
      </trkpt>
      <trkpt lat="41.46286" lon="-8.32056">
        <ele>159.12998962402344</ele>
        <time>2021-03-12T18:05:20.736Z</time>
      </trkpt>
      <trkpt lat="41.46289" lon="-8.32059">
        <ele>159.48992919921875</ele>
        <time>2021-03-12T18:05:21.090Z</time>
      </trkpt>
      <trkpt lat="41.46291" lon="-8.32065">
        <ele>159.8258819580078</ele>
        <time>2021-03-12T18:05:21.445Z</time>
      </trkpt>
      <trkpt lat="41.4629" lon="-8.32076">
        <ele>159.9938507080078</ele>
        <time>2021-03-12T18:05:21.802Z</time>
      </trkpt>
      <trkpt lat="41.46287" lon="-8.32081">
        <ele>159.8258819580078</ele>
        <time>2021-03-12T18:05:22.161Z</time>
      </trkpt>
      <trkpt lat="41.4631" lon="-8.32153">
        <ele>163.4695587158203</ele>
        <time>2021-03-12T18:05:22.535Z</time>
      </trkpt>
      <trkpt lat="41.46345" lon="-8.32324">
        <ele>160.8094482421875</ele>
        <time>2021-03-12T18:05:22.945Z</time>
      </trkpt>
      <trkpt lat="41.46357" lon="-8.32345">
        <ele>160.55747985839844</ele>
        <time>2021-03-12T18:05:23.360Z</time>
      </trkpt>
      <trkpt lat="41.46368" lon="-8.32355">
        <ele>161.16903686523438</ele>
        <time>2021-03-12T18:05:23.779Z</time>
      </trkpt>
      <trkpt lat="41.46504" lon="-8.32439">
        <ele>158.9248046875</ele>
        <time>2021-03-12T18:05:24.238Z</time>
      </trkpt>
      <trkpt lat="41.46553" lon="-8.32476">
        <ele>156.21954345703125</ele>
        <time>2021-03-12T18:05:24.712Z</time>
      </trkpt>
      <trkpt lat="41.46657" lon="-8.32559">
        <ele>148.18536376953125</ele>
        <time>2021-03-12T18:05:25.218Z</time>
      </trkpt>
      <trkpt lat="41.46767" lon="-8.32653">
        <ele>142.114990234375</ele>
        <time>2021-03-12T18:05:25.759Z</time>
      </trkpt>
      <trkpt lat="41.46837" lon="-8.32723">
        <ele>134.7275848388672</ele>
        <time>2021-03-12T18:05:26.323Z</time>
      </trkpt>
      <trkpt lat="41.46952" lon="-8.32844">
        <ele>132.7404022216797</ele>
        <time>2021-03-12T18:05:26.926Z</time>
      </trkpt>
      <trkpt lat="41.47103" lon="-8.32997">
        <ele>134.08441162109375</ele>
        <time>2021-03-12T18:05:27.580Z</time>
      </trkpt>
      <trkpt lat="41.47155" lon="-8.33049">
        <ele>133.79794311523438</ele>
        <time>2021-03-12T18:05:28.251Z</time>
      </trkpt>
      <trkpt lat="41.47167" lon="-8.33055">
        <ele>133.72596740722656</ele>
        <time>2021-03-12T18:05:28.926Z</time>
      </trkpt>
      <trkpt lat="41.47399" lon="-8.33289">
        <ele>142.36761474609375</ele>
        <time>2021-03-12T18:05:29.678Z</time>
      </trkpt>
      <trkpt lat="41.47436" lon="-8.33328">
        <ele>144.97813415527344</ele>
        <time>2021-03-12T18:05:30.443Z</time>
      </trkpt>
      <trkpt lat="41.47462" lon="-8.33365">
        <ele>146.241455078125</ele>
        <time>2021-03-12T18:05:31.218Z</time>
      </trkpt>
      <trkpt lat="41.47557" lon="-8.33533">
        <ele>144.53427124023438</ele>
        <time>2021-03-12T18:05:32.035Z</time>
      </trkpt>
      <trkpt lat="41.47554" lon="-8.33542">
        <ele>144.28231811523438</ele>
        <time>2021-03-12T18:05:32.854Z</time>
      </trkpt>
      <trkpt lat="41.47557" lon="-8.33552">
        <ele>143.8503875732422</ele>
        <time>2021-03-12T18:05:33.675Z</time>
      </trkpt>
      <trkpt lat="41.47564" lon="-8.33557">
        <ele>143.50245666503906</ele>
        <time>2021-03-12T18:05:34.498Z</time>
      </trkpt>
      <trkpt lat="41.4757" lon="-8.33556">
        <ele>143.43902587890625</ele>
        <time>2021-03-12T18:05:35.323Z</time>
      </trkpt>
      <trkpt lat="41.47608" lon="-8.3362">
        <ele>141.49951171875</ele>
        <time>2021-03-12T18:05:36.164Z</time>
      </trkpt>
      <trkpt lat="41.47631" lon="-8.33653">
        <ele>140.77784729003906</ele>
        <time>2021-03-12T18:05:37.014Z</time>
      </trkpt>
      <trkpt lat="41.477" lon="-8.3373">
        <ele>136.97763061523438</ele>
        <time>2021-03-12T18:05:37.888Z</time>
      </trkpt>
      <trkpt lat="41.47715" lon="-8.33745">
        <ele>136.97763061523438</ele>
        <time>2021-03-12T18:05:38.767Z</time>
      </trkpt>
      <trkpt lat="41.47812" lon="-8.33803">
        <ele>139.77206420898438</ele>
        <time>2021-03-12T18:05:39.675Z</time>
      </trkpt>
      <trkpt lat="41.4786" lon="-8.33833">
        <ele>138.69573974609375</ele>
        <time>2021-03-12T18:05:40.597Z</time>
      </trkpt>
      <trkpt lat="41.47882" lon="-8.33849">
        <ele>138.0811767578125</ele>
        <time>2021-03-12T18:05:41.526Z</time>
      </trkpt>
      <trkpt lat="41.47949" lon="-8.33911">
        <ele>133.86476135253906</ele>
        <time>2021-03-12T18:05:42.476Z</time>
      </trkpt>
      <trkpt lat="41.47985" lon="-8.33951">
        <ele>133.71763610839844</ele>
        <time>2021-03-12T18:05:43.439Z</time>
      </trkpt>
      <trkpt lat="41.48022" lon="-8.34002">
        <ele>131.93051147460938</ele>
        <time>2021-03-12T18:05:44.416Z</time>
      </trkpt>
      <trkpt lat="41.48029" lon="-8.34017">
        <ele>131.8889923095703</ele>
        <time>2021-03-12T18:05:45.397Z</time>
      </trkpt>
      <trkpt lat="41.48035" lon="-8.34039">
        <ele>130.18528747558594</ele>
        <time>2021-03-12T18:05:46.382Z</time>
      </trkpt>
      <trkpt lat="41.48036" lon="-8.3407">
        <ele>128.28147888183594</ele>
        <time>2021-03-12T18:05:47.374Z</time>
      </trkpt>
      <trkpt lat="41.48022" lon="-8.34138">
        <ele>126.37017822265625</ele>
        <time>2021-03-12T18:05:48.380Z</time>
      </trkpt>
      <trkpt lat="41.48019" lon="-8.34175">
        <ele>123.86272430419922</ele>
        <time>2021-03-12T18:05:49.393Z</time>
      </trkpt>
      <trkpt lat="41.48021" lon="-8.34197">
        <ele>122.68401336669922</ele>
        <time>2021-03-12T18:05:50.411Z</time>
      </trkpt>
      <trkpt lat="41.48026" lon="-8.34226">
        <ele>121.44738006591797</ele>
        <time>2021-03-12T18:05:51.435Z</time>
      </trkpt>
      <trkpt lat="41.48032" lon="-8.34245">
        <ele>121.25541687011719</ele>
        <time>2021-03-12T18:05:52.463Z</time>
      </trkpt>
      <trkpt lat="41.48044" lon="-8.34268">
        <ele>120.22327423095703</ele>
        <time>2021-03-12T18:05:53.496Z</time>
      </trkpt>
      <trkpt lat="41.48057" lon="-8.34286">
        <ele>118.86524200439453</ele>
        <time>2021-03-12T18:05:54.534Z</time>
      </trkpt>
      <trkpt lat="41.48085" lon="-8.3431">
        <ele>117.76271057128906</ele>
        <time>2021-03-12T18:05:55.581Z</time>
      </trkpt>
      <trkpt lat="41.48108" lon="-8.34323">
        <ele>116.21151733398438</ele>
        <time>2021-03-12T18:05:56.635Z</time>
      </trkpt>
      <trkpt lat="41.48129" lon="-8.34325">
        <ele>114.4718017578125</ele>
        <time>2021-03-12T18:05:57.694Z</time>
      </trkpt>
      <trkpt lat="41.48131" lon="-8.34323">
        <ele>114.27983856201172</ele>
        <time>2021-03-12T18:05:58.754Z</time>
      </trkpt>
      <trkpt lat="41.48136" lon="-8.34322">
        <ele>113.84790802001953</ele>
        <time>2021-03-12T18:05:59.815Z</time>
      </trkpt>
      <trkpt lat="41.48143" lon="-8.34324">
        <ele>113.28400421142578</ele>
        <time>2021-03-12T18:06:00.878Z</time>
      </trkpt>
      <trkpt lat="41.48148" lon="-8.3433">
        <ele>112.9360580444336</ele>
        <time>2021-03-12T18:06:01.943Z</time>
      </trkpt>
      <trkpt lat="41.48156" lon="-8.34347">
        <ele>113.00822448730469</ele>
        <time>2021-03-12T18:06:03.012Z</time>
      </trkpt>
      <trkpt lat="41.48172" lon="-8.34363">
        <ele>112.81214904785156</ele>
        <time>2021-03-12T18:06:04.086Z</time>
      </trkpt>
      <trkpt lat="41.48285" lon="-8.34431">
        <ele>116.98136138916016</ele>
        <time>2021-03-12T18:06:05.194Z</time>
      </trkpt>
      <trkpt lat="41.48304" lon="-8.3445">
        <ele>118.82542419433594</ele>
        <time>2021-03-12T18:06:06.308Z</time>
      </trkpt>
      <trkpt lat="41.48321" lon="-8.34479">
        <ele>121.48961639404297</ele>
        <time>2021-03-12T18:06:07.429Z</time>
      </trkpt>
      <trkpt lat="41.48333" lon="-8.34539">
        <ele>123.59420013427734</ele>
        <time>2021-03-12T18:06:08.563Z</time>
      </trkpt>
      <trkpt lat="41.48341" lon="-8.34565">
        <ele>124.69801330566406</ele>
        <time>2021-03-12T18:06:09.702Z</time>
      </trkpt>
      <trkpt lat="41.48367" lon="-8.34609">
        <ele>126.70660400390625</ele>
        <time>2021-03-12T18:06:10.853Z</time>
      </trkpt>
      <trkpt lat="41.48386" lon="-8.34627">
        <ele>128.62115478515625</ele>
        <time>2021-03-12T18:06:12.010Z</time>
      </trkpt>
      <trkpt lat="41.48415" lon="-8.34651">
        <ele>131.58213806152344</ele>
        <time>2021-03-12T18:06:13.176Z</time>
      </trkpt>
      <trkpt lat="41.48539" lon="-8.3475">
        <ele>130.32595825195312</ele>
        <time>2021-03-12T18:06:14.380Z</time>
      </trkpt>
      <trkpt lat="41.48553" lon="-8.34765">
        <ele>129.47315979003906</ele>
        <time>2021-03-12T18:06:15.589Z</time>
      </trkpt>
      <trkpt lat="41.48564" lon="-8.34781">
        <ele>128.71165466308594</ele>
        <time>2021-03-12T18:06:16.803Z</time>
      </trkpt>
      <trkpt lat="41.48584" lon="-8.34827">
        <ele>127.91122436523438</ele>
        <time>2021-03-12T18:06:18.027Z</time>
      </trkpt>
      <trkpt lat="41.48605" lon="-8.34865">
        <ele>127.0</ele>
        <time>2021-03-12T18:06:19.261Z</time>
      </trkpt>
      <trkpt lat="41.48609" lon="-8.34922">
        <ele>127.40522003173828</ele>
        <time>2021-03-12T18:06:20.506Z</time>
      </trkpt>
      <trkpt lat="41.4861" lon="-8.34999">
        <ele>129.70533752441406</ele>
        <time>2021-03-12T18:06:21.767Z</time>
      </trkpt>
      <trkpt lat="41.48615" lon="-8.35115">
        <ele>133.33624267578125</ele>
        <time>2021-03-12T18:06:23.051Z</time>
      </trkpt>
      <trkpt lat="41.48625" lon="-8.35172">
        <ele>136.7916717529297</ele>
        <time>2021-03-12T18:06:24.347Z</time>
      </trkpt>
      <trkpt lat="41.4862349443138" lon="-8.35172094404697">
        <ele>136.6878204345703</ele>
        <time>2021-03-12T18:06:25.643Z</time>
      </trkpt>
      <trkpt lat="41.4865469187498" lon="-8.35245997644961">
        <ele>140.6815185546875</ele>
        <time>2021-03-12T18:06:26.956Z</time>
      </trkpt>
      <trkpt lat="41.4865239523351" lon="-8.35289692506194">
        <ele>141.03114318847656</ele>
        <time>2021-03-12T18:06:28.278Z</time>
      </trkpt>
      <trkpt lat="41.4874409325421" lon="-8.35605799220502">
        <ele>136.42637634277344</ele>
        <time>2021-03-12T18:06:29.668Z</time>
      </trkpt>
      <trkpt lat="41.4884879998863" lon="-8.35780494846404">
        <ele>132.25230407714844</ele>
        <time>2021-03-12T18:06:31.102Z</time>
      </trkpt>
      <trkpt lat="41.4907589927316" lon="-8.35990897379816">
        <ele>126.43873596191406</ele>
        <time>2021-03-12T18:06:32.610Z</time>
      </trkpt>
      <trkpt lat="41.4963219780475" lon="-8.36308998987079">
        <ele>154.57362365722656</ele>
        <time>2021-03-12T18:06:34.280Z</time>
      </trkpt>
      <trkpt lat="41.4981789886951" lon="-8.36480492725968">
        <ele>165.02708435058594</ele>
        <time>2021-03-12T18:06:36.010Z</time>
      </trkpt>
      <trkpt lat="41.500239931047" lon="-8.36487298831344">
        <ele>180.97877502441406</ele>
        <time>2021-03-12T18:06:37.795Z</time>
      </trkpt>
      <trkpt lat="41.5012769401073" lon="-8.3644949644804">
        <ele>183.25169372558594</ele>
        <time>2021-03-12T18:06:39.608Z</time>
      </trkpt>
      <trkpt lat="41.502430960536" lon="-8.36446093395352">
        <ele>190.11778259277344</ele>
        <time>2021-03-12T18:06:41.452Z</time>
      </trkpt>
      <trkpt lat="41.5040919184685" lon="-8.3653689455241">
        <ele>195.84707641601562</ele>
        <time>2021-03-12T18:06:43.344Z</time>
      </trkpt>
      <trkpt lat="41.5044729597867" lon="-8.36595693603158">
        <ele>199.441162109375</ele>
        <time>2021-03-12T18:06:45.252Z</time>
      </trkpt>
      <trkpt lat="41.5043929964304" lon="-8.36809599772096">
        <ele>212.06478881835938</ele>
        <time>2021-03-12T18:06:47.203Z</time>
      </trkpt>
      <trkpt lat="41.504058977589" lon="-8.3700089994818">
        <ele>222.18885803222656</ele>
        <time>2021-03-12T18:06:49.193Z</time>
      </trkpt>
      <trkpt lat="41.5031069610268" lon="-8.37245198898017">
        <ele>243.50933837890625</ele>
        <time>2021-03-12T18:06:51.238Z</time>
      </trkpt>
      <trkpt lat="41.5028939768672" lon="-8.37349092587829">
        <ele>243.0926513671875</ele>
        <time>2021-03-12T18:06:53.305Z</time>
      </trkpt>
      <trkpt lat="41.5028639696538" lon="-8.37926999665797">
        <ele>260.4205627441406</ele>
        <time>2021-03-12T18:06:55.487Z</time>
      </trkpt>
      <trkpt lat="41.5029559191316" lon="-8.37967299856246">
        <ele>261.2003173828125</ele>
        <time>2021-03-12T18:06:57.678Z</time>
      </trkpt>
      <trkpt lat="41.503717917949" lon="-8.38060799986124">
        <ele>259.8888244628906</ele>
        <time>2021-03-12T18:06:59.897Z</time>
      </trkpt>
      <trkpt lat="41.5039909165353" lon="-8.3815339487046">
        <ele>264.3378601074219</ele>
        <time>2021-03-12T18:07:02.135Z</time>
      </trkpt>
      <trkpt lat="41.503548938781" lon="-8.38417299091816">
        <ele>279.401611328125</ele>
        <time>2021-03-12T18:07:04.428Z</time>
      </trkpt>
      <trkpt lat="41.5026869438589" lon="-8.38637994602323">
        <ele>285.2593688964844</ele>
        <time>2021-03-12T18:07:06.770Z</time>
      </trkpt>
      <trkpt lat="41.5020719636232" lon="-8.38740999810398">
        <ele>298.51324462890625</ele>
        <time>2021-03-12T18:07:09.139Z</time>
      </trkpt>
      <trkpt lat="41.5026699285954" lon="-8.38984795846045">
        <ele>302.705810546875</ele>
        <time>2021-03-12T18:07:11.559Z</time>
      </trkpt>
      <trkpt lat="41.5028419252485" lon="-8.39142895303667">
        <ele>303.53057861328125</ele>
        <time>2021-03-12T18:07:14.011Z</time>
      </trkpt>
      <trkpt lat="41.5025969222188" lon="-8.39424594305456">
        <ele>303.50811767578125</ele>
        <time>2021-03-12T18:07:16.520Z</time>
      </trkpt>
      <trkpt lat="41.5016719792038" lon="-8.39613698422909">
        <ele>300.9065856933594</ele>
        <time>2021-03-12T18:07:19.074Z</time>
      </trkpt>
      <trkpt lat="41.5017349272966" lon="-8.39741698466241">
        <ele>309.8609924316406</ele>
        <time>2021-03-12T18:07:21.654Z</time>
      </trkpt>
      <trkpt lat="41.5013609267771" lon="-8.39978193864226">
        <ele>301.4479675292969</ele>
        <time>2021-03-12T18:07:24.282Z</time>
      </trkpt>
      <trkpt lat="41.5006719343364" lon="-8.40131599456072">
        <ele>297.7994079589844</ele>
        <time>2021-03-12T18:07:26.946Z</time>
      </trkpt>
      <trkpt lat="41.5000189840794" lon="-8.40212694369256">
        <ele>290.22186279296875</ele>
        <time>2021-03-12T18:07:29.634Z</time>
      </trkpt>
      <trkpt lat="41.4997779205441" lon="-8.40283898636699">
        <ele>292.1581726074219</ele>
        <time>2021-03-12T18:07:32.338Z</time>
      </trkpt>
      <trkpt lat="41.4997679460794" lon="-8.40474897064269">
        <ele>297.8421630859375</ele>
        <time>2021-03-12T18:07:35.080Z</time>
      </trkpt>
      <trkpt lat="41.4992479328066" lon="-8.40707293711603">
        <ele>290.4640197753906</ele>
        <time>2021-03-12T18:07:37.871Z</time>
      </trkpt>
      <trkpt lat="41.4978359173983" lon="-8.40937896631658">
        <ele>275.0052185058594</ele>
        <time>2021-03-12T18:07:40.721Z</time>
      </trkpt>
      <trkpt lat="41.4977039862424" lon="-8.40981893241405">
        <ele>273.3505859375</ele>
        <time>2021-03-12T18:07:43.581Z</time>
      </trkpt>
      <trkpt lat="41.4979359973222" lon="-8.41106096282601">
        <ele>273.7492980957031</ele>
        <time>2021-03-12T18:07:46.466Z</time>
      </trkpt>
      <trkpt lat="41.498656924814" lon="-8.41169195249677">
        <ele>273.5483703613281</ele>
        <time>2021-03-12T18:07:49.374Z</time>
      </trkpt>
      <trkpt lat="41.4986889436841" lon="-8.41202898882329">
        <ele>271.50811767578125</ele>
        <time>2021-03-12T18:07:52.289Z</time>
      </trkpt>
      <trkpt lat="41.4981299545616" lon="-8.41322491876781">
        <ele>261.9603576660156</ele>
        <time>2021-03-12T18:07:55.232Z</time>
      </trkpt>
      <trkpt lat="41.4982489775866" lon="-8.4139939583838">
        <ele>260.6449890136719</ele>
        <time>2021-03-12T18:07:58.191Z</time>
      </trkpt>
      <trkpt lat="41.4990389719605" lon="-8.41457599774003">
        <ele>258.96697998046875</ele>
        <time>2021-03-12T18:08:01.174Z</time>
      </trkpt>
      <trkpt lat="41.5001969318837" lon="-8.41452696360648">
        <ele>255.37176513671875</ele>
        <time>2021-03-12T18:08:04.188Z</time>
      </trkpt>
      <trkpt lat="41.5004119277" lon="-8.41474397107959">
        <ele>254.9384765625</ele>
        <time>2021-03-12T18:08:07.209Z</time>
      </trkpt>
      <trkpt lat="41.5006729401648" lon="-8.41585197485983">
        <ele>249.99679565429688</ele>
        <time>2021-03-12T18:08:10.253Z</time>
      </trkpt>
      <trkpt lat="41.5046069864184" lon="-8.41733993031085">
        <ele>230.17019653320312</ele>
        <time>2021-03-12T18:08:13.406Z</time>
      </trkpt>
      <trkpt lat="41.5050009358674" lon="-8.41725192032754">
        <ele>228.61068725585938</ele>
        <time>2021-03-12T18:08:16.570Z</time>
      </trkpt>
      <trkpt lat="41.5054839849472" lon="-8.41656896285713">
        <ele>233.96751403808594</ele>
        <time>2021-03-12T18:08:19.753Z</time>
      </trkpt>
      <trkpt lat="41.50600399822" lon="-8.41631893068552">
        <ele>231.35977172851562</ele>
        <time>2021-03-12T18:08:22.951Z</time>
      </trkpt>
      <trkpt lat="41.506344974041" lon="-8.41638498008251">
        <ele>225.97840881347656</ele>
        <time>2021-03-12T18:08:26.158Z</time>
      </trkpt>
      <trkpt lat="41.5067659970373" lon="-8.41687196865678">
        <ele>214.14144897460938</ele>
        <time>2021-03-12T18:08:29.380Z</time>
      </trkpt>
      <trkpt lat="41.5071239881217" lon="-8.41701094061136">
        <ele>209.46743774414062</ele>
        <time>2021-03-12T18:08:32.612Z</time>
      </trkpt>
      <trkpt lat="41.5079029183835" lon="-8.41588893905282">
        <ele>214.94993591308594</ele>
        <time>2021-03-12T18:08:35.874Z</time>
      </trkpt>
      <trkpt lat="41.5081689599901" lon="-8.41568492352962">
        <ele>212.5228729248047</ele>
        <time>2021-03-12T18:08:39.144Z</time>
      </trkpt>
      <trkpt lat="41.5084049943835" lon="-8.41571694239974">
        <ele>211.6875762939453</ele>
        <time>2021-03-12T18:08:42.421Z</time>
      </trkpt>
      <trkpt lat="41.5093199629337" lon="-8.41831499710679">
        <ele>205.10226440429688</ele>
        <time>2021-03-12T18:08:45.755Z</time>
      </trkpt>
      <trkpt lat="41.5096689853817" lon="-8.41876493766904">
        <ele>203.32046508789062</ele>
        <time>2021-03-12T18:08:49.102Z</time>
      </trkpt>
      <trkpt lat="41.5108179766685" lon="-8.41932694427669">
        <ele>191.59652709960938</ele>
        <time>2021-03-12T18:08:52.482Z</time>
      </trkpt>
      <trkpt lat="41.5151949226856" lon="-8.42086594551802">
        <ele>183.57220458984375</ele>
        <time>2021-03-12T18:08:55.983Z</time>
      </trkpt>
      <trkpt lat="41.5156339667737" lon="-8.42080794274807">
        <ele>180.96835327148438</ele>
        <time>2021-03-12T18:08:59.495Z</time>
      </trkpt>
      <trkpt lat="41.516593946144" lon="-8.42029698193073">
        <ele>178.8534698486328</ele>
        <time>2021-03-12T18:09:03.035Z</time>
      </trkpt>
      <trkpt lat="41.5189309883863" lon="-8.41995692811906">
        <ele>171.40213012695312</ele>
        <time>2021-03-12T18:09:06.637Z</time>
      </trkpt>
      <trkpt lat="41.5229479316622" lon="-8.41884297318757">
        <ele>166.44749450683594</ele>
        <time>2021-03-12T18:09:10.349Z</time>
      </trkpt>
      <trkpt lat="41.5275629237294" lon="-8.41782599687576">
        <ele>191.67970275878906</ele>
        <time>2021-03-12T18:09:14.186Z</time>
      </trkpt>
      <trkpt lat="41.528330957517" lon="-8.41780797578394">
        <ele>196.8271942138672</ele>
        <time>2021-03-12T18:09:18.043Z</time>
      </trkpt>
      <trkpt lat="41.5335759334266" lon="-8.41951997950673">
        <ele>206.35980224609375</ele>
        <time>2021-03-12T18:09:22.044Z</time>
      </trkpt>
      <trkpt lat="41.5358089562505" lon="-8.42296192422509">
        <ele>217.0</ele>
        <time>2021-03-12T18:09:26.136Z</time>
      </trkpt>
      <trkpt lat="41.536557963118" lon="-8.42339996248484">
        <ele>212.79705810546875</ele>
        <time>2021-03-12T18:09:30.250Z</time>
      </trkpt>
      <trkpt lat="41.5370669960976" lon="-8.42334497720003">
        <ele>204.94326782226562</ele>
        <time>2021-03-12T18:09:34.377Z</time>
      </trkpt>
      <trkpt lat="41.5377779491246" lon="-8.4228319209069">
        <ele>198.97715759277344</ele>
        <time>2021-03-12T18:09:38.526Z</time>
      </trkpt>
      <trkpt lat="41.5379969682544" lon="-8.42249396257102">
        <ele>197.1560516357422</ele>
        <time>2021-03-12T18:09:42.684Z</time>
      </trkpt>
      <trkpt lat="41.5380409732461" lon="-8.42215097509325">
        <ele>195.69944763183594</ele>
        <time>2021-03-12T18:09:46.849Z</time>
      </trkpt>
      <trkpt lat="41.5375409927219" lon="-8.42027795501053">
        <ele>201.96337890625</ele>
        <time>2021-03-12T18:09:51.054Z</time>
      </trkpt>
      <trkpt lat="41.5386919956654" lon="-8.41825095936656">
        <ele>196.23399353027344</ele>
        <time>2021-03-12T18:09:55.310Z</time>
      </trkpt>
      <trkpt lat="41.5403889957815" lon="-8.41888396069407">
        <ele>179.72804260253906</ele>
        <time>2021-03-12T18:09:59.613Z</time>
      </trkpt>
      <trkpt lat="41.5407639183104" lon="-8.41876896098256">
        <ele>178.34652709960938</ele>
        <time>2021-03-12T18:10:03.926Z</time>
      </trkpt>
      <trkpt lat="41.5418629534543" lon="-8.41766892001033">
        <ele>169.7193603515625</ele>
        <time>2021-03-12T18:10:08.276Z</time>
      </trkpt>
      <trkpt lat="41.5422779414803" lon="-8.41758199967444">
        <ele>168.31019592285156</ele>
        <time>2021-03-12T18:10:12.637Z</time>
      </trkpt>
      <trkpt lat="41.5448489226401" lon="-8.4192659240216">
        <ele>178.1358184814453</ele>
        <time>2021-03-12T18:10:17.074Z</time>
      </trkpt>
      <trkpt lat="41.5459649730474" lon="-8.41973698697984">
        <ele>173.7383270263672</ele>
        <time>2021-03-12T18:10:21.542Z</time>
      </trkpt>
      <trkpt lat="41.550958994776" lon="-8.42277199029922">
        <ele>193.94451904296875</ele>
        <time>2021-03-12T18:10:26.157Z</time>
      </trkpt>
      <trkpt lat="41.5501059684902" lon="-8.43092196621001">
        <ele>173.39620971679688</ele>
        <time>2021-03-12T18:10:30.936Z</time>
      </trkpt>
      <trkpt lat="41.5499629732221" lon="-8.43263296410441">
        <ele>170.17166137695312</ele>
        <time>2021-03-12T18:10:35.750Z</time>
      </trkpt>
      <trkpt lat="41.5500779729337" lon="-8.4332019276917">
        <ele>169.6269989013672</ele>
        <time>2021-03-12T18:10:40.576Z</time>
      </trkpt>
      <trkpt lat="41.5493079274893" lon="-8.43441998586059">
        <ele>161.37197875976562</ele>
        <time>2021-03-12T18:10:45.434Z</time>
      </trkpt>
      <trkpt lat="41.5491679497063" lon="-8.4350199624896">
        <ele>156.60693359375</ele>
        <time>2021-03-12T18:10:50.304Z</time>
      </trkpt>
      <trkpt lat="41.5497399307787" lon="-8.43718492425978">
        <ele>145.83985900878906</ele>
        <time>2021-03-12T18:10:55.220Z</time>
      </trkpt>
      <trkpt lat="41.5500429365784" lon="-8.43765799887478">
        <ele>140.74021911621094</ele>
        <time>2021-03-12T18:11:00.149Z</time>
      </trkpt>
      <trkpt lat="41.5505999978632" lon="-8.43820399604738">
        <ele>133.78428649902344</ele>
        <time>2021-03-12T18:11:05.096Z</time>
      </trkpt>
      <trkpt lat="41.5508719906211" lon="-8.43816795386374">
        <ele>131.7317657470703</ele>
        <time>2021-03-12T18:11:10.050Z</time>
      </trkpt>
      <trkpt lat="41.5511119645089" lon="-8.43798296526074">
        <ele>131.35997009277344</ele>
        <time>2021-03-12T18:11:15.012Z</time>
      </trkpt>
      <trkpt lat="41.5517549403012" lon="-8.43647195957601">
        <ele>135.69439697265625</ele>
        <time>2021-03-12T18:11:20.008Z</time>
      </trkpt>
      <trkpt lat="41.5522659849375" lon="-8.43585396185517">
        <ele>134.3018798828125</ele>
        <time>2021-03-12T18:11:25.023Z</time>
      </trkpt>
      <trkpt lat="41.5528919454664" lon="-8.43574591912329">
        <ele>130.742919921875</ele>
        <time>2021-03-12T18:11:30.055Z</time>
      </trkpt>
      <trkpt lat="41.5534729789943" lon="-8.43614699319005">
        <ele>129.28346252441406</ele>
        <time>2021-03-12T18:11:35.104Z</time>
      </trkpt>
      <trkpt lat="41.5537099353969" lon="-8.43659098260105">
        <ele>127.77977752685547</ele>
        <time>2021-03-12T18:11:40.164Z</time>
      </trkpt>
      <trkpt lat="41.5540539287031" lon="-8.43829292804003">
        <ele>117.7066879272461</ele>
        <time>2021-03-12T18:11:45.259Z</time>
      </trkpt>
      <trkpt lat="41.55382392928" lon="-8.43981298618019">
        <ele>109.1837387084961</ele>
        <time>2021-03-12T18:11:50.385Z</time>
      </trkpt>
      <trkpt lat="41.5538419503719" lon="-8.44046694226563">
        <ele>103.70943450927734</ele>
        <time>2021-03-12T18:11:55.524Z</time>
      </trkpt>
      <trkpt lat="41.5540969278663" lon="-8.44105895608664">
        <ele>100.79480743408203</ele>
        <time>2021-03-12T18:12:00.677Z</time>
      </trkpt>
      <trkpt lat="41.554428935051" lon="-8.44140496104956">
        <ele>99.51041412353516</ele>
        <time>2021-03-12T18:12:05.841Z</time>
      </trkpt>
      <trkpt lat="41.5553709771484" lon="-8.44184098765254">
        <ele>92.31497192382812</ele>
        <time>2021-03-12T18:12:11.032Z</time>
      </trkpt>
      <trkpt lat="41.5565919689834" lon="-8.44201298430562">
        <ele>86.85321807861328</ele>
        <time>2021-03-12T18:12:16.256Z</time>
      </trkpt>
      <trkpt lat="41.5578139666468" lon="-8.44415497966111">
        <ele>76.83963775634766</ele>
        <time>2021-03-12T18:12:21.534Z</time>
      </trkpt>
      <trkpt lat="41.5596579853445" lon="-8.44662093557417">
        <ele>67.91154479980469</ele>
        <time>2021-03-12T18:12:26.881Z</time>
      </trkpt>
      <trkpt lat="41.5599039942026" lon="-8.44661791808903">
        <ele>67.02967834472656</ele>
        <time>2021-03-12T18:12:32.235Z</time>
      </trkpt>
      <trkpt lat="41.5603049844503" lon="-8.44604996033013">
        <ele>66.26779174804688</ele>
        <time>2021-03-12T18:12:37.604Z</time>
      </trkpt>
      <trkpt lat="41.5614719968289" lon="-8.44790797680616">
        <ele>64.45093536376953</ele>
        <time>2021-03-12T18:12:43.022Z</time>
      </trkpt>
      <trkpt lat="41.5635509602726" lon="-8.44941395334899">
        <ele>56.66304016113281</ele>
        <time>2021-03-12T18:12:48.503Z</time>
      </trkpt>
      <trkpt lat="41.5651719365269" lon="-8.45027594827116">
        <ele>58.89033508300781</ele>
        <time>2021-03-12T18:12:54.030Z</time>
      </trkpt>
      <trkpt lat="41.5696989186108" lon="-8.45144991762936">
        <ele>58.923213958740234</ele>
        <time>2021-03-12T18:12:59.680Z</time>
      </trkpt>
      <trkpt lat="41.5721449255943" lon="-8.45257099717855">
        <ele>66.96336364746094</ele>
        <time>2021-03-12T18:13:05.399Z</time>
      </trkpt>
      <trkpt lat="41.5742139983922" lon="-8.45269697718322">
        <ele>68.19524383544922</ele>
        <time>2021-03-12T18:13:11.174Z</time>
      </trkpt>
      <trkpt lat="41.5771749895066" lon="-8.45320693217218">
        <ele>64.88922119140625</ele>
        <time>2021-03-12T18:13:17.028Z</time>
      </trkpt>
      <trkpt lat="41.5794649254531" lon="-8.45328899100423">
        <ele>67.0</ele>
        <time>2021-03-12T18:13:22.943Z</time>
      </trkpt>
      <trkpt lat="41.583576919511" lon="-8.45438593067229">
        <ele>67.78153228759766</ele>
        <time>2021-03-12T18:13:28.970Z</time>
      </trkpt>
      <trkpt lat="41.5866519883275" lon="-8.4560829307884">
        <ele>58.17905807495117</ele>
        <time>2021-03-12T18:13:35.086Z</time>
      </trkpt>
      <trkpt lat="41.5880519337952" lon="-8.45748597756028">
        <ele>48.882225036621094</ele>
        <time>2021-03-12T18:13:41.248Z</time>
      </trkpt>
      <trkpt lat="41.5913959778845" lon="-8.45922698266804">
        <ele>31.692472457885742</ele>
        <time>2021-03-12T18:13:47.506Z</time>
      </trkpt>
      <trkpt lat="41.5954969916493" lon="-8.46279398538172">
        <ele>18.85558319091797</ele>
        <time>2021-03-12T18:13:53.895Z</time>
      </trkpt>
      <trkpt lat="41.5969169698656" lon="-8.46361298114061">
        <ele>24.624128341674805</ele>
        <time>2021-03-12T18:14:00.325Z</time>
      </trkpt>
      <trkpt lat="41.5989779960364" lon="-8.46448997966945">
        <ele>33.149169921875</ele>
        <time>2021-03-12T18:14:06.813Z</time>
      </trkpt>
      <trkpt lat="41.6008289717138" lon="-8.46423198468983">
        <ele>42.93197250366211</ele>
        <time>2021-03-12T18:14:13.350Z</time>
      </trkpt>
      <trkpt lat="41.6026699729264" lon="-8.4634979814291">
        <ele>51.91571044921875</ele>
        <time>2021-03-12T18:14:19.938Z</time>
      </trkpt>
      <trkpt lat="41.6032669320703" lon="-8.46352295950055">
        <ele>55.12788391113281</ele>
        <time>2021-03-12T18:14:26.542Z</time>
      </trkpt>
      <trkpt lat="41.6062009334564" lon="-8.46399997361004">
        <ele>57.22734069824219</ele>
        <time>2021-03-12T18:14:33.225Z</time>
      </trkpt>
      <trkpt lat="41.6068559791893" lon="-8.46459995023906">
        <ele>58.07790756225586</ele>
        <time>2021-03-12T18:14:39.929Z</time>
      </trkpt>
      <trkpt lat="41.6079379990697" lon="-8.46462392248213">
        <ele>56.94892501831055</ele>
        <time>2021-03-12T18:14:46.662Z</time>
      </trkpt>
      <trkpt lat="41.6102259233594" lon="-8.46545498818159">
        <ele>57.388336181640625</ele>
        <time>2021-03-12T18:14:53.458Z</time>
      </trkpt>
      <trkpt lat="41.6112939454615" lon="-8.4654219634831">
        <ele>60.964778900146484</ele>
        <time>2021-03-12T18:15:00.283Z</time>
      </trkpt>
      <trkpt lat="41.6117759887129" lon="-8.46525298431516">
        <ele>62.111114501953125</ele>
        <time>2021-03-12T18:15:07.121Z</time>
      </trkpt>
      <trkpt lat="41.6122269351035" lon="-8.46564198844135">
        <ele>61.29555892944336</ele>
        <time>2021-03-12T18:15:13.973Z</time>
      </trkpt>
      <trkpt lat="41.6126079764217" lon="-8.46570795401931">
        <ele>60.072505950927734</ele>
        <time>2021-03-12T18:15:20.836Z</time>
      </trkpt>
      <trkpt lat="41.6143619734794" lon="-8.46528793685138">
        <ele>60.05602264404297</ele>
        <time>2021-03-12T18:15:27.746Z</time>
      </trkpt>
      <trkpt lat="41.6152529697865" lon="-8.465944994241">
        <ele>63.098167419433594</ele>
        <time>2021-03-12T18:15:34.683Z</time>
      </trkpt>
      <trkpt lat="41.6166349779814" lon="-8.46653591841459">
        <ele>50.42253112792969</ele>
        <time>2021-03-12T18:15:41.659Z</time>
      </trkpt>
      <trkpt lat="41.6181769967079" lon="-8.46835093572736">
        <ele>53.7703857421875</ele>
        <time>2021-03-12T18:15:48.690Z</time>
      </trkpt>
      <trkpt lat="41.6188699286431" lon="-8.46844892017543">
        <ele>58.919097900390625</ele>
        <time>2021-03-12T18:15:55.739Z</time>
      </trkpt>
      <trkpt lat="41.6191139258444" lon="-8.46901696175337">
        <ele>58.45638656616211</ele>
        <time>2021-03-12T18:16:02.802Z</time>
      </trkpt>
      <trkpt lat="41.6196039319038" lon="-8.46941191703081">
        <ele>56.393985748291016</ele>
        <time>2021-03-12T18:16:09.880Z</time>
      </trkpt>
      <trkpt lat="41.6207949165255" lon="-8.46966999582946">
        <ele>56.61631774902344</ele>
        <time>2021-03-12T18:16:16.990Z</time>
      </trkpt>
      <trkpt lat="41.6211359761655" lon="-8.46875896677375">
        <ele>63.85416030883789</ele>
        <time>2021-03-12T18:16:24.120Z</time>
      </trkpt>
      <trkpt lat="41.6223069280386" lon="-8.4695059619844">
        <ele>62.96258544921875</ele>
        <time>2021-03-12T18:16:31.285Z</time>
      </trkpt>
      <trkpt lat="41.6234929673374" lon="-8.46972892060876">
        <ele>59.608341217041016</ele>
        <time>2021-03-12T18:16:38.482Z</time>
      </trkpt>
      <trkpt lat="41.6240219492465" lon="-8.47034792415798">
        <ele>61.32170867919922</ele>
        <time>2021-03-12T18:16:45.698Z</time>
      </trkpt>
      <trkpt lat="41.624905988574" lon="-8.47047398798168">
        <ele>54.249244689941406</ele>
        <time>2021-03-12T18:16:52.937Z</time>
      </trkpt>
      <trkpt lat="41.6253189649433" lon="-8.47032696940005">
        <ele>54.493019104003906</ele>
        <time>2021-03-12T18:17:00.188Z</time>
      </trkpt>
      <trkpt lat="41.6259119845927" lon="-8.47072695381939">
        <ele>54.71806716918945</ele>
        <time>2021-03-12T18:17:07.456Z</time>
      </trkpt>
      <trkpt lat="41.6271009575576" lon="-8.47118091769516">
        <ele>57.11140441894531</ele>
        <time>2021-03-12T18:17:14.757Z</time>
      </trkpt>
      <trkpt lat="41.6277729347348" lon="-8.47164896316826">
        <ele>57.86666488647461</ele>
        <time>2021-03-12T18:17:22.079Z</time>
      </trkpt>
      <trkpt lat="41.6280689835548" lon="-8.47217794507742">
        <ele>56.3290901184082</ele>
        <time>2021-03-12T18:17:29.414Z</time>
      </trkpt>
      <trkpt lat="41.628338964656" lon="-8.47309894859791">
        <ele>51.91888427734375</ele>
        <time>2021-03-12T18:17:36.769Z</time>
      </trkpt>
      <trkpt lat="41.6282119788229" lon="-8.47460794262588">
        <ele>44.056884765625</ele>
        <time>2021-03-12T18:17:44.154Z</time>
      </trkpt>
      <trkpt lat="41.6287489235401" lon="-8.47543498501182">
        <ele>46.32777404785156</ele>
        <time>2021-03-12T18:17:51.561Z</time>
      </trkpt>
      <trkpt lat="41.6307029966265" lon="-8.47687591798604">
        <ele>59.27192306518555</ele>
        <time>2021-03-12T18:17:59.027Z</time>
      </trkpt>
      <trkpt lat="41.6314879618585" lon="-8.47776498645544">
        <ele>65.63095092773438</ele>
        <time>2021-03-12T18:18:06.521Z</time>
      </trkpt>
      <trkpt lat="41.6330699622631" lon="-8.47842095419765">
        <ele>68.19529724121094</ele>
        <time>2021-03-12T18:18:14.059Z</time>
      </trkpt>
      <trkpt lat="41.6336919832975" lon="-8.47833998501301">
        <ele>71.22630310058594</ele>
        <time>2021-03-12T18:18:21.614Z</time>
      </trkpt>
      <trkpt lat="41.6346469335258" lon="-8.4786909352988">
        <ele>72.71883392333984</ele>
        <time>2021-03-12T18:18:29.195Z</time>
      </trkpt>
      <trkpt lat="41.6353249456733" lon="-8.47954999655485">
        <ele>64.24248504638672</ele>
        <time>2021-03-12T18:18:36.801Z</time>
      </trkpt>
      <trkpt lat="41.6356989461929" lon="-8.4795839432627">
        <ele>61.206180572509766</ele>
        <time>2021-03-12T18:18:44.417Z</time>
      </trkpt>
      <trkpt lat="41.6369109693915" lon="-8.47864198498428">
        <ele>66.81053161621094</ele>
        <time>2021-03-12T18:18:52.070Z</time>
      </trkpt>
      <trkpt lat="41.6380139440298" lon="-8.47952292300761">
        <ele>59.036476135253906</ele>
        <time>2021-03-12T18:18:59.758Z</time>
      </trkpt>
      <trkpt lat="41.6388969775289" lon="-8.48100199364126">
        <ele>62.621177673339844</ele>
        <time>2021-03-12T18:19:07.483Z</time>
      </trkpt>
      <trkpt lat="41.6402189712971" lon="-8.4824609477073">
        <ele>69.04102325439453</ele>
        <time>2021-03-12T18:19:15.254Z</time>
      </trkpt>
      <trkpt lat="41.6403169557452" lon="-8.48331296816468">
        <ele>73.19683837890625</ele>
        <time>2021-03-12T18:19:23.042Z</time>
      </trkpt>
      <trkpt lat="41.6432999912649" lon="-8.48292798735201">
        <ele>98.22660064697266</ele>
        <time>2021-03-12T18:19:30.910Z</time>
      </trkpt>
      <trkpt lat="41.643767952919" lon="-8.48323593847454">
        <ele>102.17131042480469</ele>
        <time>2021-03-12T18:19:38.792Z</time>
      </trkpt>
      <trkpt lat="41.6441889759153" lon="-8.48306193016469">
        <ele>106.55335235595703</ele>
        <time>2021-03-12T18:19:46.686Z</time>
      </trkpt>
      <trkpt lat="41.6442059911788" lon="-8.48250897601247">
        <ele>107.3497085571289</ele>
        <time>2021-03-12T18:19:54.591Z</time>
      </trkpt>
      <trkpt lat="41.6448589414358" lon="-8.48291591741145">
        <ele>111.69983673095703</ele>
        <time>2021-03-12T18:20:02.515Z</time>
      </trkpt>
      <trkpt lat="41.6461519338191" lon="-8.48303695209324">
        <ele>114.7606430053711</ele>
        <time>2021-03-12T18:20:10.474Z</time>
      </trkpt>
      <trkpt lat="41.6469999309629" lon="-8.48403498530388">
        <ele>114.2809066772461</ele>
        <time>2021-03-12T18:20:18.463Z</time>
      </trkpt>
      <trkpt lat="41.6471439320594" lon="-8.48489698022604">
        <ele>115.06301879882812</ele>
        <time>2021-03-12T18:20:26.470Z</time>
      </trkpt>
      <trkpt lat="41.6476269811392" lon="-8.48574992269278">
        <ele>112.2448501586914</ele>
        <time>2021-03-12T18:20:34.498Z</time>
      </trkpt>
      <trkpt lat="41.6480669472367" lon="-8.48597799427807">
        <ele>110.3681869506836</ele>
        <time>2021-03-12T18:20:42.539Z</time>
      </trkpt>
      <trkpt lat="41.6487619746476" lon="-8.48557599820197">
        <ele>107.23104095458984</ele>
        <time>2021-03-12T18:20:50.600Z</time>
      </trkpt>
      <trkpt lat="41.6492829937488" lon="-8.48576392047107">
        <ele>102.35152435302734</ele>
        <time>2021-03-12T18:20:58.675Z</time>
      </trkpt>
      <trkpt lat="41.6500589903444" lon="-8.48706395365298">
        <ele>93.72008514404297</ele>
        <time>2021-03-12T18:21:06.783Z</time>
      </trkpt>
      <trkpt lat="41.650374988094" lon="-8.48815293051302">
        <ele>95.23789978027344</ele>
        <time>2021-03-12T18:21:14.915Z</time>
      </trkpt>
      <trkpt lat="41.6521569807082" lon="-8.48934098146856">
        <ele>101.27296447753906</ele>
        <time>2021-03-12T18:21:23.100Z</time>
      </trkpt>
      <trkpt lat="41.6525259520859" lon="-8.48988597281277">
        <ele>102.60104370117188</ele>
        <time>2021-03-12T18:21:31.299Z</time>
      </trkpt>
      <trkpt lat="41.6538259852678" lon="-8.49022099748254">
        <ele>109.04051208496094</ele>
        <time>2021-03-12T18:21:39.534Z</time>
      </trkpt>
      <trkpt lat="41.6565589886159" lon="-8.49184297956526">
        <ele>126.19373321533203</ele>
        <time>2021-03-12T18:21:47.849Z</time>
      </trkpt>
      <trkpt lat="41.6570329852402" lon="-8.49166796542704">
        <ele>129.05874633789062</ele>
        <time>2021-03-12T18:21:56.177Z</time>
      </trkpt>
      <trkpt lat="41.6583729162812" lon="-8.49173694849014">
        <ele>144.3256378173828</ele>
        <time>2021-03-12T18:22:04.540Z</time>
      </trkpt>
      <trkpt lat="41.6591029800475" lon="-8.4931309428066">
        <ele>149.4419403076172</ele>
        <time>2021-03-12T18:22:12.937Z</time>
      </trkpt>
      <trkpt lat="41.6590629983693" lon="-8.49380895495415">
        <ele>141.2497100830078</ele>
        <time>2021-03-12T18:22:21.348Z</time>
      </trkpt>
      <trkpt lat="41.6583989840001" lon="-8.49468293599784">
        <ele>130.8335418701172</ele>
        <time>2021-03-12T18:22:29.784Z</time>
      </trkpt>
      <trkpt lat="41.6589619964361" lon="-8.49533496424556">
        <ele>132.48348999023438</ele>
        <time>2021-03-12T18:22:38.240Z</time>
      </trkpt>
      <trkpt lat="41.6587849706411" lon="-8.49622193723917">
        <ele>140.684814453125</ele>
        <time>2021-03-12T18:22:46.714Z</time>
      </trkpt>
      <trkpt lat="41.6589899919927" lon="-8.49672292359173">
        <ele>144.9961700439453</ele>
        <time>2021-03-12T18:22:55.199Z</time>
      </trkpt>
      <trkpt lat="41.659476980567" lon="-8.49728694185615">
        <ele>156.16610717773438</ele>
        <time>2021-03-12T18:23:03.702Z</time>
      </trkpt>
      <trkpt lat="41.6601939685643" lon="-8.49745692685246">
        <ele>161.59046936035156</ele>
        <time>2021-03-12T18:23:12.224Z</time>
      </trkpt>
      <trkpt lat="41.6612769942731" lon="-8.49802396260202">
        <ele>166.64663696289062</ele>
        <time>2021-03-12T18:23:20.777Z</time>
      </trkpt>
      <trkpt lat="41.6617619711906" lon="-8.49848496727645">
        <ele>172.27536010742188</ele>
        <time>2021-03-12T18:23:29.346Z</time>
      </trkpt>
      <trkpt lat="41.6624139994383" lon="-8.49868395365775">
        <ele>173.99301147460938</ele>
        <time>2021-03-12T18:23:37.933Z</time>
      </trkpt>
      <trkpt lat="41.6622949764132" lon="-8.49863299168646">
        <ele>171.45399475097656</ele>
        <time>2021-03-12T18:23:46.523Z</time>
      </trkpt>
      <trkpt lat="41.6625289991498" lon="-8.498977990821">
        <ele>184.03875732421875</ele>
        <time>2021-03-12T18:23:55.122Z</time>
      </trkpt>
      <trkpt lat="41.6622049547732" lon="-8.49917094223201">
        <ele>185.9749298095703</ele>
        <time>2021-03-12T18:24:03.731Z</time>
      </trkpt>
      <trkpt lat="41.6649549733847" lon="-8.50032596848905">
        <ele>215.0063018798828</ele>
        <time>2021-03-12T18:24:12.417Z</time>
      </trkpt>
      <trkpt lat="41.6652329172939" lon="-8.49962993524969">
        <ele>208.45379638671875</ele>
        <time>2021-03-12T18:24:21.119Z</time>
      </trkpt>
      <trkpt lat="41.6667669732124" lon="-8.50003897212446">
        <ele>226.7845001220703</ele>
        <time>2021-03-12T18:24:29.862Z</time>
      </trkpt>
      <trkpt lat="41.6681049764156" lon="-8.50137999281287">
        <ele>242.61734008789062</ele>
        <time>2021-03-12T18:24:38.650Z</time>
      </trkpt>
      <trkpt lat="41.6690439172089" lon="-8.50095997564495">
        <ele>256.23956298828125</ele>
        <time>2021-03-12T18:24:47.464Z</time>
      </trkpt>
      <trkpt lat="41.6696179937571" lon="-8.50093097425997">
        <ele>266.693115234375</ele>
        <time>2021-03-12T18:24:56.294Z</time>
      </trkpt>
      <trkpt lat="41.6698549501598" lon="-8.50108293816447">
        <ele>270.70867919921875</ele>
        <time>2021-03-12T18:25:05.131Z</time>
      </trkpt>
      <trkpt lat="41.6700829379261" lon="-8.50172993727028">
        <ele>271.9886169433594</ele>
        <time>2021-03-12T18:25:13.982Z</time>
      </trkpt>
      <trkpt lat="41.6704579442739" lon="-8.50189497694373">
        <ele>274.1277770996094</ele>
        <time>2021-03-12T18:25:22.843Z</time>
      </trkpt>
      <trkpt lat="41.6706569306552" lon="-8.50218499079347">
        <ele>273.2540588378906</ele>
        <time>2021-03-12T18:25:31.712Z</time>
      </trkpt>
      <trkpt lat="41.6709749400616" lon="-8.50308897905052">
        <ele>269.827880859375</ele>
        <time>2021-03-12T18:25:40.601Z</time>
      </trkpt>
      <trkpt lat="41.6710239741951" lon="-8.5044349450618">
        <ele>266.6693420410156</ele>
        <time>2021-03-12T18:25:49.517Z</time>
      </trkpt>
      <trkpt lat="41.671509956941" lon="-8.50499091669917">
        <ele>270.3207702636719</ele>
        <time>2021-03-12T18:25:58.450Z</time>
      </trkpt>
      <trkpt lat="41.6759369429201" lon="-8.50606899708509">
        <ele>263.2105407714844</ele>
        <time>2021-03-12T18:26:07.503Z</time>
      </trkpt>
      <trkpt lat="41.6770859342068" lon="-8.50678992457688">
        <ele>264.0417175292969</ele>
        <time>2021-03-12T18:26:16.590Z</time>
      </trkpt>
      <trkpt lat="41.6785629931837" lon="-8.50614191964269">
        <ele>237.0666961669922</ele>
        <time>2021-03-12T18:26:25.718Z</time>
      </trkpt>
      <trkpt lat="41.6792179550976" lon="-8.50638792850077">
        <ele>230.35171508789062</ele>
        <time>2021-03-12T18:26:34.865Z</time>
      </trkpt>
      <trkpt lat="41.6794589348137" lon="-8.50582499988377">
        <ele>220.42816162109375</ele>
        <time>2021-03-12T18:26:44.025Z</time>
      </trkpt>
      <trkpt lat="41.6798829752952" lon="-8.50662396289408">
        <ele>216.60025024414062</ele>
        <time>2021-03-12T18:26:53.204Z</time>
      </trkpt>
      <trkpt lat="41.680788975209" lon="-8.50713794119656">
        <ele>206.0836944580078</ele>
        <time>2021-03-12T18:27:02.409Z</time>
      </trkpt>
      <trkpt lat="41.681409990415" lon="-8.50804997608066">
        <ele>195.77981567382812</ele>
        <time>2021-03-12T18:27:11.639Z</time>
      </trkpt>
      <trkpt lat="41.6813349723816" lon="-8.50897894240916">
        <ele>191.53993225097656</ele>
        <time>2021-03-12T18:27:20.888Z</time>
      </trkpt>
      <trkpt lat="41.6815129201859" lon="-8.50922796875238">
        <ele>188.7650146484375</ele>
        <time>2021-03-12T18:27:30.143Z</time>
      </trkpt>
      <trkpt lat="41.6819749306887" lon="-8.50915496237576">
        <ele>186.512939453125</ele>
        <time>2021-03-12T18:27:39.411Z</time>
      </trkpt>
      <trkpt lat="41.6827859636396" lon="-8.50958998315036">
        <ele>181.0548095703125</ele>
        <time>2021-03-12T18:27:48.702Z</time>
      </trkpt>
      <trkpt lat="41.683230958879" lon="-8.50950398482382">
        <ele>179.472412109375</ele>
        <time>2021-03-12T18:27:58.005Z</time>
      </trkpt>
      <trkpt lat="41.6858019400388" lon="-8.50973096676171">
        <ele>176.85043334960938</ele>
        <time>2021-03-12T18:28:07.377Z</time>
      </trkpt>
      <trkpt lat="41.6873109340668" lon="-8.51109797134995">
        <ele>182.77944946289062</ele>
        <time>2021-03-12T18:28:16.797Z</time>
      </trkpt>
      <trkpt lat="41.6878069750965" lon="-8.51226196624339">
        <ele>187.12208557128906</ele>
        <time>2021-03-12T18:28:26.244Z</time>
      </trkpt>
      <trkpt lat="41.6895569488406" lon="-8.51265792734921">
        <ele>203.11720275878906</ele>
        <time>2021-03-12T18:28:35.739Z</time>
      </trkpt>
      <trkpt lat="41.6904549859464" lon="-8.51438392885029">
        <ele>214.60836791992188</ele>
        <time>2021-03-12T18:28:45.276Z</time>
      </trkpt>
      <trkpt lat="41.6902949754149" lon="-8.51537894457579">
        <ele>205.84365844726562</ele>
        <time>2021-03-12T18:28:54.833Z</time>
      </trkpt>
      <trkpt lat="41.6905449237674" lon="-8.51661896333098">
        <ele>202.8175811767578</ele>
        <time>2021-03-12T18:29:04.416Z</time>
      </trkpt>
      <trkpt lat="41.6902109887451" lon="-8.51692792028189">
        <ele>201.6278076171875</ele>
        <time>2021-03-12T18:29:14.009Z</time>
      </trkpt>
      <trkpt lat="41.6900349687785" lon="-8.51790499873459">
        <ele>205.42567443847656</ele>
        <time>2021-03-12T18:29:23.622Z</time>
      </trkpt>
      <trkpt lat="41.690334957093" lon="-8.51904192008078">
        <ele>210.35292053222656</ele>
        <time>2021-03-12T18:29:33.260Z</time>
      </trkpt>
      <trkpt lat="41.6899579390883" lon="-8.5192309319973">
        <ele>210.02188110351562</ele>
        <time>2021-03-12T18:29:42.908Z</time>
      </trkpt>
      <trkpt lat="41.689504981041" lon="-8.51978296414018">
        <ele>213.7369842529297</ele>
        <time>2021-03-12T18:29:52.573Z</time>
      </trkpt>
      <trkpt lat="41.6891069244593" lon="-8.51993291638792">
        <ele>213.90919494628906</ele>
        <time>2021-03-12T18:30:02.249Z</time>
      </trkpt>
      <trkpt lat="41.6886949539185" lon="-8.52153193205595">
        <ele>212.57550048828125</ele>
        <time>2021-03-12T18:30:11.958Z</time>
      </trkpt>
      <trkpt lat="41.6882719192654" lon="-8.52233491837978">
        <ele>208.33412170410156</ele>
        <time>2021-03-12T18:30:21.687Z</time>
      </trkpt>
      <trkpt lat="41.6882459353656" lon="-8.52260095998645">
        <ele>207.5086669921875</ele>
        <time>2021-03-12T18:30:31.421Z</time>
      </trkpt>
      <trkpt lat="41.688595963642" lon="-8.52320495992899">
        <ele>207.2209930419922</ele>
        <time>2021-03-12T18:30:41.171Z</time>
      </trkpt>
      <trkpt lat="41.6886859852821" lon="-8.523989925161">
        <ele>206.42066955566406</ele>
        <time>2021-03-12T18:30:50.937Z</time>
      </trkpt>
      <trkpt lat="41.6904989909381" lon="-8.52534896694124">
        <ele>212.72157287597656</ele>
        <time>2021-03-12T18:31:00.758Z</time>
      </trkpt>
      <trkpt lat="41.6922199632972" lon="-8.52598096244037">
        <ele>218.71160888671875</ele>
        <time>2021-03-12T18:31:10.627Z</time>
      </trkpt>
      <trkpt lat="41.6928079538047" lon="-8.52644599042833">
        <ele>219.47035217285156</ele>
        <time>2021-03-12T18:31:20.514Z</time>
      </trkpt>
      <trkpt lat="41.6936539392918" lon="-8.5268119443208">
        <ele>222.4264678955078</ele>
        <time>2021-03-12T18:31:30.424Z</time>
      </trkpt>
      <trkpt lat="41.6942529939115" lon="-8.52739792317152">
        <ele>226.29931640625</ele>
        <time>2021-03-12T18:31:40.354Z</time>
      </trkpt>
      <trkpt lat="41.6966289281845" lon="-8.5284349322319">
        <ele>230.85696411132812</ele>
        <time>2021-03-12T18:31:50.351Z</time>
      </trkpt>
      <trkpt lat="41.6969609353691" lon="-8.52899593301117">
        <ele>229.3345184326172</ele>
        <time>2021-03-12T18:32:00.362Z</time>
      </trkpt>
      <trkpt lat="41.6973839700222" lon="-8.529346967116">
        <ele>228.06829833984375</ele>
        <time>2021-03-12T18:32:10.386Z</time>
      </trkpt>
      <trkpt lat="41.6987509746104" lon="-8.52964293211699">
        <ele>234.0919952392578</ele>
        <time>2021-03-12T18:32:20.447Z</time>
      </trkpt>
      <trkpt lat="41.699243998155" lon="-8.52924093604088">
        <ele>241.05589294433594</ele>
        <time>2021-03-12T18:32:30.524Z</time>
      </trkpt>
      <trkpt lat="41.6994609218091" lon="-8.52934093214571">
        <ele>241.0286865234375</ele>
        <time>2021-03-12T18:32:40.607Z</time>
      </trkpt>
      <trkpt lat="41.7001459747553" lon="-8.53011994622648">
        <ele>237.2232208251953</ele>
        <time>2021-03-12T18:32:50.714Z</time>
      </trkpt>
      <trkpt lat="41.7011079657823" lon="-8.53226797655225">
        <ele>237.9781036376953</ele>
        <time>2021-03-12T18:33:00.871Z</time>
      </trkpt>
      <trkpt lat="41.7016679607332" lon="-8.53282294236124">
        <ele>241.05490112304688</ele>
        <time>2021-03-12T18:33:11.046Z</time>
      </trkpt>
      <trkpt lat="41.7020249459893" lon="-8.53434291668236">
        <ele>250.0604705810547</ele>
        <time>2021-03-12T18:33:21.253Z</time>
      </trkpt>
      <trkpt lat="41.7026709392667" lon="-8.53569198399782">
        <ele>250.14773559570312</ele>
        <time>2021-03-12T18:33:31.492Z</time>
      </trkpt>
      <trkpt lat="41.7033349536359" lon="-8.53642095811665">
        <ele>246.49844360351562</ele>
        <time>2021-03-12T18:33:41.754Z</time>
      </trkpt>
      <trkpt lat="41.705068917945" lon="-8.536894954741">
        <ele>244.0926055908203</ele>
        <time>2021-03-12T18:33:52.063Z</time>
      </trkpt>
      <trkpt lat="41.7056789528579" lon="-8.53737993165851">
        <ele>238.83355712890625</ele>
        <time>2021-03-12T18:34:02.391Z</time>
      </trkpt>
      <trkpt lat="41.7066059913486" lon="-8.53758797049522">
        <ele>240.1150360107422</ele>
        <time>2021-03-12T18:34:12.744Z</time>
      </trkpt>
      <trkpt lat="41.7090009525418" lon="-8.53933794423938">
        <ele>224.8319854736328</ele>
        <time>2021-03-12T18:34:23.170Z</time>
      </trkpt>
      <trkpt lat="41.710195960477" lon="-8.53903099894524">
        <ele>224.0492401123047</ele>
        <time>2021-03-12T18:34:33.629Z</time>
      </trkpt>
      <trkpt lat="41.7110899742693" lon="-8.539151949808">
        <ele>212.79002380371094</ele>
        <time>2021-03-12T18:34:44.112Z</time>
      </trkpt>
      <trkpt lat="41.7120489478111" lon="-8.53883595205843">
        <ele>202.98385620117188</ele>
        <time>2021-03-12T18:34:54.621Z</time>
      </trkpt>
      <trkpt lat="41.7125029955059" lon="-8.53822097182274">
        <ele>204.89736938476562</ele>
        <time>2021-03-12T18:35:05.147Z</time>
      </trkpt>
      <trkpt lat="41.7135879490525" lon="-8.53760498575866">
        <ele>198.85496520996094</ele>
        <time>2021-03-12T18:35:15.705Z</time>
      </trkpt>
      <trkpt lat="41.7148469947278" lon="-8.53750792331994">
        <ele>185.202880859375</ele>
        <time>2021-03-12T18:35:26.296Z</time>
      </trkpt>
      <trkpt lat="41.7151429597288" lon="-8.53789592161775">
        <ele>175.232177734375</ele>
        <time>2021-03-12T18:35:36.898Z</time>
      </trkpt>
      <trkpt lat="41.7154719494283" lon="-8.53779894299805">
        <ele>172.7975616455078</ele>
        <time>2021-03-12T18:35:47.509Z</time>
      </trkpt>
      <trkpt lat="41.7163509596139" lon="-8.53706695139408">
        <ele>177.03428649902344</ele>
        <time>2021-03-12T18:35:58.148Z</time>
      </trkpt>
      <trkpt lat="41.7172449734062" lon="-8.5384769551456">
        <ele>164.27810668945312</ele>
        <time>2021-03-12T18:36:08.824Z</time>
      </trkpt>
      <trkpt lat="41.7183669749647" lon="-8.53876093402505">
        <ele>157.57504272460938</ele>
        <time>2021-03-12T18:36:19.530Z</time>
      </trkpt>
      <trkpt lat="41.7187499441206" lon="-8.53919293731451">
        <ele>152.1263427734375</ele>
        <time>2021-03-12T18:36:30.250Z</time>
      </trkpt>
      <trkpt lat="41.719408929348" lon="-8.53954296559095">
        <ele>145.9926300048828</ele>
        <time>2021-03-12T18:36:40.988Z</time>
      </trkpt>
      <trkpt lat="41.7196699418128" lon="-8.54108196683228">
        <ele>138.6370849609375</ele>
        <time>2021-03-12T18:36:51.758Z</time>
      </trkpt>
      <trkpt lat="41.7195869609714" lon="-8.54177791625261">
        <ele>139.39822387695312</ele>
        <time>2021-03-12T18:37:02.542Z</time>
      </trkpt>
      <trkpt lat="41.720999982208" lon="-8.54307199828327">
        <ele>142.95982360839844</ele>
        <time>2021-03-12T18:37:13.372Z</time>
      </trkpt>
      <trkpt lat="41.7215409502387" lon="-8.54283294640481">
        <ele>135.64088439941406</ele>
        <time>2021-03-12T18:37:24.217Z</time>
      </trkpt>
      <trkpt lat="41.721916962415" lon="-8.54297996498644">
        <ele>134.0501251220703</ele>
        <time>2021-03-12T18:37:35.072Z</time>
      </trkpt>
      <trkpt lat="41.7222389951348" lon="-8.54290192946792">
        <ele>128.09815979003906</ele>
        <time>2021-03-12T18:37:45.936Z</time>
      </trkpt>
      <trkpt lat="41.7226579226553" lon="-8.54158999398351">
        <ele>127.52873229980469</ele>
        <time>2021-03-12T18:37:56.829Z</time>
      </trkpt>
      <trkpt lat="41.7228739243001" lon="-8.54139192961156">
        <ele>128.825439453125</ele>
        <time>2021-03-12T18:38:07.728Z</time>
      </trkpt>
      <trkpt lat="41.7230029217899" lon="-8.54140198789537">
        <ele>127.75199127197266</ele>
        <time>2021-03-12T18:38:18.631Z</time>
      </trkpt>
      <trkpt lat="41.7227879259735" lon="-8.54145496152341">
        <ele>128.53700256347656</ele>
        <time>2021-03-12T18:38:29.540Z</time>
      </trkpt>
      <trkpt lat="41.723515978083" lon="-8.5417839512229">
        <ele>122.54119873046875</ele>
        <time>2021-03-12T18:38:40.469Z</time>
      </trkpt>
      <trkpt lat="41.7236979492009" lon="-8.54217094369233">
        <ele>120.57884979248047</ele>
        <time>2021-03-12T18:38:51.407Z</time>
      </trkpt>
      <trkpt lat="41.7242949921638" lon="-8.54215795174241">
        <ele>126.61707305908203</ele>
        <time>2021-03-12T18:39:02.361Z</time>
      </trkpt>
      <trkpt lat="41.72422693111" lon="-8.54294492863119">
        <ele>130.00013732910156</ele>
        <time>2021-03-12T18:39:13.331Z</time>
      </trkpt>
      <trkpt lat="41.7246539890766" lon="-8.54323896579444">
        <ele>136.72830200195312</ele>
        <time>2021-03-12T18:39:24.314Z</time>
      </trkpt>
      <trkpt lat="41.7254039179534" lon="-8.54310393333435">
        <ele>141.17127990722656</ele>
        <time>2021-03-12T18:39:35.317Z</time>
      </trkpt>
      <trkpt lat="41.7265959922224" lon="-8.54169191792607">
        <ele>144.27345275878906</ele>
        <time>2021-03-12T18:39:46.363Z</time>
      </trkpt>
      <trkpt lat="41.7279309779406" lon="-8.54172494262457">
        <ele>143.82696533203125</ele>
        <time>2021-03-12T18:39:57.444Z</time>
      </trkpt>
      <trkpt lat="41.7281439621001" lon="-8.54210598394275">
        <ele>142.16851806640625</ele>
        <time>2021-03-12T18:40:08.535Z</time>
      </trkpt>
      <trkpt lat="41.7284699343145" lon="-8.54382092133164">
        <ele>140.39993286132812</ele>
        <time>2021-03-12T18:40:19.661Z</time>
      </trkpt>
      <trkpt lat="41.7291069589555" lon="-8.54410498403013">
        <ele>141.6935272216797</ele>
        <time>2021-03-12T18:40:30.805Z</time>
      </trkpt>
      <trkpt lat="41.7295199353248" lon="-8.54397892020643">
        <ele>142.6010284423828</ele>
        <time>2021-03-12T18:40:41.960Z</time>
      </trkpt>
      <trkpt lat="41.7301589716226" lon="-8.54416893795133">
        <ele>140.9610137939453</ele>
        <time>2021-03-12T18:40:53.133Z</time>
      </trkpt>
      <trkpt lat="41.730545964092" lon="-8.54454293847084">
        <ele>139.74862670898438</ele>
        <time>2021-03-12T18:41:04.318Z</time>
      </trkpt>
      <trkpt lat="41.7306429427117" lon="-8.54509497061372">
        <ele>138.889404296875</ele>
        <time>2021-03-12T18:41:15.515Z</time>
      </trkpt>
      <trkpt lat="41.7304609715939" lon="-8.54590692557395">
        <ele>137.24072265625</ele>
        <time>2021-03-12T18:41:26.729Z</time>
      </trkpt>
      <trkpt lat="41.7304899729788" lon="-8.54683597572148">
        <ele>138.66302490234375</ele>
        <time>2021-03-12T18:41:37.961Z</time>
      </trkpt>
      <trkpt lat="41.7299309838563" lon="-8.54809896089137">
        <ele>135.34117126464844</ele>
        <time>2021-03-12T18:41:49.222Z</time>
      </trkpt>
      <trkpt lat="41.7304359935224" lon="-8.54837799444795">
        <ele>146.44789123535156</ele>
        <time>2021-03-12T18:42:00.498Z</time>
      </trkpt>
      <trkpt lat="41.7306999396533" lon="-8.54932992719114">
        <ele>150.9296112060547</ele>
        <time>2021-03-12T18:42:11.794Z</time>
      </trkpt>
      <trkpt lat="41.7310939729214" lon="-8.54978799819946">
        <ele>157.85150146484375</ele>
        <time>2021-03-12T18:42:23.104Z</time>
      </trkpt>
      <trkpt lat="41.7312229704112" lon="-8.55097697116435">
        <ele>156.017578125</ele>
        <time>2021-03-12T18:42:34.438Z</time>
      </trkpt>
      <trkpt lat="41.7321669403464" lon="-8.5516409855336">
        <ele>158.63140869140625</ele>
        <time>2021-03-12T18:42:45.801Z</time>
      </trkpt>
      <trkpt lat="41.7327179666609" lon="-8.55117394588888">
        <ele>172.302978515625</ele>
        <time>2021-03-12T18:42:57.181Z</time>
      </trkpt>
      <trkpt lat="41.7336589191109" lon="-8.55106799863279">
        <ele>183.64515686035156</ele>
        <time>2021-03-12T18:43:08.586Z</time>
      </trkpt>
      <trkpt lat="41.7338349390775" lon="-8.55193493887782">
        <ele>181.66983032226562</ele>
        <time>2021-03-12T18:43:20.009Z</time>
      </trkpt>
      <trkpt lat="41.7336739227176" lon="-8.55257397517562">
        <ele>174.280029296875</ele>
        <time>2021-03-12T18:43:31.446Z</time>
      </trkpt>
      <trkpt lat="41.733748940751" lon="-8.55295493267477">
        <ele>173.33412170410156</ele>
        <time>2021-03-12T18:43:42.891Z</time>
      </trkpt>
      <trkpt lat="41.7344269528985" lon="-8.55387199670076">
        <ele>174.81271362304688</ele>
        <time>2021-03-12T18:43:54.361Z</time>
      </trkpt>
      <trkpt lat="41.7347089201212" lon="-8.55459594167769">
        <ele>169.40513610839844</ele>
        <time>2021-03-12T18:44:05.848Z</time>
      </trkpt>
      <trkpt lat="41.7353709228337" lon="-8.55526096187532">
        <ele>166.70181274414062</ele>
        <time>2021-03-12T18:44:17.357Z</time>
      </trkpt>
      <trkpt lat="41.7372159473598" lon="-8.5559649579227">
        <ele>156.70655822753906</ele>
        <time>2021-03-12T18:44:28.917Z</time>
      </trkpt>
      <trkpt lat="41.7378179356456" lon="-8.55725795030594">
        <ele>151.25027465820312</ele>
        <time>2021-03-12T18:44:40.507Z</time>
      </trkpt>
      <trkpt lat="41.7385369352996" lon="-8.55821994133294">
        <ele>142.66026306152344</ele>
        <time>2021-03-12T18:44:52.124Z</time>
      </trkpt>
      <trkpt lat="41.7391779832542" lon="-8.5586239490658">
        <ele>138.8524169921875</ele>
        <time>2021-03-12T18:45:03.760Z</time>
      </trkpt>
      <trkpt lat="41.7403929401189" lon="-8.55902996845543">
        <ele>132.8731231689453</ele>
        <time>2021-03-12T18:45:15.430Z</time>
      </trkpt>
      <trkpt lat="41.7407079320401" lon="-8.55901697650552">
        <ele>133.73045349121094</ele>
        <time>2021-03-12T18:45:27.108Z</time>
      </trkpt>
      <trkpt lat="41.7415019497275" lon="-8.5584809537977">
        <ele>133.40106201171875</ele>
        <time>2021-03-12T18:45:38.810Z</time>
      </trkpt>
      <trkpt lat="41.7424189299345" lon="-8.5591559484601">
        <ele>130.3363037109375</ele>
        <time>2021-03-12T18:45:50.540Z</time>
      </trkpt>
      <trkpt lat="41.742628980428" lon="-8.55961494147778">
        <ele>130.48855590820312</ele>
        <time>2021-03-12T18:46:02.280Z</time>
      </trkpt>
      <trkpt lat="41.742763929069" lon="-8.56077793054283">
        <ele>128.3633575439453</ele>
        <time>2021-03-12T18:46:14.044Z</time>
      </trkpt>
      <trkpt lat="41.7426159884781" lon="-8.56106392107904">
        <ele>126.5470199584961</ele>
        <time>2021-03-12T18:46:25.815Z</time>
      </trkpt>
      <trkpt lat="41.7419569194317" lon="-8.56153196655214">
        <ele>121.11857604980469</ele>
        <time>2021-03-12T18:46:37.606Z</time>
      </trkpt>
      <trkpt lat="41.7419439274818" lon="-8.56241592206061">
        <ele>120.2808609008789</ele>
        <time>2021-03-12T18:46:49.414Z</time>
      </trkpt>
      <trkpt lat="41.7413139436394" lon="-8.56247593648732">
        <ele>117.40013122558594</ele>
        <time>2021-03-12T18:47:01.239Z</time>
      </trkpt>
      <trkpt lat="41.740963999182" lon="-8.56361797079444">
        <ele>115.92495727539062</ele>
        <time>2021-03-12T18:47:13.089Z</time>
      </trkpt>
      <trkpt lat="41.7405979614705" lon="-8.56421492993832">
        <ele>114.21488189697266</ele>
        <time>2021-03-12T18:47:24.954Z</time>
      </trkpt>
      <trkpt lat="41.7406139709055" lon="-8.56455096043646">
        <ele>113.5836410522461</ele>
        <time>2021-03-12T18:47:36.826Z</time>
      </trkpt>
      <trkpt lat="41.7401489429176" lon="-8.56496896594763">
        <ele>108.73143005371094</ele>
        <time>2021-03-12T18:47:48.713Z</time>
      </trkpt>
      <trkpt lat="41.7403639387339" lon="-8.56606297194958">
        <ele>106.34137725830078</ele>
        <time>2021-03-12T18:48:00.622Z</time>
      </trkpt>
      <trkpt lat="41.7407189961523" lon="-8.56654593721032">
        <ele>105.18867492675781</ele>
        <time>2021-03-12T18:48:12.545Z</time>
      </trkpt>
      <trkpt lat="41.7409019730985" lon="-8.56652799993753">
        <ele>105.97640991210938</ele>
        <time>2021-03-12T18:48:24.473Z</time>
      </trkpt>
      <trkpt lat="41.741600940004" lon="-8.56572392396629">
        <ele>112.61517333984375</ele>
        <time>2021-03-12T18:48:36.425Z</time>
      </trkpt>
      <trkpt lat="41.7420589271933" lon="-8.5667509585619">
        <ele>109.33329772949219</ele>
        <time>2021-03-12T18:48:48.401Z</time>
      </trkpt>
      <trkpt lat="41.7423599213362" lon="-8.56706595048308">
        <ele>109.03467559814453</ele>
        <time>2021-03-12T18:49:00.388Z</time>
      </trkpt>
      <trkpt lat="41.7426499351859" lon="-8.56713895685971">
        <ele>107.86043548583984</ele>
        <time>2021-03-12T18:49:12.382Z</time>
      </trkpt>
      <trkpt lat="41.7431009653956" lon="-8.56685196049511">
        <ele>109.18850708007812</ele>
        <time>2021-03-12T18:49:24.390Z</time>
      </trkpt>
      <trkpt lat="41.7431859578937" lon="-8.56694793328643">
        <ele>109.16796112060547</ele>
        <time>2021-03-12T18:49:36.401Z</time>
      </trkpt>
      <trkpt lat="41.7432719562203" lon="-8.5674209240824">
        <ele>111.7732925415039</ele>
        <time>2021-03-12T18:49:48.421Z</time>
      </trkpt>
      <trkpt lat="41.7426419723779" lon="-8.56956794857979">
        <ele>101.58824920654297</ele>
        <time>2021-03-12T18:50:00.487Z</time>
      </trkpt>
      <trkpt lat="41.7466129828244" lon="-8.57261694967747">
        <ele>103.1045913696289</ele>
        <time>2021-03-12T18:50:12.676Z</time>
      </trkpt>
      <trkpt lat="41.7471349239349" lon="-8.57365496456623">
        <ele>104.44498443603516</ele>
        <time>2021-03-12T18:50:24.889Z</time>
      </trkpt>
      <trkpt lat="41.7475139535964" lon="-8.57400599867105">
        <ele>108.85552215576172</ele>
        <time>2021-03-12T18:50:37.115Z</time>
      </trkpt>
      <trkpt lat="41.7484429199249" lon="-8.5742799192667">
        <ele>111.78365325927734</ele>
        <time>2021-03-12T18:50:49.366Z</time>
      </trkpt>
      <trkpt lat="41.7490639351308" lon="-8.57415997423232">
        <ele>113.11625671386719</ele>
        <time>2021-03-12T18:51:01.634Z</time>
      </trkpt>
      <trkpt lat="41.7510329280049" lon="-8.57314492575824">
        <ele>121.44862365722656</ele>
        <time>2021-03-12T18:51:13.958Z</time>
      </trkpt>
      <trkpt lat="41.7517699487507" lon="-8.57346293516457">
        <ele>120.1324234008789</ele>
        <time>2021-03-12T18:51:26.303Z</time>
      </trkpt>
      <trkpt lat="41.7527889367193" lon="-8.5731939598918">
        <ele>121.30427551269531</ele>
        <time>2021-03-12T18:51:38.675Z</time>
      </trkpt>
      <trkpt lat="41.7536869738251" lon="-8.5727309435606">
        <ele>123.19430541992188</ele>
        <time>2021-03-12T18:51:51.073Z</time>
      </trkpt>
      <trkpt lat="41.7544659879059" lon="-8.57270294800401">
        <ele>122.3872299194336</ele>
        <time>2021-03-12T18:52:03.492Z</time>
      </trkpt>
      <trkpt lat="41.7549649626017" lon="-8.57286094687879">
        <ele>121.21334838867188</ele>
        <time>2021-03-12T18:52:15.925Z</time>
      </trkpt>
      <trkpt lat="41.7554499395192" lon="-8.57238192111254">
        <ele>126.28852081298828</ele>
        <time>2021-03-12T18:52:28.374Z</time>
      </trkpt>
      <trkpt lat="41.7560729663819" lon="-8.57391295954585">
        <ele>116.65453338623047</ele>
        <time>2021-03-12T18:52:40.857Z</time>
      </trkpt>
      <trkpt lat="41.7562989424914" lon="-8.57409895397723">
        <ele>113.8172836303711</ele>
        <time>2021-03-12T18:52:53.347Z</time>
      </trkpt>
      <trkpt lat="41.7600579746068" lon="-8.57405595481396">
        <ele>91.91253662109375</ele>
        <time>2021-03-12T18:53:05.938Z</time>
      </trkpt>
      <trkpt lat="41.7606329731643" lon="-8.57375395484269">
        <ele>91.6860580444336</ele>
        <time>2021-03-12T18:53:18.545Z</time>
      </trkpt>
      <trkpt lat="41.7610769625753" lon="-8.57380793429911">
        <ele>88.54721069335938</ele>
        <time>2021-03-12T18:53:31.164Z</time>
      </trkpt>
      <trkpt lat="41.7619729880244" lon="-8.57353694736958">
        <ele>77.5777816772461</ele>
        <time>2021-03-12T18:53:43.808Z</time>
      </trkpt>
      <trkpt lat="41.7646699491888" lon="-8.57467395253479">
        <ele>49.49065017700195</ele>
        <time>2021-03-12T18:53:56.527Z</time>
      </trkpt>
      <trkpt lat="41.7650999408215" lon="-8.575210981071">
        <ele>55.4674072265625</ele>
        <time>2021-03-12T18:54:09.262Z</time>
      </trkpt>
      <trkpt lat="41.7650529183447" lon="-8.57747795060277">
        <ele>45.21813201904297</ele>
        <time>2021-03-12T18:54:22.042Z</time>
      </trkpt>
      <trkpt lat="41.765605956316" lon="-8.58001096174121">
        <ele>38.06155776977539</ele>
        <time>2021-03-12T18:54:34.875Z</time>
      </trkpt>
      <trkpt lat="41.767817940563" lon="-8.58493792824447">
        <ele>7.634596347808838</ele>
        <time>2021-03-12T18:54:47.822Z</time>
      </trkpt>
      <trkpt lat="41.7689479887486" lon="-8.58397593721747">
        <ele>13.108922958374023</ele>
        <time>2021-03-12T18:55:00.805Z</time>
      </trkpt>
      <trkpt lat="41.7687449790537" lon="-8.58437097631395">
        <ele>10.46662712097168</ele>
        <time>2021-03-12T18:55:13.797Z</time>
      </trkpt>
      <trkpt lat="41.7698739375919" lon="-8.58963891863823">
        <ele>10.380845069885254</ele>
        <time>2021-03-12T18:55:26.899Z</time>
      </trkpt>
      <trkpt lat="41.7715489771217" lon="-8.5891549475491">
        <ele>6.995822906494141</ele>
        <time>2021-03-12T18:55:40.047Z</time>
      </trkpt>
      <trkpt lat="41.772220954299" lon="-8.58826193958521">
        <ele>5.886847972869873</ele>
        <time>2021-03-12T18:55:53.220Z</time>
      </trkpt>
      <trkpt lat="41.7730819433928" lon="-8.58844592235982">
        <ele>4.313139915466309</ele>
        <time>2021-03-12T18:56:06.416Z</time>
      </trkpt>
      <trkpt lat="41.7740859277546" lon="-8.58938192948699">
        <ele>6.958972930908203</ele>
        <time>2021-03-12T18:56:19.645Z</time>
      </trkpt>
      <trkpt lat="41.7753249406815" lon="-8.59018893912435">
        <ele>7.078433990478516</ele>
        <time>2021-03-12T18:56:32.910Z</time>
      </trkpt>
      <trkpt lat="41.7757249251008" lon="-8.59021995216608">
        <ele>7.8780670166015625</ele>
        <time>2021-03-12T18:56:46.186Z</time>
      </trkpt>
      <trkpt lat="41.7774109449238" lon="-8.58972692862153">
        <ele>5.545042514801025</ele>
        <time>2021-03-12T18:56:59.508Z</time>
      </trkpt>
      <trkpt lat="41.7790249641985" lon="-8.59035992994905">
        <ele>7.376597881317139</ele>
        <time>2021-03-12T18:57:12.875Z</time>
      </trkpt>
      <trkpt lat="41.7797659244388" lon="-8.59023193828762">
        <ele>7.121735572814941</ele>
        <time>2021-03-12T18:57:26.262Z</time>
      </trkpt>
      <trkpt lat="41.7818219214678" lon="-8.59145192429423">
        <ele>12.65931224822998</ele>
        <time>2021-03-12T18:57:39.709Z</time>
      </trkpt>
      <trkpt lat="41.782292984426" lon="-8.59198492951691">
        <ele>11.718005180358887</ele>
        <time>2021-03-12T18:57:53.172Z</time>
      </trkpt>
      <trkpt lat="41.7836649343371" lon="-8.59192298725247">
        <ele>12.369308471679688</ele>
        <time>2021-03-12T18:58:06.672Z</time>
      </trkpt>
      <trkpt lat="41.7846909631044" lon="-8.59144597314298">
        <ele>10.745534896850586</ele>
        <time>2021-03-12T18:58:20.201Z</time>
      </trkpt>
      <trkpt lat="41.7867019493133" lon="-8.59090399928391">
        <ele>11.051919937133789</ele>
        <time>2021-03-12T18:58:33.784Z</time>
      </trkpt>
      <trkpt lat="41.7878159880638" lon="-8.59129199758172">
        <ele>13.18679141998291</ele>
        <time>2021-03-12T18:58:47.398Z</time>
      </trkpt>
      <trkpt lat="41.7886239197105" lon="-8.59127297066152">
        <ele>13.490694046020508</ele>
        <time>2021-03-12T18:59:01.034Z</time>
      </trkpt>
      <trkpt lat="41.7899989709258" lon="-8.59211099334061">
        <ele>19.769428253173828</ele>
        <time>2021-03-12T18:59:14.710Z</time>
      </trkpt>
      <trkpt lat="41.7904319800436" lon="-8.59208693727851">
        <ele>21.645488739013672</ele>
        <time>2021-03-12T18:59:28.398Z</time>
      </trkpt>
      <trkpt lat="41.790905976668" lon="-8.59148494899273">
        <ele>19.049856185913086</ele>
        <time>2021-03-12T18:59:42.103Z</time>
      </trkpt>
      <trkpt lat="41.7918659560382" lon="-8.59248197637498">
        <ele>26.7037353515625</ele>
        <time>2021-03-12T18:59:55.840Z</time>
      </trkpt>
      <trkpt lat="41.7929639853537" lon="-8.59265799634159">
        <ele>25.368738174438477</ele>
        <time>2021-03-12T19:00:09.607Z</time>
      </trkpt>
      <trkpt lat="41.793503947556" lon="-8.59297592192888">
        <ele>26.125946044921875</ele>
        <time>2021-03-12T19:00:23.390Z</time>
      </trkpt>
      <trkpt lat="41.7943359352648" lon="-8.59264894388616">
        <ele>22.843164443969727</ele>
        <time>2021-03-12T19:00:37.196Z</time>
      </trkpt>
      <trkpt lat="41.7944899946451" lon="-8.59219699166715">
        <ele>20.726806640625</ele>
        <time>2021-03-12T19:00:51.012Z</time>
      </trkpt>
      <trkpt lat="41.7949009593576" lon="-8.59191594645381">
        <ele>19.456680297851562</ele>
        <time>2021-03-12T19:01:04.840Z</time>
      </trkpt>
      <trkpt lat="41.7952239979059" lon="-8.59200999140739">
        <ele>22.233510971069336</ele>
        <time>2021-03-12T19:01:18.677Z</time>
      </trkpt>
      <trkpt lat="41.7960479389876" lon="-8.59111597761512">
        <ele>20.525293350219727</ele>
        <time>2021-03-12T19:01:32.542Z</time>
      </trkpt>
      <trkpt lat="41.796500980854" lon="-8.59036596491933">
        <ele>21.661510467529297</ele>
        <time>2021-03-12T19:01:46.426Z</time>
      </trkpt>
      <trkpt lat="41.7969189863652" lon="-8.59045196324587">
        <ele>25.66318130493164</ele>
        <time>2021-03-12T19:02:00.322Z</time>
      </trkpt>
      <trkpt lat="41.7977699171752" lon="-8.59151596203446">
        <ele>24.61418914794922</ele>
        <time>2021-03-12T19:02:14.249Z</time>
      </trkpt>
      <trkpt lat="41.7983049340546" lon="-8.59191996976733">
        <ele>22.716421127319336</ele>
        <time>2021-03-12T19:02:28.192Z</time>
      </trkpt>
      <trkpt lat="41.7989149689674" lon="-8.59183799475431">
        <ele>24.412508010864258</ele>
        <time>2021-03-12T19:02:42.151Z</time>
      </trkpt>
      <trkpt lat="41.7992789950222" lon="-8.5912499204278">
        <ele>31.609973907470703</ele>
        <time>2021-03-12T19:02:56.126Z</time>
      </trkpt>
      <trkpt lat="41.7998389899731" lon="-8.59109996818006">
        <ele>39.509315490722656</ele>
        <time>2021-03-12T19:03:10.116Z</time>
      </trkpt>
      <trkpt lat="41.8003749288619" lon="-8.59140599146485">
        <ele>43.26841354370117</ele>
        <time>2021-03-12T19:03:24.121Z</time>
      </trkpt>
      <trkpt lat="41.8013089243323" lon="-8.59303593635559">
        <ele>33.888999938964844</ele>
        <time>2021-03-12T19:03:38.167Z</time>
      </trkpt>
      <trkpt lat="41.80179993622" lon="-8.59350096434355">
        <ele>30.016517639160156</ele>
        <time>2021-03-12T19:03:52.229Z</time>
      </trkpt>
      <trkpt lat="41.8023569975048" lon="-8.5932909976691">
        <ele>33.785030364990234</ele>
        <time>2021-03-12T19:04:06.307Z</time>
      </trkpt>
      <trkpt lat="41.8025749269873" lon="-8.59342996962368">
        <ele>34.139305114746094</ele>
        <time>2021-03-12T19:04:20.391Z</time>
      </trkpt>
      <trkpt lat="41.8031679466367" lon="-8.59252698719501">
        <ele>43.87566375732422</ele>
        <time>2021-03-12T19:04:34.499Z</time>
      </trkpt>
      <trkpt lat="41.8033289629966" lon="-8.59251097775996">
        <ele>44.09463882446289</ele>
        <time>2021-03-12T19:04:48.611Z</time>
      </trkpt>
      <trkpt lat="41.8036159593612" lon="-8.59300098381937">
        <ele>40.89420700073242</ele>
        <time>2021-03-12T19:05:02.736Z</time>
      </trkpt>
      <trkpt lat="41.8041719309986" lon="-8.59343592077494">
        <ele>35.430179595947266</ele>
        <time>2021-03-12T19:05:16.878Z</time>
      </trkpt>
      <trkpt lat="41.8045329395682" lon="-8.59465699642897">
        <ele>32.468177795410156</ele>
        <time>2021-03-12T19:05:31.046Z</time>
      </trkpt>
      <trkpt lat="41.8047899287194" lon="-8.59496394172311">
        <ele>32.921688079833984</ele>
        <time>2021-03-12T19:05:45.223Z</time>
      </trkpt>
      <trkpt lat="41.8054419569671" lon="-8.59523694030941">
        <ele>35.41242218017578</ele>
        <time>2021-03-12T19:05:59.419Z</time>
      </trkpt>
      <trkpt lat="41.8063569255173" lon="-8.59668994322419">
        <ele>34.063533782958984</ele>
        <time>2021-03-12T19:06:13.652Z</time>
      </trkpt>
      <trkpt lat="41.8073119595647" lon="-8.59748094342649">
        <ele>34.450653076171875</ele>
        <time>2021-03-12T19:06:27.915Z</time>
      </trkpt>
      <trkpt lat="41.8077049870044" lon="-8.597595943138">
        <ele>36.384666442871094</ele>
        <time>2021-03-12T19:06:42.189Z</time>
      </trkpt>
      <trkpt lat="41.8088109791279" lon="-8.59845492057502">
        <ele>38.34388732910156</ele>
        <time>2021-03-12T19:06:56.497Z</time>
      </trkpt>
      <trkpt lat="41.8092919327319" lon="-8.59865399077535">
        <ele>40.85770797729492</ele>
        <time>2021-03-12T19:07:10.819Z</time>
      </trkpt>
      <trkpt lat="41.8099549412727" lon="-8.59834495000541">
        <ele>47.48594665527344</ele>
        <time>2021-03-12T19:07:25.159Z</time>
      </trkpt>
      <trkpt lat="41.8103359825909" lon="-8.59869397245347">
        <ele>44.20941162109375</ele>
        <time>2021-03-12T19:07:39.512Z</time>
      </trkpt>
      <trkpt lat="41.8108359631151" lon="-8.59875096939504">
        <ele>42.74457931518555</ele>
        <time>2021-03-12T19:07:53.878Z</time>
      </trkpt>
      <trkpt lat="41.8113239575177" lon="-8.59904794022441">
        <ele>39.4439582824707</ele>
        <time>2021-03-12T19:08:08.258Z</time>
      </trkpt>
      <trkpt lat="41.8117109499872" lon="-8.59882699325681">
        <ele>40.570194244384766</ele>
        <time>2021-03-12T19:08:22.650Z</time>
      </trkpt>
      <trkpt lat="41.8120809271932" lon="-8.59883897937834">
        <ele>40.2160758972168</ele>
        <time>2021-03-12T19:08:37.051Z</time>
      </trkpt>
      <trkpt lat="41.8122679274529" lon="-8.59901592135429">
        <ele>42.21120834350586</ele>
        <time>2021-03-12T19:08:51.459Z</time>
      </trkpt>
      <trkpt lat="41.8123089987785" lon="-8.59949192963541">
        <ele>43.67259979248047</ele>
        <time>2021-03-12T19:09:05.876Z</time>
      </trkpt>
      <trkpt lat="41.8130599334836" lon="-8.59986199066043">
        <ele>51.621089935302734</ele>
        <time>2021-03-12T19:09:20.314Z</time>
      </trkpt>
      <trkpt lat="41.8133819662035" lon="-8.59903092496097">
        <ele>50.911441802978516</ele>
        <time>2021-03-12T19:09:34.771Z</time>
      </trkpt>
      <trkpt lat="41.8139229342341" lon="-8.59914299100637">
        <ele>55.590206146240234</ele>
        <time>2021-03-12T19:09:49.243Z</time>
      </trkpt>
      <trkpt lat="41.815309971571" lon="-8.59888692386448">
        <ele>60.693416595458984</ele>
        <time>2021-03-12T19:10:03.752Z</time>
      </trkpt>
      <trkpt lat="41.8160239420831" lon="-8.59906294383109">
        <ele>66.66444396972656</ele>
        <time>2021-03-12T19:10:18.280Z</time>
      </trkpt>
      <trkpt lat="41.8160849623382" lon="-8.59827797859907">
        <ele>62.234676361083984</ele>
        <time>2021-03-12T19:10:32.824Z</time>
      </trkpt>
      <trkpt lat="41.816250924021" lon="-8.59811696223915">
        <ele>61.51532745361328</ele>
        <time>2021-03-12T19:10:47.374Z</time>
      </trkpt>
      <trkpt lat="41.8166539259255" lon="-8.59812098555267">
        <ele>65.56649017333984</ele>
        <time>2021-03-12T19:11:01.934Z</time>
      </trkpt>
      <trkpt lat="41.8168329633772" lon="-8.59727994538844">
        <ele>53.35954666137695</ele>
        <time>2021-03-12T19:11:16.512Z</time>
      </trkpt>
      <trkpt lat="41.8176059424877" lon="-8.59690493904054">
        <ele>50.27033996582031</ele>
        <time>2021-03-12T19:11:31.112Z</time>
      </trkpt>
      <trkpt lat="41.8179229460657" lon="-8.59693796373904">
        <ele>51.24502944946289</ele>
        <time>2021-03-12T19:11:45.720Z</time>
      </trkpt>
      <trkpt lat="41.81839694269" lon="-8.59727592207491">
        <ele>55.6719970703125</ele>
        <time>2021-03-12T19:12:00.343Z</time>
      </trkpt>
      <trkpt lat="41.8196579162031" lon="-8.59895096160471">
        <ele>61.88970184326172</ele>
        <time>2021-03-12T19:12:15.013Z</time>
      </trkpt>
      <trkpt lat="41.8203059211373" lon="-8.59922697767615">
        <ele>62.48009490966797</ele>
        <time>2021-03-12T19:12:29.701Z</time>
      </trkpt>
      <trkpt lat="41.8206109385937" lon="-8.59914299100637">
        <ele>62.87260437011719</ele>
        <time>2021-03-12T19:12:44.397Z</time>
      </trkpt>
      <trkpt lat="41.8220389634371" lon="-8.59832399524748">
        <ele>73.1444320678711</ele>
        <time>2021-03-12T19:12:59.135Z</time>
      </trkpt>
      <trkpt lat="41.8222609162331" lon="-8.59807094559073">
        <ele>73.04275512695312</ele>
        <time>2021-03-12T19:13:13.881Z</time>
      </trkpt>
      <trkpt lat="41.8223229423165" lon="-8.5976289678365">
        <ele>68.0130386352539</ele>
        <time>2021-03-12T19:13:28.635Z</time>
      </trkpt>
      <trkpt lat="41.8227049894631" lon="-8.59719294123352">
        <ele>67.0315170288086</ele>
        <time>2021-03-12T19:13:43.403Z</time>
      </trkpt>
      <trkpt lat="41.8232959974557" lon="-8.59698196873069">
        <ele>69.04605102539062</ele>
        <time>2021-03-12T19:13:58.187Z</time>
      </trkpt>
      <trkpt lat="41.8236669804901" lon="-8.5965049546212">
        <ele>67.10333251953125</ele>
        <time>2021-03-12T19:14:12.985Z</time>
      </trkpt>
      <trkpt lat="41.8238349538296" lon="-8.59555595554411">
        <ele>63.53139114379883</ele>
        <time>2021-03-12T19:14:27.802Z</time>
      </trkpt>
      <trkpt lat="41.825204975903" lon="-8.59692798927426">
        <ele>68.99504852294922</ele>
        <time>2021-03-12T19:14:42.665Z</time>
      </trkpt>
      <trkpt lat="41.8268349207938" lon="-8.59585393220186">
        <ele>70.87625885009766</ele>
        <time>2021-03-12T19:14:57.576Z</time>
      </trkpt>
      <trkpt lat="41.8281579203904" lon="-8.59591495245695">
        <ele>78.29077911376953</ele>
        <time>2021-03-12T19:15:12.523Z</time>
      </trkpt>
      <trkpt lat="41.8290189933032" lon="-8.5957879666239">
        <ele>79.59400177001953</ele>
        <time>2021-03-12T19:15:27.493Z</time>
      </trkpt>
      <trkpt lat="41.8295189738274" lon="-8.59580397605896">
        <ele>80.15921020507812</ele>
        <time>2021-03-12T19:15:42.476Z</time>
      </trkpt>
      <trkpt lat="41.8300009332597" lon="-8.59615995548666">
        <ele>84.86921691894531</ele>
        <time>2021-03-12T19:15:57.474Z</time>
      </trkpt>
      <trkpt lat="41.830857982859" lon="-8.59604998491704">
        <ele>84.90992736816406</ele>
        <time>2021-03-12T19:16:12.495Z</time>
      </trkpt>
      <trkpt lat="41.8315029703081" lon="-8.59618996270001">
        <ele>88.60472869873047</ele>
        <time>2021-03-12T19:16:27.533Z</time>
      </trkpt>
      <trkpt lat="41.83225591667" lon="-8.59691298566759">
        <ele>106.08110046386719</ele>
        <time>2021-03-12T19:16:42.596Z</time>
      </trkpt>
      <trkpt lat="41.8326739221811" lon="-8.59613799490035">
        <ele>93.23333740234375</ele>
        <time>2021-03-12T19:16:57.678Z</time>
      </trkpt>
      <trkpt lat="41.8344969861209" lon="-8.59682799316943">
        <ele>117.69637298583984</ele>
        <time>2021-03-12T19:17:12.810Z</time>
      </trkpt>
      <trkpt lat="41.8354699574411" lon="-8.5967689845711">
        <ele>120.02468872070312</ele>
        <time>2021-03-12T19:17:27.968Z</time>
      </trkpt>
      <trkpt lat="41.8364919628948" lon="-8.59713292680681">
        <ele>120.93616485595703</ele>
        <time>2021-03-12T19:17:43.155Z</time>
      </trkpt>
      <trkpt lat="41.8368199467659" lon="-8.59755797311664">
        <ele>126.9466323852539</ele>
        <time>2021-03-12T19:17:58.354Z</time>
      </trkpt>
      <trkpt lat="41.8375909980386" lon="-8.59935195185244">
        <ele>145.86416625976562</ele>
        <time>2021-03-12T19:18:13.594Z</time>
      </trkpt>
      <trkpt lat="41.8384689185768" lon="-8.60013599507511">
        <ele>146.55337524414062</ele>
        <time>2021-03-12T19:18:28.862Z</time>
      </trkpt>
      <trkpt lat="41.8388439249247" lon="-8.60081199556589">
        <ele>153.569580078125</ele>
        <time>2021-03-12T19:18:44.147Z</time>
      </trkpt>
      <trkpt lat="41.8399169761688" lon="-8.60123997554183">
        <ele>159.77198791503906</ele>
        <time>2021-03-12T19:18:59.462Z</time>
      </trkpt>
      <trkpt lat="41.8402599636465" lon="-8.60125095583498">
        <ele>160.92437744140625</ele>
        <time>2021-03-12T19:19:14.786Z</time>
      </trkpt>
      <trkpt lat="41.8410019297153" lon="-8.6008289270103">
        <ele>152.75828552246094</ele>
        <time>2021-03-12T19:19:30.131Z</time>
      </trkpt>
      <trkpt lat="41.8414559774101" lon="-8.60095197334886">
        <ele>152.70216369628906</ele>
        <time>2021-03-12T19:19:45.489Z</time>
      </trkpt>
      <trkpt lat="41.8418509326875" lon="-8.60086597502232">
        <ele>152.59735107421875</ele>
        <time>2021-03-12T19:20:00.857Z</time>
      </trkpt>
      <trkpt lat="41.8425819184631" lon="-8.60024194233119">
        <ele>146.1619415283203</ele>
        <time>2021-03-12T19:20:16.249Z</time>
      </trkpt>
      <trkpt lat="41.8428679928184" lon="-8.60017991624773">
        <ele>144.2782440185547</ele>
        <time>2021-03-12T19:20:31.648Z</time>
      </trkpt>
      <trkpt lat="41.843215925619" lon="-8.60052399337292">
        <ele>146.34291076660156</ele>
        <time>2021-03-12T19:20:47.059Z</time>
      </trkpt>
      <trkpt lat="41.843408960849" lon="-8.60052893869579">
        <ele>148.53955078125</ele>
        <time>2021-03-12T19:21:02.475Z</time>
      </trkpt>
      <trkpt lat="41.843614988029" lon="-8.60042693093419">
        <ele>150.0323486328125</ele>
        <time>2021-03-12T19:21:17.897Z</time>
      </trkpt>
      <trkpt lat="41.8437109608203" lon="-8.59989895485342">
        <ele>146.7974090576172</ele>
        <time>2021-03-12T19:21:33.330Z</time>
      </trkpt>
      <trkpt lat="41.8439569696784" lon="-8.60022593289614">
        <ele>152.20619201660156</ele>
        <time>2021-03-12T19:21:48.772Z</time>
      </trkpt>
      <trkpt lat="41.8443989474326" lon="-8.60018997453153">
        <ele>155.5000457763672</ele>
        <time>2021-03-12T19:22:04.226Z</time>
      </trkpt>
      <trkpt lat="41.8448479659855" lon="-8.60083797946572">
        <ele>169.22854614257812</ele>
        <time>2021-03-12T19:22:19.697Z</time>
      </trkpt>
      <trkpt lat="41.8454449251294" lon="-8.60098893754184">
        <ele>178.08612060546875</ele>
        <time>2021-03-12T19:22:35.185Z</time>
      </trkpt>
      <trkpt lat="41.84689487153196" lon="-8.601688742637636">
        <ele>190.50531005859375</ele>
        <time>2021-03-12T19:22:50.714Z</time>
      </trkpt>
      <trkpt lat="41.84760218034285" lon="-8.603732585906984">
        <ele>223.81875610351562</ele>
        <time>2021-03-12T19:23:06.287Z</time>
      </trkpt>
      <trkpt lat="41.84796182589173" lon="-8.60435485839844">
        <ele>234.15582275390625</ele>
        <time>2021-03-12T19:23:21.876Z</time>
      </trkpt>
      <trkpt lat="41.8484583332299" lon="-8.603676259517671">
        <ele>224.43052673339844</ele>
        <time>2021-03-12T19:23:37.484Z</time>
      </trkpt>
      <trkpt lat="41.848672119911015" lon="-8.60371381044388">
        <ele>225.61932373046875</ele>
        <time>2021-03-12T19:23:53.098Z</time>
      </trkpt>
      <trkpt lat="41.84890888283157" lon="-8.603898882865908">
        <ele>229.79727172851562</ele>
        <time>2021-03-12T19:24:08.719Z</time>
      </trkpt>
      <trkpt lat="41.848892898864534" lon="-8.604006171226503">
        <ele>231.79933166503906</ele>
        <time>2021-03-12T19:24:24.342Z</time>
      </trkpt>
      <trkpt lat="41.84870508695246" lon="-8.60409736633301">
        <ele>232.8739776611328</ele>
        <time>2021-03-12T19:24:39.971Z</time>
      </trkpt>
      <trkpt lat="41.84854125057888" lon="-8.604258298873903">
        <ele>235.3736572265625</ele>
        <time>2021-03-12T19:24:55.605Z</time>
      </trkpt>
      <trkpt lat="41.84851327847318" lon="-8.604408502578737">
        <ele>237.87677001953125</ele>
        <time>2021-03-12T19:25:11.242Z</time>
      </trkpt>
      <trkpt lat="41.84857721469682" lon="-8.604499697685243">
        <ele>239.41989135742188</ele>
        <time>2021-03-12T19:25:26.882Z</time>
      </trkpt>
      <trkpt lat="41.84876103098392" lon="-8.604510426521303">
        <ele>240.23599243164062</ele>
        <time>2021-03-12T19:25:42.527Z</time>
      </trkpt>
      <trkpt lat="41.84896083069692" lon="-8.604633808135988">
        <ele>244.2936248779297</ele>
        <time>2021-03-12T19:25:58.177Z</time>
      </trkpt>
      <trkpt lat="41.849072718263635" lon="-8.60483229160309">
        <ele>249.88609313964844</ele>
        <time>2021-03-12T19:26:13.832Z</time>
      </trkpt>
      <trkpt lat="41.84924054924677" lon="-8.605164885520937">
        <ele>257.239501953125</ele>
        <time>2021-03-12T19:26:29.495Z</time>
      </trkpt>
      <trkpt lat="41.849404383829395" lon="-8.605368733406069">
        <ele>261.8028259277344</ele>
        <time>2021-03-12T19:26:45.164Z</time>
      </trkpt>
      <trkpt lat="41.84950827871316" lon="-8.605502843856813">
        <ele>264.7353820800781</ele>
        <time>2021-03-12T19:27:00.837Z</time>
      </trkpt>
      <trkpt lat="41.84967610855359" lon="-8.605417013168337">
        <ele>262.7877197265625</ele>
        <time>2021-03-12T19:27:16.515Z</time>
      </trkpt>
      <trkpt lat="41.84983994202072" lon="-8.605282902717592">
        <ele>259.89056396484375</ele>
        <time>2021-03-12T19:27:32.198Z</time>
      </trkpt>
      <trkpt lat="41.85006770980225" lon="-8.605309724807741">
        <ele>262.228515625</ele>
        <time>2021-03-12T19:27:47.887Z</time>
      </trkpt>
      <trkpt lat="41.85099076040331" lon="-8.605642318725588">
        <ele>279.33123779296875</ele>
        <time>2021-03-12T19:28:03.602Z</time>
      </trkpt>
      <trkpt lat="41.85118655730333" lon="-8.605636954307558">
        <ele>279.3913269042969</ele>
        <time>2021-03-12T19:28:19.322Z</time>
      </trkpt>
      <trkpt lat="41.85133040770511" lon="-8.605722784996034">
        <ele>281.3450622558594</ele>
        <time>2021-03-12T19:28:35.046Z</time>
      </trkpt>
      <trkpt lat="41.8516860364766" lon="-8.60610365867615">
        <ele>292.7232360839844</ele>
        <time>2021-03-12T19:28:50.782Z</time>
      </trkpt>
      <trkpt lat="41.85191779348831" lon="-8.606210947036745">
        <ele>297.6972351074219</ele>
        <time>2021-03-12T19:29:06.525Z</time>
      </trkpt>
      <trkpt lat="41.852205490679495" lon="-8.606189489364626">
        <ele>298.30560302734375</ele>
        <time>2021-03-12T19:29:22.275Z</time>
      </trkpt>
      <trkpt lat="41.85252515270762" lon="-8.606243133544924">
        <ele>302.18475341796875</ele>
        <time>2021-03-12T19:29:38.034Z</time>
      </trkpt>
      <trkpt lat="41.85287677909342" lon="-8.60610365867615">
        <ele>301.718017578125</ele>
        <time>2021-03-12T19:29:53.803Z</time>
      </trkpt>
      <trkpt lat="41.85313250615987" lon="-8.606039285659792">
        <ele>302.6236572265625</ele>
        <time>2021-03-12T19:30:09.579Z</time>
      </trkpt>
      <trkpt lat="41.853540069058816" lon="-8.606114387512209">
        <ele>302.17205810546875</ele>
        <time>2021-03-12T19:30:25.366Z</time>
      </trkpt>
      <trkpt lat="41.853683914167824" lon="-8.606532812118532">
        <ele>311.1583557128906</ele>
        <time>2021-03-12T19:30:41.162Z</time>
      </trkpt>
      <trkpt lat="41.853803784844885" lon="-8.607058525085451">
        <ele>321.416748046875</ele>
        <time>2021-03-12T19:30:56.969Z</time>
      </trkpt>
      <trkpt lat="41.854139421545476" lon="-8.607734441757204">
        <ele>331.4469299316406</ele>
        <time>2021-03-12T19:31:12.792Z</time>
      </trkpt>
      <trkpt lat="41.85433920445961" lon="-8.608152866363527">
        <ele>340.6778259277344</ele>
        <time>2021-03-12T19:31:28.625Z</time>
      </trkpt>
      <trkpt lat="41.85445907390857" lon="-8.608227968215944">
        <ele>342.04534912109375</ele>
        <time>2021-03-12T19:31:44.461Z</time>
      </trkpt>
      <trkpt lat="41.85466684708791" lon="-8.607959747314455">
        <ele>338.57794189453125</ele>
        <time>2021-03-12T19:32:00.305Z</time>
      </trkpt>
      <trkpt lat="41.85487461959228" lon="-8.60783100128174">
        <ele>336.7839660644531</ele>
        <time>2021-03-12T19:32:16.155Z</time>
      </trkpt>
      <trkpt lat="41.85503843974485" lon="-8.607991933822634">
        <ele>337.9937744140625</ele>
        <time>2021-03-12T19:32:32.011Z</time>
      </trkpt>
      <trkpt lat="41.85505841778353" lon="-8.608136773109438">
        <ele>339.63568115234375</ele>
        <time>2021-03-12T19:32:47.870Z</time>
      </trkpt>
      <trkpt lat="41.854954531914245" lon="-8.608265519142153">
        <ele>341.6789245605469</ele>
        <time>2021-03-12T19:33:03.732Z</time>
      </trkpt>
      <trkpt lat="41.85491058014953" lon="-8.608394265174867">
        <ele>343.4345703125</ele>
        <time>2021-03-12T19:33:19.597Z</time>
      </trkpt>
      <trkpt lat="41.854878615210744" lon="-8.608458638191225">
        <ele>344.3095397949219</ele>
        <time>2021-03-12T19:33:35.464Z</time>
      </trkpt>
      <trkpt lat="41.854922566997445" lon="-8.608555197715761">
        <ele>345.622314453125</ele>
        <time>2021-03-12T19:33:51.333Z</time>
      </trkpt>
      <trkpt lat="41.855054422176295" lon="-8.608710765838625">
        <ele>348.20697021484375</ele>
        <time>2021-03-12T19:34:07.207Z</time>
      </trkpt>
      <trkpt lat="41.85494654068654" lon="-8.609134554862978">
        <ele>354.6875305175781</ele>
        <time>2021-03-12T19:34:23.090Z</time>
      </trkpt>
      <trkpt lat="41.85452300418949" lon="-8.610958456993105">
        <ele>403.49945068359375</ele>
        <time>2021-03-12T19:34:39.011Z</time>
      </trkpt>
      <trkpt lat="41.85451501290787" lon="-8.611049652099611">
        <ele>405.6073913574219</ele>
        <time>2021-03-12T19:34:54.934Z</time>
      </trkpt>
      <trkpt lat="41.856005369658746" lon="-8.61107647418976">
        <ele>404.8079528808594</ele>
        <time>2021-03-12T19:35:10.896Z</time>
      </trkpt>
      <trkpt lat="41.85682445174408" lon="-8.610979914665224">
        <ele>404.8616638183594</ele>
        <time>2021-03-12T19:35:26.880Z</time>
      </trkpt>
      <trkpt lat="41.85779535009225" lon="-8.610770702362062">
        <ele>407.6684265136719</ele>
        <time>2021-03-12T19:35:42.890Z</time>
      </trkpt>
      <trkpt lat="41.85857046000318" lon="-8.610352277755739">
        <ele>412.7393493652344</ele>
        <time>2021-03-12T19:35:58.923Z</time>
      </trkpt>
      <trkpt lat="41.85877821982604" lon="-8.61006259918213">
        <ele>415.4263916015625</ele>
        <time>2021-03-12T19:36:14.964Z</time>
      </trkpt>
      <trkpt lat="41.85906189080191" lon="-8.608732223510744">
        <ele>415.5472412109375</ele>
        <time>2021-03-12T19:36:31.032Z</time>
      </trkpt>
      <trkpt lat="41.859273644372124" lon="-8.608383536338808">
        <ele>411.5218811035156</ele>
        <time>2021-03-12T19:36:47.109Z</time>
      </trkpt>
      <trkpt lat="41.8597171259924" lon="-8.608270883560182">
        <ele>409.7562255859375</ele>
        <time>2021-03-12T19:37:03.198Z</time>
      </trkpt>
      <trkpt lat="41.86014062809223" lon="-8.608260154724123">
        <ele>408.8597412109375</ele>
        <time>2021-03-12T19:37:19.298Z</time>
      </trkpt>
      <trkpt lat="41.86052417474347" lon="-8.60832452774048">
        <ele>405.642333984375</ele>
        <time>2021-03-12T19:37:35.409Z</time>
      </trkpt>
      <trkpt lat="41.860835804703676" lon="-8.608480095863344">
        <ele>404.9019470214844</ele>
        <time>2021-03-12T19:37:51.529Z</time>
      </trkpt>
      <trkpt lat="41.86111547132365" lon="-8.608694672584535">
        <ele>405.965576171875</ele>
        <time>2021-03-12T19:38:07.657Z</time>
      </trkpt>
      <trkpt lat="41.861419107983295" lon="-8.608791232109072">
        <ele>404.49249267578125</ele>
        <time>2021-03-12T19:38:23.794Z</time>
      </trkpt>
      <trkpt lat="41.86167080570031" lon="-8.60857665538788">
        <ele>400.56689453125</ele>
        <time>2021-03-12T19:38:39.939Z</time>
      </trkpt>
      <trkpt lat="41.86193049278259" lon="-8.608286976814272">
        <ele>398.8932189941406</ele>
        <time>2021-03-12T19:38:56.093Z</time>
      </trkpt>
      <trkpt lat="41.86219417397165" lon="-8.608115315437319">
        <ele>398.0693664550781</ele>
        <time>2021-03-12T19:39:12.254Z</time>
      </trkpt>
      <trkpt lat="41.86242988805351" lon="-8.608190417289736">
        <ele>398.77459716796875</ele>
        <time>2021-03-12T19:39:28.422Z</time>
      </trkpt>
      <trkpt lat="41.86243088684015" lon="-8.60819309949875">
        <ele>398.7970275878906</ele>
        <time>2021-03-12T19:39:44.590Z</time>
      </trkpt>
      <trkpt lat="41.8627399764955" lon="-8.60852996818721">
        <ele>400.0445251464844</ele>
        <time>2021-03-12T19:40:00.769Z</time>
      </trkpt>
      <trkpt lat="41.8638209905475" lon="-8.61114495433867">
        <ele>382.79742431640625</ele>
        <time>2021-03-12T19:40:17.007Z</time>
      </trkpt>
      <trkpt lat="41.8665129225701" lon="-8.61463995650411">
        <ele>326.6813049316406</ele>
        <time>2021-03-12T19:40:33.345Z</time>
      </trkpt>
      <trkpt lat="41.8674669507891" lon="-8.61482293345034">
        <ele>318.9157409667969</ele>
        <time>2021-03-12T19:40:49.709Z</time>
      </trkpt>
      <trkpt lat="41.8681219965219" lon="-8.61471296288073">
        <ele>316.3055419921875</ele>
        <time>2021-03-12T19:41:06.090Z</time>
      </trkpt>
      <trkpt lat="41.8689409922808" lon="-8.61498394981027">
        <ele>314.4801330566406</ele>
        <time>2021-03-12T19:41:22.494Z</time>
      </trkpt>
      <trkpt lat="41.8692839797586" lon="-8.61471899785101">
        <ele>319.9266357421875</ele>
        <time>2021-03-12T19:41:38.908Z</time>
      </trkpt>
      <trkpt lat="41.8707089871168" lon="-8.61451799981296">
        <ele>319.807861328125</ele>
        <time>2021-03-12T19:41:55.361Z</time>
      </trkpt>
      <trkpt lat="41.8727169558406" lon="-8.61560999415815">
        <ele>304.7814636230469</ele>
        <time>2021-03-12T19:42:11.871Z</time>
      </trkpt>
      <trkpt lat="41.874197954312" lon="-8.61752199009061">
        <ele>281.65777587890625</ele>
        <time>2021-03-12T19:42:28.436Z</time>
      </trkpt>
      <trkpt lat="41.8752669822425" lon="-8.6185259744525">
        <ele>273.6407165527344</ele>
        <time>2021-03-12T19:42:45.036Z</time>
      </trkpt>
      <trkpt lat="41.8764129560441" lon="-8.61887994222343">
        <ele>270.018310546875</ele>
        <time>2021-03-12T19:43:01.667Z</time>
      </trkpt>
      <trkpt lat="41.8780609220266" lon="-8.618751950562">
        <ele>262.4722900390625</ele>
        <time>2021-03-12T19:43:18.342Z</time>
      </trkpt>
      <trkpt lat="41.8786939233541" lon="-8.61915696412325">
        <ele>263.7726745605469</ele>
        <time>2021-03-12T19:43:35.036Z</time>
      </trkpt>
      <trkpt lat="41.8791789840907" lon="-8.61925796605647">
        <ele>263.4220275878906</ele>
        <time>2021-03-12T19:43:51.743Z</time>
      </trkpt>
      <trkpt lat="41.8802649434656" lon="-8.61918093636632">
        <ele>256.2891845703125</ele>
        <time>2021-03-12T19:44:08.479Z</time>
      </trkpt>
      <trkpt lat="41.881140936166" lon="-8.61969298683107">
        <ele>257.99908447265625</ele>
        <time>2021-03-12T19:44:25.241Z</time>
      </trkpt>
      <trkpt lat="41.8822009954602" lon="-8.62065992318094">
        <ele>257.3702697753906</ele>
        <time>2021-03-12T19:44:42.037Z</time>
      </trkpt>
      <trkpt lat="41.8827499262989" lon="-8.62067693844438">
        <ele>255.3256072998047</ele>
        <time>2021-03-12T19:44:58.848Z</time>
      </trkpt>
      <trkpt lat="41.8840979877859" lon="-8.61992198042572">
        <ele>237.80442810058594</ele>
        <time>2021-03-12T19:45:15.697Z</time>
      </trkpt>
      <trkpt lat="41.8843419849873" lon="-8.61951294355094">
        <ele>238.19190979003906</ele>
        <time>2021-03-12T19:45:32.557Z</time>
      </trkpt>
      <trkpt lat="41.8849779199809" lon="-8.61943298019469">
        <ele>240.96226501464844</ele>
        <time>2021-03-12T19:45:49.434Z</time>
      </trkpt>
      <trkpt lat="41.8853759765625" lon="-8.62008894793689">
        <ele>246.1952667236328</ele>
        <time>2021-03-12T19:46:06.328Z</time>
      </trkpt>
      <trkpt lat="41.8858039565384" lon="-8.62189197912812">
        <ele>247.08837890625</ele>
        <time>2021-03-12T19:46:23.259Z</time>
      </trkpt>
      <trkpt lat="41.8867009878159" lon="-8.62252598628402">
        <ele>258.23492431640625</ele>
        <time>2021-03-12T19:46:40.217Z</time>
      </trkpt>
      <trkpt lat="41.8878099974245" lon="-8.62410597503185">
        <ele>269.10040283203125</ele>
        <time>2021-03-12T19:46:57.219Z</time>
      </trkpt>
      <trkpt lat="41.8887059390545" lon="-8.62542193382978">
        <ele>254.7399444580078</ele>
        <time>2021-03-12T19:47:14.256Z</time>
      </trkpt>
      <trkpt lat="41.8887479323894" lon="-8.62611897289753">
        <ele>248.78713989257812</ele>
        <time>2021-03-12T19:47:31.307Z</time>
      </trkpt>
      <trkpt lat="41.8894029781222" lon="-8.62615794874728">
        <ele>246.2134552001953</ele>
        <time>2021-03-12T19:47:48.376Z</time>
      </trkpt>
      <trkpt lat="41.890308978036" lon="-8.62594395875931">
        <ele>240.9790496826172</ele>
        <time>2021-03-12T19:48:05.469Z</time>
      </trkpt>
      <trkpt lat="41.8911609984934" lon="-8.62526091746986">
        <ele>243.0548858642578</ele>
        <time>2021-03-12T19:48:22.589Z</time>
      </trkpt>
      <trkpt lat="41.891394937411" lon="-8.62516293302178">
        <ele>242.93423461914062</ele>
        <time>2021-03-12T19:48:39.715Z</time>
      </trkpt>
      <trkpt lat="41.8917199876159" lon="-8.6252689640969">
        <ele>240.17733764648438</ele>
        <time>2021-03-12T19:48:56.850Z</time>
      </trkpt>
      <trkpt lat="41.8924559187144" lon="-8.62468499690294">
        <ele>242.68214416503906</ele>
        <time>2021-03-12T19:49:14.008Z</time>
      </trkpt>
      <trkpt lat="41.8935009744018" lon="-8.62421292811632">
        <ele>244.55209350585938</ele>
        <time>2021-03-12T19:49:31.195Z</time>
      </trkpt>
      <trkpt lat="41.8943979218602" lon="-8.62404696643353">
        <ele>246.60935974121094</ele>
        <time>2021-03-12T19:49:48.406Z</time>
      </trkpt>
      <trkpt lat="41.8955649342388" lon="-8.62398695200682">
        <ele>246.52413940429688</ele>
        <time>2021-03-12T19:50:05.648Z</time>
      </trkpt>
      <trkpt lat="41.8968179449439" lon="-8.62453797832131">
        <ele>229.7292022705078</ele>
        <time>2021-03-12T19:50:22.926Z</time>
      </trkpt>
      <trkpt lat="41.8985939864069" lon="-8.62406297586858">
        <ele>215.2965545654297</ele>
        <time>2021-03-12T19:50:40.252Z</time>
      </trkpt>
      <trkpt lat="41.8995379563421" lon="-8.62416992895305">
        <ele>199.740966796875</ele>
        <time>2021-03-12T19:50:57.603Z</time>
      </trkpt>
      <trkpt lat="41.8996749166399" lon="-8.62433698028326">
        <ele>194.56222534179688</ele>
        <time>2021-03-12T19:51:14.959Z</time>
      </trkpt>
      <trkpt lat="41.8996229488403" lon="-8.62462196499109">
        <ele>190.8057098388672</ele>
        <time>2021-03-12T19:51:32.321Z</time>
      </trkpt>
      <trkpt lat="41.9004199840128" lon="-8.62399399280548">
        <ele>185.7677459716797</ele>
        <time>2021-03-12T19:51:49.708Z</time>
      </trkpt>
      <trkpt lat="41.9011529814452" lon="-8.62299998290837">
        <ele>187.3306121826172</ele>
        <time>2021-03-12T19:52:07.122Z</time>
      </trkpt>
      <trkpt lat="41.901577943936" lon="-8.62282999791205">
        <ele>183.62142944335938</ele>
        <time>2021-03-12T19:52:24.548Z</time>
      </trkpt>
      <trkpt lat="41.9017329253256" lon="-8.62288699485362">
        <ele>180.68701171875</ele>
        <time>2021-03-12T19:52:41.978Z</time>
      </trkpt>
      <trkpt lat="41.9009719323367" lon="-8.62336099147797">
        <ele>184.76565551757812</ele>
        <time>2021-03-12T19:52:59.431Z</time>
      </trkpt>
      <trkpt lat="41.9008179567754" lon="-8.62455599941313">
        <ele>173.0174560546875</ele>
        <time>2021-03-12T19:53:16.908Z</time>
      </trkpt>
      <trkpt lat="41.9013239722699" lon="-8.62497593276203">
        <ele>166.75067138671875</ele>
        <time>2021-03-12T19:53:34.401Z</time>
      </trkpt>
      <trkpt lat="41.9024879671633" lon="-8.62516393885016">
        <ele>161.01217651367188</ele>
        <time>2021-03-12T19:53:51.925Z</time>
      </trkpt>
      <trkpt lat="41.9038109667599" lon="-8.62575595267117">
        <ele>156.15512084960938</ele>
        <time>2021-03-12T19:54:09.486Z</time>
      </trkpt>
      <trkpt lat="41.9043279625475" lon="-8.62669296562672">
        <ele>157.34645080566406</ele>
        <time>2021-03-12T19:54:27.071Z</time>
      </trkpt>
      <trkpt lat="41.9047209899873" lon="-8.62656497396529">
        <ele>157.05018615722656</ele>
        <time>2021-03-12T19:54:44.666Z</time>
      </trkpt>
      <trkpt lat="41.9059239607304" lon="-8.62656991928816">
        <ele>160.6591796875</ele>
        <time>2021-03-12T19:55:02.293Z</time>
      </trkpt>
      <trkpt lat="41.906395945698" lon="-8.62675993703306">
        <ele>160.8871612548828</ele>
        <time>2021-03-12T19:55:19.934Z</time>
      </trkpt>
      <trkpt lat="41.9069759733975" lon="-8.62664493732154">
        <ele>161.0</ele>
        <time>2021-03-12T19:55:37.590Z</time>
      </trkpt>
      <trkpt lat="41.9081219471991" lon="-8.62708297558129">
        <ele>161.41030883789062</ele>
        <time>2021-03-12T19:55:55.278Z</time>
      </trkpt>
      <trkpt lat="41.9088989496231" lon="-8.62644494511187">
        <ele>165.04066467285156</ele>
        <time>2021-03-12T19:56:12.990Z</time>
      </trkpt>
      <trkpt lat="41.9098729267716" lon="-8.62602794542909">
        <ele>170.79339599609375</ele>
        <time>2021-03-12T19:56:30.729Z</time>
      </trkpt>
      <trkpt lat="41.9107229355723" lon="-8.62608393654227">
        <ele>181.16110229492188</ele>
        <time>2021-03-12T19:56:48.491Z</time>
      </trkpt>
      <trkpt lat="41.9116649776697" lon="-8.62641393207014">
        <ele>191.02442932128906</ele>
        <time>2021-03-12T19:57:06.279Z</time>
      </trkpt>
      <trkpt lat="41.9129249453545" lon="-8.62746292725205">
        <ele>197.5271453857422</ele>
        <time>2021-03-12T19:57:24.107Z</time>
      </trkpt>
      <trkpt lat="41.9151429645717" lon="-8.62725597806275">
        <ele>197.38766479492188</ele>
        <time>2021-03-12T19:57:41.994Z</time>
      </trkpt>
      <trkpt lat="41.9176269415766" lon="-8.62811093218625">
        <ele>207.15834045410156</ele>
        <time>2021-03-12T19:57:59.949Z</time>
      </trkpt>
      <trkpt lat="41.9189989753067" lon="-8.62837093882263">
        <ele>208.17617797851562</ele>
        <time>2021-03-12T19:58:17.941Z</time>
      </trkpt>
      <trkpt lat="41.9195719622076" lon="-8.62867897376418">
        <ele>209.84823608398438</ele>
        <time>2021-03-12T19:58:35.950Z</time>
      </trkpt>
      <trkpt lat="41.9203969929367" lon="-8.62860496155918">
        <ele>207.0082244873047</ele>
        <time>2021-03-12T19:58:53.981Z</time>
      </trkpt>
      <trkpt lat="41.9207909423858" lon="-8.6287469509989">
        <ele>207.54998779296875</ele>
        <time>2021-03-12T19:59:12.023Z</time>
      </trkpt>
      <trkpt lat="41.9215189944953" lon="-8.62814395688474">
        <ele>209.2669219970703</ele>
        <time>2021-03-12T19:59:30.087Z</time>
      </trkpt>
      <trkpt lat="41.9221019558609" lon="-8.62797992303967">
        <ele>213.4749755859375</ele>
        <time>2021-03-12T19:59:48.167Z</time>
      </trkpt>
      <trkpt lat="41.9230499491096" lon="-8.62832098267972">
        <ele>219.20037841796875</ele>
        <time>2021-03-12T20:00:06.273Z</time>
      </trkpt>
      <trkpt lat="41.923962989822" lon="-8.6281739640981">
        <ele>225.31463623046875</ele>
        <time>2021-03-12T20:00:24.404Z</time>
      </trkpt>
      <trkpt lat="41.9254229497164" lon="-8.62872691825032">
        <ele>230.11949157714844</ele>
        <time>2021-03-12T20:00:42.575Z</time>
      </trkpt>
      <trkpt lat="41.9258159771562" lon="-8.62757398746908">
        <ele>241.4729461669922</ele>
        <time>2021-03-12T20:01:00.772Z</time>
      </trkpt>
      <trkpt lat="41.9255999755114" lon="-8.62706797197461">
        <ele>243.4669647216797</ele>
        <time>2021-03-12T20:01:18.980Z</time>
      </trkpt>
      <trkpt lat="41.9256449863315" lon="-8.62677292898297">
        <ele>246.49844360351562</ele>
        <time>2021-03-12T20:01:37.194Z</time>
      </trkpt>
      <trkpt lat="41.9259919971228" lon="-8.6266469489783">
        <ele>253.5992431640625</ele>
        <time>2021-03-12T20:01:55.418Z</time>
      </trkpt>
      <trkpt lat="41.9278789311647" lon="-8.62680897116661">
        <ele>257.1629333496094</ele>
        <time>2021-03-12T20:02:13.692Z</time>
      </trkpt>
      <trkpt lat="41.9302409514785" lon="-8.6280719563365">
        <ele>268.95556640625</ele>
        <time>2021-03-12T20:02:32.034Z</time>
      </trkpt>
      <trkpt lat="41.9320959504694" lon="-8.62819894216955">
        <ele>273.93359375</ele>
        <time>2021-03-12T20:02:50.426Z</time>
      </trkpt>
      <trkpt lat="41.932176919654" lon="-8.62875298596919">
        <ele>270.38409423828125</ele>
        <time>2021-03-12T20:03:08.829Z</time>
      </trkpt>
      <trkpt lat="41.932633984834" lon="-8.62975194118917">
        <ele>269.6051940917969</ele>
        <time>2021-03-12T20:03:27.255Z</time>
      </trkpt>
      <trkpt lat="41.9339859858155" lon="-8.63057294860482">
        <ele>265.48992919921875</ele>
        <time>2021-03-12T20:03:45.721Z</time>
      </trkpt>
      <trkpt lat="41.9355499651283" lon="-8.6312769446522">
        <ele>241.184814453125</ele>
        <time>2021-03-12T20:04:04.231Z</time>
      </trkpt>
      <trkpt lat="41.9354549981654" lon="-8.63045996055007">
        <ele>250.06317138671875</ele>
        <time>2021-03-12T20:04:22.757Z</time>
      </trkpt>
      <trkpt lat="41.9377979915589" lon="-8.62981296144426">
        <ele>231.4867706298828</ele>
        <time>2021-03-12T20:04:41.347Z</time>
      </trkpt>
      <trkpt lat="41.9382349401712" lon="-8.62990792840719">
        <ele>227.4073028564453</ele>
        <time>2021-03-12T20:04:59.949Z</time>
      </trkpt>
      <trkpt lat="41.938540963456" lon="-8.63032492808998">
        <ele>222.4899139404297</ele>
        <time>2021-03-12T20:05:18.562Z</time>
      </trkpt>
      <trkpt lat="41.9393789861351" lon="-8.63067897967994">
        <ele>220.02536010742188</ele>
        <time>2021-03-12T20:05:37.199Z</time>
      </trkpt>
      <trkpt lat="41.9421649631113" lon="-8.63092297688127">
        <ele>171.89566040039062</ele>
        <time>2021-03-12T20:05:55.910Z</time>
      </trkpt>
      <trkpt lat="41.9445769395679" lon="-8.63039692863822">
        <ele>152.54867553710938</ele>
        <time>2021-03-12T20:06:14.686Z</time>
      </trkpt>
      <trkpt lat="41.9451459869742" lon="-8.62949495203793">
        <ele>169.2108917236328</ele>
        <time>2021-03-12T20:06:33.486Z</time>
      </trkpt>
      <trkpt lat="41.9460909627378" lon="-8.62993994727731">
        <ele>159.92562866210938</ele>
        <time>2021-03-12T20:06:52.313Z</time>
      </trkpt>
      <trkpt lat="41.9461809843779" lon="-8.63023792393506">
        <ele>158.17010498046875</ele>
        <time>2021-03-12T20:07:11.146Z</time>
      </trkpt>
      <trkpt lat="41.9466049410403" lon="-8.63060798496008">
        <ele>145.91799926757812</ele>
        <time>2021-03-12T20:07:29.992Z</time>
      </trkpt>
      <trkpt lat="41.9471259601414" lon="-8.63084795884788">
        <ele>129.24896240234375</ele>
        <time>2021-03-12T20:07:48.853Z</time>
      </trkpt>
      <trkpt lat="41.9477779883891" lon="-8.63072097301483">
        <ele>118.3124008178711</ele>
        <time>2021-03-12T20:08:07.732Z</time>
      </trkpt>
      <trkpt lat="41.9484639633447" lon="-8.63135799765587">
        <ele>107.19503784179688</ele>
        <time>2021-03-12T20:08:26.633Z</time>
      </trkpt>
      <trkpt lat="41.9489179272205" lon="-8.63212896510959">
        <ele>102.7192611694336</ele>
        <time>2021-03-12T20:08:45.553Z</time>
      </trkpt>
      <trkpt lat="41.9497399404645" lon="-8.63254898227751">
        <ele>95.54522705078125</ele>
        <time>2021-03-12T20:09:04.497Z</time>
      </trkpt>
      <trkpt lat="41.95052892901" lon="-8.6332939658314">
        <ele>87.02772521972656</ele>
        <time>2021-03-12T20:09:23.467Z</time>
      </trkpt>
      <trkpt lat="41.9529609382153" lon="-8.63461394794285">
        <ele>69.61994171142578</ele>
        <time>2021-03-12T20:09:42.507Z</time>
      </trkpt>
      <trkpt lat="41.954056955874" lon="-8.63417197018862">
        <ele>63.970497131347656</ele>
        <time>2021-03-12T20:10:01.577Z</time>
      </trkpt>
      <trkpt lat="41.9555599987507" lon="-8.6328499764204">
        <ele>70.75984954833984</ele>
        <time>2021-03-12T20:10:20.695Z</time>
      </trkpt>
      <trkpt lat="41.95691392757" lon="-8.63284595310688">
        <ele>68.21882629394531</ele>
        <time>2021-03-12T20:10:39.849Z</time>
      </trkpt>
      <trkpt lat="41.9579149782658" lon="-8.63258494064212">
        <ele>61.611328125</ele>
        <time>2021-03-12T20:10:59.030Z</time>
      </trkpt>
      <trkpt lat="41.9589269254357" lon="-8.63253297284245">
        <ele>58.73880386352539</ele>
        <time>2021-03-12T20:11:18.238Z</time>
      </trkpt>
      <trkpt lat="41.96228697896" lon="-8.63145497627556">
        <ele>76.76265716552734</ele>
        <time>2021-03-12T20:11:37.538Z</time>
      </trkpt>
      <trkpt lat="41.9627629872411" lon="-8.63107192330062">
        <ele>77.49458312988281</ele>
        <time>2021-03-12T20:11:56.853Z</time>
      </trkpt>
      <trkpt lat="41.9639799557626" lon="-8.63079892471433">
        <ele>69.50334930419922</ele>
        <time>2021-03-12T20:12:16.201Z</time>
      </trkpt>
      <trkpt lat="41.9646709598601" lon="-8.63078895024955">
        <ele>67.13378143310547</ele>
        <time>2021-03-12T20:12:35.568Z</time>
      </trkpt>
      <trkpt lat="41.9652879517525" lon="-8.6310559976846">
        <ele>64.97086334228516</ele>
        <time>2021-03-12T20:12:54.952Z</time>
      </trkpt>
      <trkpt lat="41.9657309353352" lon="-8.6315549723804">
        <ele>63.3597526550293</ele>
        <time>2021-03-12T20:13:14.351Z</time>
      </trkpt>
      <trkpt lat="41.9674539193511" lon="-8.63261293619871">
        <ele>63.89813232421875</ele>
        <time>2021-03-12T20:13:33.801Z</time>
      </trkpt>
      <trkpt lat="41.9688069261611" lon="-8.63271192647517">
        <ele>61.0</ele>
        <time>2021-03-12T20:13:53.287Z</time>
      </trkpt>
      <trkpt lat="41.9694839324802" lon="-8.63298794254661">
        <ele>61.127017974853516</ele>
        <time>2021-03-12T20:14:12.792Z</time>
      </trkpt>
      <trkpt lat="41.9718489702791" lon="-8.6331559997052">
        <ele>65.38353729248047</ele>
        <time>2021-03-12T20:14:32.360Z</time>
      </trkpt>
      <trkpt lat="41.9768999889493" lon="-8.63426299765706">
        <ele>54.847015380859375</ele>
        <time>2021-03-12T20:14:52.064Z</time>
      </trkpt>
      <trkpt lat="41.9772319961339" lon="-8.63430792465806">
        <ele>53.6519889831543</ele>
        <time>2021-03-12T20:15:11.777Z</time>
      </trkpt>
      <trkpt lat="41.9777869619429" lon="-8.6340849660337">
        <ele>53.15153503417969</ele>
        <time>2021-03-12T20:15:31.506Z</time>
      </trkpt>
      <trkpt lat="41.9791419804096" lon="-8.63468896597624">
        <ele>45.3726692199707</ele>
        <time>2021-03-12T20:15:51.273Z</time>
      </trkpt>
      <trkpt lat="41.9796379376203" lon="-8.63459894433618">
        <ele>44.77560806274414</ele>
        <time>2021-03-12T20:16:11.053Z</time>
      </trkpt>
      <trkpt lat="41.9818909931928" lon="-8.6348569393158">
        <ele>25.525651931762695</ele>
        <time>2021-03-12T20:16:30.893Z</time>
      </trkpt>
      <trkpt lat="41.9828119967133" lon="-8.63397499546409">
        <ele>21.723350524902344</ele>
        <time>2021-03-12T20:16:50.764Z</time>
      </trkpt>
      <trkpt lat="41.984137929976" lon="-8.63319899886847">
        <ele>15.47886848449707</ele>
        <time>2021-03-12T20:17:10.673Z</time>
      </trkpt>
      <trkpt lat="41.9861219264567" lon="-8.63463993184268">
        <ele>31.283323287963867</ele>
        <time>2021-03-12T20:17:30.642Z</time>
      </trkpt>
      <trkpt lat="41.9865389261395" lon="-8.6351709254086">
        <ele>33.64879608154297</ele>
        <time>2021-03-12T20:17:50.627Z</time>
      </trkpt>
      <trkpt lat="41.9871819857508" lon="-8.63545892760158">
        <ele>33.93740463256836</ele>
        <time>2021-03-12T20:18:10.630Z</time>
      </trkpt>
      <trkpt lat="41.989288944751" lon="-8.63497797399759">
        <ele>32.264183044433594</ele>
        <time>2021-03-12T20:18:30.690Z</time>
      </trkpt>
      <trkpt lat="41.991545939818" lon="-8.6355369631201">
        <ele>26.500215530395508</ele>
        <time>2021-03-12T20:18:50.811Z</time>
      </trkpt>
      <trkpt lat="41.9933309499174" lon="-8.63555892370641">
        <ele>15.40621280670166</ele>
        <time>2021-03-12T20:19:10.979Z</time>
      </trkpt>
      <trkpt lat="41.9951939955354" lon="-8.63592496141791">
        <ele>22.900238037109375</ele>
        <time>2021-03-12T20:19:31.198Z</time>
      </trkpt>
      <trkpt lat="41.9971449673176" lon="-8.63569194450974">
        <ele>24.674253463745117</ele>
        <time>2021-03-12T20:19:51.469Z</time>
      </trkpt>
      <trkpt lat="41.9989439751953" lon="-8.63599595613778">
        <ele>26.062923431396484</ele>
        <time>2021-03-12T20:20:11.788Z</time>
      </trkpt>
      <trkpt lat="42.0012599788606" lon="-8.63666499964893">
        <ele>22.228744506835938</ele>
        <time>2021-03-12T20:20:32.170Z</time>
      </trkpt>
      <trkpt lat="42.0021709240973" lon="-8.63703497685492">
        <ele>22.704397201538086</ele>
        <time>2021-03-12T20:20:52.578Z</time>
      </trkpt>
      <trkpt lat="42.0024799648672" lon="-8.6375439260155">
        <ele>22.17420768737793</ele>
        <time>2021-03-12T20:21:12.999Z</time>
      </trkpt>
      <trkpt lat="42.0036169700325" lon="-8.63734996877611">
        <ele>22.032445907592773</ele>
        <time>2021-03-12T20:21:33.450Z</time>
      </trkpt>
      <trkpt lat="42.0040599536151" lon="-8.63769295625389">
        <ele>22.980051040649414</ele>
        <time>2021-03-12T20:21:53.915Z</time>
      </trkpt>
      <trkpt lat="42.0043409988284" lon="-8.6377149168402">
        <ele>22.383895874023438</ele>
        <time>2021-03-12T20:22:14.387Z</time>
      </trkpt>
      <trkpt lat="42.0087919570506" lon="-8.63746195100248">
        <ele>22.975936889648438</ele>
        <time>2021-03-12T20:22:34.978Z</time>
      </trkpt>
      <trkpt lat="42.0095769222826" lon="-8.63932994194329">
        <ele>19.882463455200195</ele>
        <time>2021-03-12T20:22:55.612Z</time>
      </trkpt>
      <trkpt lat="42.0094319991767" lon="-8.64142692647874">
        <ele>17.167530059814453</ele>
        <time>2021-03-12T20:23:16.288Z</time>
      </trkpt>
      <trkpt lat="42.0098069217056" lon="-8.64285796880722">
        <ele>13.669665336608887</ele>
        <time>2021-03-12T20:23:36.994Z</time>
      </trkpt>
      <trkpt lat="42.0102249272168" lon="-8.64297992549837">
        <ele>11.529640197753906</ele>
        <time>2021-03-12T20:23:57.711Z</time>
      </trkpt>
      <trkpt lat="42.0113339368254" lon="-8.64252093248069">
        <ele>11.004744529724121</ele>
        <time>2021-03-12T20:24:18.459Z</time>
      </trkpt>
      <trkpt lat="42.0123179722577" lon="-8.64348191767931">
        <ele>14.344322204589844</ele>
        <time>2021-03-12T20:24:39.240Z</time>
      </trkpt>
      <trkpt lat="42.0136099588126" lon="-8.64324898459017">
        <ele>21.099672317504883</ele>
        <time>2021-03-12T20:25:00.055Z</time>
      </trkpt>
      <trkpt lat="42.0141559559852" lon="-8.64300096407533">
        <ele>21.625261306762695</ele>
        <time>2021-03-12T20:25:20.886Z</time>
      </trkpt>
      <trkpt lat="42.014773953706" lon="-8.64308796823025">
        <ele>23.651023864746094</ele>
        <time>2021-03-12T20:25:41.733Z</time>
      </trkpt>
      <trkpt lat="42.0150359719992" lon="-8.64334696903825">
        <ele>23.860118865966797</ele>
        <time>2021-03-12T20:26:02.589Z</time>
      </trkpt>
      <trkpt lat="42.0162489172071" lon="-8.64375994540751">
        <ele>22.595172882080078</ele>
        <time>2021-03-12T20:26:23.478Z</time>
      </trkpt>
      <trkpt lat="42.0166789926589" lon="-8.6435809917748">
        <ele>23.069063186645508</ele>
        <time>2021-03-12T20:26:44.379Z</time>
      </trkpt>
      <trkpt lat="42.0185789186507" lon="-8.64350195042789">
        <ele>24.05154037475586</ele>
        <time>2021-03-12T20:27:05.331Z</time>
      </trkpt>
      <trkpt lat="42.0211229939014" lon="-8.64428297616541">
        <ele>30.32927131652832</ele>
        <time>2021-03-12T20:27:26.353Z</time>
      </trkpt>
      <trkpt lat="42.0219679735601" lon="-8.64298897795379">
        <ele>32.4568977355957</ele>
        <time>2021-03-12T20:27:47.409Z</time>
      </trkpt>
      <trkpt lat="42.0223329216242" lon="-8.64212698303163">
        <ele>33.57021713256836</ele>
        <time>2021-03-12T20:28:08.485Z</time>
      </trkpt>
      <trkpt lat="42.0226929243654" lon="-8.64192799665034">
        <ele>35.874359130859375</ele>
        <time>2021-03-12T20:28:29.571Z</time>
      </trkpt>
      <trkpt lat="42.0228859595954" lon="-8.64090196788311">
        <ele>39.23318862915039</ele>
        <time>2021-03-12T20:28:50.678Z</time>
      </trkpt>
      <trkpt lat="42.0244719833136" lon="-8.64132198505104">
        <ele>44.459747314453125</ele>
        <time>2021-03-12T20:29:11.828Z</time>
      </trkpt>
      <trkpt lat="42.0244139805436" lon="-8.64117295481265">
        <ele>43.71455383300781</ele>
        <time>2021-03-12T20:29:32.981Z</time>
      </trkpt>
      <trkpt lat="42.0245229452848" lon="-8.64118594676256">
        <ele>44.15352249145508</ele>
        <time>2021-03-12T20:29:54.137Z</time>
      </trkpt>
      <trkpt lat="42.025236999616" lon="-8.64161292091012">
        <ele>45.37907409667969</ele>
        <time>2021-03-12T20:30:15.314Z</time>
      </trkpt>
      <trkpt lat="42.0272619836032" lon="-8.6420819722116">
        <ele>50.620269775390625</ele>
        <time>2021-03-12T20:30:36.546Z</time>
      </trkpt>
      <trkpt lat="42.0287499390543" lon="-8.64191793836653">
        <ele>49.22119903564453</ele>
        <time>2021-03-12T20:30:57.818Z</time>
      </trkpt>
      <trkpt lat="42.031608922407" lon="-8.64204995334148">
        <ele>35.503509521484375</ele>
        <time>2021-03-12T20:31:19.166Z</time>
      </trkpt>
      <trkpt lat="42.0332449860871" lon="-8.642941955477">
        <ele>28.008230209350586</ele>
        <time>2021-03-12T20:31:40.561Z</time>
      </trkpt>
      <trkpt lat="42.0348559878767" lon="-8.6452039796859">
        <ele>21.736888885498047</ele>
        <time>2021-03-12T20:32:02.018Z</time>
      </trkpt>
      <trkpt lat="42.035210961476" lon="-8.64538192749023">
        <ele>18.351520538330078</ele>
        <time>2021-03-12T20:32:23.485Z</time>
      </trkpt>
      <trkpt lat="42.03738598153" lon="-8.64819095470011">
        <ele>11.443194389343262</ele>
        <time>2021-03-12T20:32:45.033Z</time>
      </trkpt>
      <trkpt lat="42.0376279670745" lon="-8.64818994887173">
        <ele>11.5564603805542</ele>
        <time>2021-03-12T20:33:06.587Z</time>
      </trkpt>
      <trkpt lat="42.0385899581015" lon="-8.64784997887909">
        <ele>15.754658699035645</ele>
        <time>2021-03-12T20:33:28.168Z</time>
      </trkpt>
      <trkpt lat="42.0408989209682" lon="-8.64785693585873">
        <ele>17.02909278869629</ele>
        <time>2021-03-12T20:33:49.810Z</time>
      </trkpt>
      <trkpt lat="42.0409529842436" lon="-8.64759994670749">
        <ele>16.546899795532227</ele>
        <time>2021-03-12T20:34:11.458Z</time>
      </trkpt>
      <trkpt lat="42.0403889659792" lon="-8.64620695821941">
        <ele>19.44672203063965</ele>
        <time>2021-03-12T20:34:33.137Z</time>
      </trkpt>
      <trkpt lat="42.0405539218336" lon="-8.64541998133063">
        <ele>13.498100280761719</ele>
        <time>2021-03-12T20:34:54.832Z</time>
      </trkpt>
      <trkpt lat="42.0402399357408" lon="-8.64465496502817">
        <ele>6.686076641082764</ele>
        <time>2021-03-12T20:35:16.545Z</time>
      </trkpt>
      <trkpt lat="42.0401839446276" lon="-8.64502192474902">
        <ele>8.5515775680542</ele>
        <time>2021-03-12T20:35:38.265Z</time>
      </trkpt>
      <trkpt lat="42.040250999853" lon="-8.64456594921649">
        <ele>6.218444347381592</ele>
        <time>2021-03-12T20:35:59.994Z</time>
      </trkpt>
      <trkpt lat="42.040937980637" lon="-8.64451297558844">
        <ele>8.719179153442383</ele>
        <time>2021-03-12T20:36:21.742Z</time>
      </trkpt>
      <trkpt lat="42.0413279905915" lon="-8.64489393308759">
        <ele>10.207231521606445</ele>
        <time>2021-03-12T20:36:43.503Z</time>
      </trkpt>
      <trkpt lat="42.0416429825127" lon="-8.64565894939005">
        <ele>12.434698104858398</ele>
        <time>2021-03-12T20:37:05.281Z</time>
      </trkpt>
      <trkpt lat="42.0417219400406" lon="-8.64648498594761">
        <ele>13.05375862121582</ele>
        <time>2021-03-12T20:37:27.076Z</time>
      </trkpt>
      <trkpt lat="42.042203983292" lon="-8.64682294428349">
        <ele>14.447373390197754</ele>
        <time>2021-03-12T20:37:48.885Z</time>
      </trkpt>
      <trkpt lat="42.0429029501975" lon="-8.6465079523623">
        <ele>13.634354591369629</ele>
        <time>2021-03-12T20:38:10.714Z</time>
      </trkpt>
      <trkpt lat="42.0433059521019" lon="-8.64582792855799">
        <ele>11.584288597106934</ele>
        <time>2021-03-12T20:38:32.560Z</time>
      </trkpt>
      <trkpt lat="42.0436489395797" lon="-8.64569297991693">
        <ele>13.924304962158203</ele>
        <time>2021-03-12T20:38:54.415Z</time>
      </trkpt>
      <trkpt lat="42.0437529589981" lon="-8.64529299549758">
        <ele>15.444015502929688</ele>
        <time>2021-03-12T20:39:16.279Z</time>
      </trkpt>
      <trkpt lat="42.0447089988738" lon="-8.64566297270358">
        <ele>22.95378875732422</ele>
        <time>2021-03-12T20:39:38.169Z</time>
      </trkpt>
      <trkpt lat="42.0449959952384" lon="-8.64557295106351">
        <ele>27.497346878051758</ele>
        <time>2021-03-12T20:40:00.067Z</time>
      </trkpt>
      <trkpt lat="42.0451129227877" lon="-8.64544697105885">
        <ele>31.68522071838379</ele>
        <time>2021-03-12T20:40:21.969Z</time>
      </trkpt>
      <trkpt lat="42.0448609627783" lon="-8.64463199861348">
        <ele>30.010784149169922</ele>
        <time>2021-03-12T20:40:43.889Z</time>
      </trkpt>
      <trkpt lat="42.0460079424083" lon="-8.6454769782722">
        <ele>45.17362976074219</ele>
        <time>2021-03-12T20:41:05.844Z</time>
      </trkpt>
      <trkpt lat="42.0462999679148" lon="-8.64461297169328">
        <ele>51.559356689453125</ele>
        <time>2021-03-12T20:41:27.818Z</time>
      </trkpt>
      <trkpt lat="42.046807995066" lon="-8.64439194090664">
        <ele>52.09400939941406</ele>
        <time>2021-03-12T20:41:49.806Z</time>
      </trkpt>
      <trkpt lat="42.0469039678574" lon="-8.64399899728596">
        <ele>48.97235870361328</ele>
        <time>2021-03-12T20:42:11.802Z</time>
      </trkpt>
      <trkpt lat="42.0472049620003" lon="-8.64384393207729">
        <ele>47.09852981567383</ele>
        <time>2021-03-12T20:42:33.807Z</time>
      </trkpt>
      <trkpt lat="42.047354998067" lon="-8.64335694350302">
        <ele>40.95226287841797</ele>
        <time>2021-03-12T20:42:55.822Z</time>
      </trkpt>
      <trkpt lat="42.0475289225578" lon="-8.64325594156981">
        <ele>39.506961822509766</ele>
        <time>2021-03-12T20:43:17.842Z</time>
      </trkpt>
      <trkpt lat="42.0472939778119" lon="-8.64201592281461">
        <ele>18.858976364135742</ele>
        <time>2021-03-12T20:43:39.888Z</time>
      </trkpt>
      <trkpt lat="42.0474059600383" lon="-8.64209194667637">
        <ele>20.582176208496094</ele>
        <time>2021-03-12T20:44:01.937Z</time>
      </trkpt>
      <trkpt lat="42.0488949213177" lon="-8.64069392904639">
        <ele>21.18826675415039</ele>
        <time>2021-03-12T20:44:24.034Z</time>
      </trkpt>
      <trkpt lat="42.051580986008" lon="-8.63957192748785">
        <ele>21.013408660888672</ele>
        <time>2021-03-12T20:44:46.206Z</time>
      </trkpt>
      <trkpt lat="42.0518839918077" lon="-8.63967695273459">
        <ele>19.949588775634766</ele>
        <time>2021-03-12T20:45:08.387Z</time>
      </trkpt>
      <trkpt lat="42.0522669609636" lon="-8.64046795293689">
        <ele>20.858455657958984</ele>
        <time>2021-03-12T20:45:30.586Z</time>
      </trkpt>
      <trkpt lat="42.053377982229" lon="-8.64009998738766">
        <ele>19.785110473632812</ele>
        <time>2021-03-12T20:45:52.816Z</time>
      </trkpt>
      <trkpt lat="42.0550739765167" lon="-8.63740797154605">
        <ele>17.177480697631836</ele>
        <time>2021-03-12T20:46:15.116Z</time>
      </trkpt>
      <trkpt lat="42.0552589651197" lon="-8.63613895140588">
        <ele>12.517410278320312</ele>
        <time>2021-03-12T20:46:37.442Z</time>
      </trkpt>
      <trkpt lat="42.0561269950122" lon="-8.63462291657925">
        <ele>5.928502559661865</ele>
        <time>2021-03-12T20:46:59.806Z</time>
      </trkpt>
      <trkpt lat="42.0565629377961" lon="-8.63489893265069">
        <ele>11.002252578735352</ele>
        <time>2021-03-12T20:47:22.182Z</time>
      </trkpt>
      <trkpt lat="42.0574969332665" lon="-8.63476297818124">
        <ele>13.019810676574707</ele>
        <time>2021-03-12T20:47:44.584Z</time>
      </trkpt>
      <trkpt lat="42.0581609476358" lon="-8.63514393568039">
        <ele>12.421368598937988</ele>
        <time>2021-03-12T20:48:07.005Z</time>
      </trkpt>
      <trkpt lat="42.0583419967443" lon="-8.63544291816652">
        <ele>14.243121147155762</ele>
        <time>2021-03-12T20:48:29.433Z</time>
      </trkpt>
      <trkpt lat="42.0584229659289" lon="-8.63637096248567">
        <ele>16.76133155822754</ele>
        <time>2021-03-12T20:48:51.880Z</time>
      </trkpt>
      <trkpt lat="42.0589759200811" lon="-8.63680891692638">
        <ele>10.95794677734375</ele>
        <time>2021-03-12T20:49:14.344Z</time>
      </trkpt>
      <trkpt lat="42.0592709630728" lon="-8.63814197480679">
        <ele>13.716656684875488</ele>
        <time>2021-03-12T20:49:36.836Z</time>
      </trkpt>
      <trkpt lat="42.0622429344803" lon="-8.63676792941988">
        <ele>10.115954399108887</ele>
        <time>2021-03-12T20:49:59.412Z</time>
      </trkpt>
      <trkpt lat="42.0625429227948" lon="-8.63676792941988">
        <ele>10.205671310424805</ele>
        <time>2021-03-12T20:50:21.996Z</time>
      </trkpt>
      <trkpt lat="42.0631479285657" lon="-8.6378959659487">
        <ele>13.954774856567383</ele>
        <time>2021-03-12T20:50:44.607Z</time>
      </trkpt>
      <trkpt lat="42.0632239524275" lon="-8.63836795091629">
        <ele>15.452203750610352</ele>
        <time>2021-03-12T20:51:07.228Z</time>
      </trkpt>
      <trkpt lat="42.0625589322299" lon="-8.63669391721487">
        <ele>10.121813774108887</ele>
        <time>2021-03-12T20:51:29.886Z</time>
      </trkpt>
      <trkpt lat="42.0618919841945" lon="-8.63692793995142">
        <ele>10.729005813598633</ele>
        <time>2021-03-12T20:51:52.563Z</time>
      </trkpt>
      <trkpt lat="42.0621199719608" lon="-8.63761693239212">
        <ele>11.282118797302246</ele>
        <time>2021-03-12T20:52:15.255Z</time>
      </trkpt>
      <trkpt lat="42.0621779747307" lon="-8.63870993256569">
        <ele>12.672658920288086</ele>
        <time>2021-03-12T20:52:37.969Z</time>
      </trkpt>
      <trkpt lat="42.0627609360963" lon="-8.63910597749054">
        <ele>13.500943183898926</ele>
        <time>2021-03-12T20:53:00.700Z</time>
      </trkpt>
      <trkpt lat="42.0638759806752" lon="-8.6391909699887">
        <ele>16.872419357299805</ele>
        <time>2021-03-12T20:53:23.461Z</time>
      </trkpt>
      <trkpt lat="42.0644279289991" lon="-8.6397419963032">
        <ele>16.93731689453125</ele>
        <time>2021-03-12T20:53:46.240Z</time>
      </trkpt>
      <trkpt lat="42.0662259310484" lon="-8.6384919192642">
        <ele>20.410375595092773</ele>
        <time>2021-03-12T20:54:09.073Z</time>
      </trkpt>
      <trkpt lat="42.0677239447832" lon="-8.63845093175769">
        <ele>20.257661819458008</ele>
        <time>2021-03-12T20:54:31.946Z</time>
      </trkpt>
      <trkpt lat="42.0695259701461" lon="-8.63903992809355">
        <ele>12.309089660644531</ele>
        <time>2021-03-12T20:54:54.868Z</time>
      </trkpt>
      <trkpt lat="42.0700319856405" lon="-8.63906498998404">
        <ele>15.525092124938965</ele>
        <time>2021-03-12T20:55:17.804Z</time>
      </trkpt>
      <trkpt lat="42.0714009180665" lon="-8.63865695893764">
        <ele>18.822765350341797</ele>
        <time>2021-03-12T20:55:40.777Z</time>
      </trkpt>
      <trkpt lat="42.0759249664843" lon="-8.63963194191456">
        <ele>22.773405075073242</ele>
        <time>2021-03-12T20:56:03.872Z</time>
      </trkpt>
      <trkpt lat="42.0775639638305" lon="-8.63836099393666">
        <ele>25.86721420288086</ele>
        <time>2021-03-12T20:56:27.018Z</time>
      </trkpt>
      <trkpt lat="42.0798309333622" lon="-8.63898997195065">
        <ele>32.88566970825195</ele>
        <time>2021-03-12T20:56:50.226Z</time>
      </trkpt>
      <trkpt lat="42.0806409604847" lon="-8.6390479747206">
        <ele>33.15174865722656</ele>
        <time>2021-03-12T20:57:13.455Z</time>
      </trkpt>
      <trkpt lat="42.0815759617835" lon="-8.64035194739699">
        <ele>18.186691284179688</ele>
        <time>2021-03-12T20:57:36.720Z</time>
      </trkpt>
      <trkpt lat="42.0827619172633" lon="-8.6410129442811">
        <ele>26.289609909057617</ele>
        <time>2021-03-12T20:58:00.019Z</time>
      </trkpt>
      <trkpt lat="42.082813968882" lon="-8.6402359418571">
        <ele>28.81521987915039</ele>
        <time>2021-03-12T20:58:23.334Z</time>
      </trkpt>
      <trkpt lat="42.0833679288626" lon="-8.63889299333096">
        <ele>29.555227279663086</ele>
        <time>2021-03-12T20:58:46.679Z</time>
      </trkpt>
      <trkpt lat="42.0848419703543" lon="-8.63781097345054">
        <ele>21.416446685791016</ele>
        <time>2021-03-12T20:59:10.069Z</time>
      </trkpt>
      <trkpt lat="42.0856019575149" lon="-8.63705391995609">
        <ele>14.055274963378906</ele>
        <time>2021-03-12T20:59:33.484Z</time>
      </trkpt>
      <trkpt lat="42.0863119885325" lon="-8.63745993934572">
        <ele>15.333883285522461</ele>
        <time>2021-03-12T20:59:56.920Z</time>
      </trkpt>
      <trkpt lat="42.0867719873786" lon="-8.6382189206779">
        <ele>12.373734474182129</ele>
        <time>2021-03-12T21:00:20.375Z</time>
      </trkpt>
      <trkpt lat="42.0876119378954" lon="-8.63894496113062">
        <ele>11.243545532226562</ele>
        <time>2021-03-12T21:00:43.857Z</time>
      </trkpt>
      <trkpt lat="42.0889939460903" lon="-8.63933396525681">
        <ele>13.795105934143066</ele>
        <time>2021-03-12T21:01:07.377Z</time>
      </trkpt>
      <trkpt lat="42.0894059166312" lon="-8.63932994194329">
        <ele>13.937308311462402</ele>
        <time>2021-03-12T21:01:30.908Z</time>
      </trkpt>
      <trkpt lat="42.0897949207574" lon="-8.63910798914731">
        <ele>13.40471076965332</ele>
        <time>2021-03-12T21:01:54.450Z</time>
      </trkpt>
      <trkpt lat="42.0905459392816" lon="-8.63927596248686">
        <ele>15.825787544250488</ele>
        <time>2021-03-12T21:02:18.012Z</time>
      </trkpt>
      <trkpt lat="42.0920089166611" lon="-8.63926799967885">
        <ele>20.334108352661133</ele>
        <time>2021-03-12T21:02:41.613Z</time>
      </trkpt>
      <trkpt lat="42.0939989481121" lon="-8.63870792090893">
        <ele>21.565044403076172</ele>
        <time>2021-03-12T21:03:05.268Z</time>
      </trkpt>
      <trkpt lat="42.0947909541428" lon="-8.6383069306612">
        <ele>25.20320701599121</ele>
        <time>2021-03-12T21:03:28.946Z</time>
      </trkpt>
      <trkpt lat="42.095438959077" lon="-8.63841799087822">
        <ele>27.8382625579834</ele>
        <time>2021-03-12T21:03:52.641Z</time>
      </trkpt>
      <trkpt lat="42.0954649429768" lon="-8.64012295380235">
        <ele>26.911272048950195</ele>
        <time>2021-03-12T21:04:16.370Z</time>
      </trkpt>
      <trkpt lat="42.0956289768219" lon="-8.64089299924672">
        <ele>27.003589630126953</ele>
        <time>2021-03-12T21:04:40.115Z</time>
      </trkpt>
      <trkpt lat="42.0965089928359" lon="-8.64148895256221">
        <ele>29.446788787841797</ele>
        <time>2021-03-12T21:05:03.886Z</time>
      </trkpt>
      <trkpt lat="42.0973559841514" lon="-8.64136498421431">
        <ele>34.12687683105469</ele>
        <time>2021-03-12T21:05:27.680Z</time>
      </trkpt>
      <trkpt lat="42.0974339358509" lon="-8.64083197899163">
        <ele>35.22920227050781</ele>
        <time>2021-03-12T21:05:51.485Z</time>
      </trkpt>
      <trkpt lat="42.0971879269928" lon="-8.64004491828382">
        <ele>34.476165771484375</ele>
        <time>2021-03-12T21:06:15.307Z</time>
      </trkpt>
      <trkpt lat="42.0973279885948" lon="-8.63958491943777">
        <ele>34.04453659057617</ele>
        <time>2021-03-12T21:06:39.139Z</time>
      </trkpt>
      <trkpt lat="42.0977069344372" lon="-8.63941594026983">
        <ele>33.81516647338867</ele>
        <time>2021-03-12T21:07:02.981Z</time>
      </trkpt>
      <trkpt lat="42.0982489921153" lon="-8.63992497324944">
        <ele>35.0477180480957</ele>
        <time>2021-03-12T21:07:26.841Z</time>
      </trkpt>
      <trkpt lat="42.0986559335142" lon="-8.63883993588388">
        <ele>26.318952560424805</ele>
        <time>2021-03-12T21:07:50.725Z</time>
      </trkpt>
      <trkpt lat="42.0991909503937" lon="-8.63799596205354">
        <ele>17.973098754882812</ele>
        <time>2021-03-12T21:08:14.631Z</time>
      </trkpt>
      <trkpt lat="42.0995899289846" lon="-8.6381639353931">
        <ele>15.182706832885742</ele>
        <time>2021-03-12T21:08:38.548Z</time>
      </trkpt>
      <trkpt lat="42.0997459162027" lon="-8.63771894015372">
        <ele>12.647419929504395</ele>
        <time>2021-03-12T21:09:02.475Z</time>
      </trkpt>
      <trkpt lat="42.1005309652537" lon="-8.63732599653304">
        <ele>10.845417976379395</ele>
        <time>2021-03-12T21:09:26.424Z</time>
      </trkpt>
      <trkpt lat="42.1010009385645" lon="-8.63713094964623">
        <ele>11.50256061553955</ele>
        <time>2021-03-12T21:09:50.387Z</time>
      </trkpt>
      <trkpt lat="42.1021519415081" lon="-8.63705794326961">
        <ele>13.0</ele>
        <time>2021-03-12T21:10:14.380Z</time>
      </trkpt>
      <trkpt lat="42.1022969484329" lon="-8.63651496358216">
        <ele>12.591242790222168</ele>
        <time>2021-03-12T21:10:38.385Z</time>
      </trkpt>
      <trkpt lat="42.102106930688" lon="-8.63562597893178">
        <ele>16.338699340820312</ele>
        <time>2021-03-12T21:11:02.408Z</time>
      </trkpt>
      <trkpt lat="42.1012539882213" lon="-8.6347739584744">
        <ele>27.83465576171875</ele>
        <time>2021-03-12T21:11:26.459Z</time>
      </trkpt>
      <trkpt lat="42.1025519259274" lon="-8.63291694782674">
        <ele>33.85847473144531</ele>
        <time>2021-03-12T21:11:50.561Z</time>
      </trkpt>
      <trkpt lat="42.1032029483467" lon="-8.63226693123579">
        <ele>29.53855323791504</ele>
        <time>2021-03-12T21:12:14.685Z</time>
      </trkpt>
      <trkpt lat="42.1039139851928" lon="-8.63195395097136">
        <ele>29.93548011779785</ele>
        <time>2021-03-12T21:12:38.829Z</time>
      </trkpt>
      <trkpt lat="42.104770950973" lon="-8.63198295235634">
        <ele>35.556922912597656</ele>
        <time>2021-03-12T21:13:02.995Z</time>
      </trkpt>
      <trkpt lat="42.1050099190325" lon="-8.6327569372952">
        <ele>43.03305435180664</ele>
        <time>2021-03-12T21:13:27.178Z</time>
      </trkpt>
      <trkpt lat="42.1053939778358" lon="-8.63306698389351">
        <ele>43.3766975402832</ele>
        <time>2021-03-12T21:13:51.373Z</time>
      </trkpt>
      <trkpt lat="42.1063229441643" lon="-8.63323093391955">
        <ele>44.3299674987793</ele>
        <time>2021-03-12T21:14:15.593Z</time>
      </trkpt>
      <trkpt lat="42.1069159638137" lon="-8.63350896164775">
        <ele>44.081790924072266</ele>
        <time>2021-03-12T21:14:39.830Z</time>
      </trkpt>
      <trkpt lat="42.1072329673916" lon="-8.63340091891587">
        <ele>41.92082595825195</ele>
        <time>2021-03-12T21:15:04.075Z</time>
      </trkpt>
      <trkpt lat="42.1070289518684" lon="-8.63115892745554">
        <ele>29.328840255737305</ele>
        <time>2021-03-12T21:15:28.365Z</time>
      </trkpt>
      <trkpt lat="42.1071749646217" lon="-8.6293809581548">
        <ele>28.9362735748291</ele>
        <time>2021-03-12T21:15:52.691Z</time>
      </trkpt>
      <trkpt lat="42.1077399887145" lon="-8.62826792523265">
        <ele>26.660564422607422</ele>
        <time>2021-03-12T21:16:17.043Z</time>
      </trkpt>
      <trkpt lat="42.108692927286" lon="-8.62805594690144">
        <ele>23.865230560302734</ele>
        <time>2021-03-12T21:16:41.421Z</time>
      </trkpt>
      <trkpt lat="42.108758976683" lon="-8.62571395933628">
        <ele>23.645017623901367</ele>
        <time>2021-03-12T21:17:05.846Z</time>
      </trkpt>
      <trkpt lat="42.1088949311525" lon="-8.62561899237335">
        <ele>22.992544174194336</ele>
        <time>2021-03-12T21:17:30.275Z</time>
      </trkpt>
      <trkpt lat="42.1321619208902" lon="-8.62685792148113">
        <ele>27.67039680480957</ele>
        <time>2021-03-12T21:17:55.325Z</time>
      </trkpt>
      <trkpt lat="42.1323679480702" lon="-8.62675599753857">
        <ele>28.659160614013672</ele>
        <time>2021-03-12T21:18:20.380Z</time>
      </trkpt>
      <trkpt lat="42.1327659208328" lon="-8.62580196931958">
        <ele>29.12800407409668</ele>
        <time>2021-03-12T21:18:45.457Z</time>
      </trkpt>
      <trkpt lat="42.136537944898" lon="-8.62372593954206">
        <ele>25.41106605529785</ele>
        <time>2021-03-12T21:19:10.643Z</time>
      </trkpt>
      <trkpt lat="42.1367929223925" lon="-8.62344891764224">
        <ele>24.829200744628906</ele>
        <time>2021-03-12T21:19:35.838Z</time>
      </trkpt>
      <trkpt lat="42.1370759792626" lon="-8.6234369315207">
        <ele>24.800439834594727</ele>
        <time>2021-03-12T21:20:01.040Z</time>
      </trkpt>
      <trkpt lat="42.1365549601614" lon="-8.62317399121821">
        <ele>24.93836784362793</ele>
        <time>2021-03-12T21:20:26.257Z</time>
      </trkpt>
      <trkpt lat="42.1380129922181" lon="-8.62286997959018">
        <ele>22.752267837524414</ele>
        <time>2021-03-12T21:20:51.513Z</time>
      </trkpt>
      <trkpt lat="42.1486979909241" lon="-8.62214896827936">
        <ele>29.160627365112305</ele>
        <time>2021-03-12T21:21:17.054Z</time>
      </trkpt>
      <trkpt lat="42.1528729330748" lon="-8.62082295119762">
        <ele>26.708101272583008</ele>
        <time>2021-03-12T21:21:42.710Z</time>
      </trkpt>
      <trkpt lat="42.15661293827" lon="-8.61936097964644">
        <ele>29.003931045532227</ele>
        <time>2021-03-12T21:22:08.470Z</time>
      </trkpt>
      <trkpt lat="42.1588569413871" lon="-8.61959491856396">
        <ele>35.20399475097656</ele>
        <time>2021-03-12T21:22:34.290Z</time>
      </trkpt>
      <trkpt lat="42.161192977801" lon="-8.61901799216866">
        <ele>44.30043411254883</ele>
        <time>2021-03-12T21:23:00.173Z</time>
      </trkpt>
      <trkpt lat="42.1617939602584" lon="-8.62108899280429">
        <ele>36.0244255065918</ele>
        <time>2021-03-12T21:23:26.100Z</time>
      </trkpt>
      <trkpt lat="42.1620019990951" lon="-8.62125797197223">
        <ele>35.50992965698242</ele>
        <time>2021-03-12T21:23:52.034Z</time>
      </trkpt>
      <trkpt lat="42.1628279518336" lon="-8.62147296778858">
        <ele>34.916847229003906</ele>
        <time>2021-03-12T21:24:17.990Z</time>
      </trkpt>
      <trkpt lat="42.1637199539691" lon="-8.62106594257057">
        <ele>35.4135627746582</ele>
        <time>2021-03-12T21:24:43.971Z</time>
      </trkpt>
      <trkpt lat="42.1649039816111" lon="-8.62090392038226">
        <ele>35.41666030883789</ele>
        <time>2021-03-12T21:25:09.984Z</time>
      </trkpt>
      <trkpt lat="42.1660209540278" lon="-8.62037292681634">
        <ele>39.97889709472656</ele>
        <time>2021-03-12T21:25:36.028Z</time>
      </trkpt>
      <trkpt lat="42.1664369478822" lon="-8.62041693180799">
        <ele>41.12983322143555</ele>
        <time>2021-03-12T21:26:02.084Z</time>
      </trkpt>
      <trkpt lat="42.1697219833732" lon="-8.61952995881438">
        <ele>47.68513870239258</ele>
        <time>2021-03-12T21:26:28.229Z</time>
      </trkpt>
      <trkpt lat="42.1695699356496" lon="-8.61941395327449">
        <ele>48.60672378540039</ele>
        <time>2021-03-12T21:26:54.378Z</time>
      </trkpt>
      <trkpt lat="42.169710919261" lon="-8.61891095526516">
        <ele>49.09226989746094</ele>
        <time>2021-03-12T21:27:20.538Z</time>
      </trkpt>
      <trkpt lat="42.1722159348428" lon="-8.61790093593299">
        <ele>52.21053695678711</ele>
        <time>2021-03-12T21:27:46.768Z</time>
      </trkpt>
      <trkpt lat="42.1729249600321" lon="-8.61738695763052">
        <ele>53.1337776184082</ele>
        <time>2021-03-12T21:28:13.019Z</time>
      </trkpt>
      <trkpt lat="42.1734019741416" lon="-8.61678899265826">
        <ele>54.31298828125</ele>
        <time>2021-03-12T21:28:39.288Z</time>
      </trkpt>
      <trkpt lat="42.17559392564" lon="-8.61560094170272">
        <ele>54.124610900878906</ele>
        <time>2021-03-12T21:29:05.620Z</time>
      </trkpt>
      <trkpt lat="42.1775499265641" lon="-8.61509894952178">
        <ele>52.16650390625</ele>
        <time>2021-03-12T21:29:32.005Z</time>
      </trkpt>
      <trkpt lat="42.1777519304305" lon="-8.61574192531407">
        <ele>46.6612434387207</ele>
        <time>2021-03-12T21:29:58.404Z</time>
      </trkpt>
      <trkpt lat="42.1802369970828" lon="-8.61347596161067">
        <ele>52.675819396972656</ele>
        <time>2021-03-12T21:30:24.883Z</time>
      </trkpt>
      <trkpt lat="42.1809709165245" lon="-8.61322299577296">
        <ele>53.77417755126953</ele>
        <time>2021-03-12T21:30:51.382Z</time>
      </trkpt>
      <trkpt lat="42.18331893906" lon="-8.61357394605875">
        <ele>49.27980422973633</ele>
        <time>2021-03-12T21:31:17.944Z</time>
      </trkpt>
      <trkpt lat="42.1839079353958" lon="-8.61421599984169">
        <ele>44.426361083984375</ele>
        <time>2021-03-12T21:31:44.526Z</time>
      </trkpt>
      <trkpt lat="42.1841009706259" lon="-8.61475797370076">
        <ele>45.99034118652344</ele>
        <time>2021-03-12T21:32:11.120Z</time>
      </trkpt>
      <trkpt lat="42.1836589928716" lon="-8.61524797976017">
        <ele>47.99690246582031</ele>
        <time>2021-03-12T21:32:37.729Z</time>
      </trkpt>
      <trkpt lat="42.1834339387715" lon="-8.61681698821485">
        <ele>58.60429000854492</ele>
        <time>2021-03-12T21:33:04.370Z</time>
      </trkpt>
      <trkpt lat="42.1831179410219" lon="-8.61761796288192">
        <ele>60.446510314941406</ele>
        <time>2021-03-12T21:33:31.029Z</time>
      </trkpt>
      <trkpt lat="42.183437962085" lon="-8.61825892701745">
        <ele>63.44013977050781</ele>
        <time>2021-03-12T21:33:57.703Z</time>
      </trkpt>
      <trkpt lat="42.1840449795127" lon="-8.61839395947754">
        <ele>65.38277435302734</ele>
        <time>2021-03-12T21:34:24.394Z</time>
      </trkpt>
      <trkpt lat="42.1848269272596" lon="-8.61786296591163">
        <ele>65.8214340209961</ele>
        <time>2021-03-12T21:34:51.108Z</time>
      </trkpt>
      <trkpt lat="42.1864999551326" lon="-8.6152879614383">
        <ele>55.18800735473633</ele>
        <time>2021-03-12T21:35:17.890Z</time>
      </trkpt>
      <trkpt lat="42.1878279838711" lon="-8.61472494900227">
        <ele>50.94789123535156</ele>
        <time>2021-03-12T21:35:44.709Z</time>
      </trkpt>
      <trkpt lat="42.1883929241449" lon="-8.61471497453749">
        <ele>50.504085540771484</ele>
        <time>2021-03-12T21:36:11.543Z</time>
      </trkpt>
      <trkpt lat="42.1889419388026" lon="-8.61418892629445">
        <ele>54.94705581665039</ele>
        <time>2021-03-12T21:36:38.395Z</time>
      </trkpt>
      <trkpt lat="42.18954292126" lon="-8.61322391778231">
        <ele>60.52001953125</ele>
        <time>2021-03-12T21:37:05.272Z</time>
      </trkpt>
      <trkpt lat="42.1899969689548" lon="-8.61288193613291">
        <ele>65.88037872314453</ele>
        <time>2021-03-12T21:37:32.163Z</time>
      </trkpt>
      <trkpt lat="42.1908079180866" lon="-8.612572979182">
        <ele>63.71030807495117</ele>
        <time>2021-03-12T21:37:59.076Z</time>
      </trkpt>
      <trkpt lat="42.1913139335811" lon="-8.61256895586848">
        <ele>61.16890335083008</ele>
        <time>2021-03-12T21:38:26.003Z</time>
      </trkpt>
      <trkpt lat="42.1927779167891" lon="-8.61162297427654">
        <ele>55.81318664550781</ele>
        <time>2021-03-12T21:38:52.973Z</time>
      </trkpt>
      <trkpt lat="42.1934679988772" lon="-8.61073499545455">
        <ele>53.32087326049805</ele>
        <time>2021-03-12T21:39:19.969Z</time>
      </trkpt>
      <trkpt lat="42.1952209901065" lon="-8.60995598137379">
        <ele>53.15494155883789</ele>
        <time>2021-03-12T21:39:47.014Z</time>
      </trkpt>
      <trkpt lat="42.197082946077" lon="-8.60940294340253">
        <ele>54.928504943847656</ele>
        <time>2021-03-12T21:40:14.110Z</time>
      </trkpt>
      <trkpt lat="42.1980859246105" lon="-8.60856994986534">
        <ele>54.12562942504883</ele>
        <time>2021-03-12T21:40:41.237Z</time>
      </trkpt>
      <trkpt lat="42.1999859344214" lon="-8.60889793373644">
        <ele>64.36572265625</ele>
        <time>2021-03-12T21:41:08.415Z</time>
      </trkpt>
      <trkpt lat="42.2004909440875" lon="-8.60863499343395">
        <ele>64.5810317993164</ele>
        <time>2021-03-12T21:41:35.607Z</time>
      </trkpt>
      <trkpt lat="42.2009319998324" lon="-8.60869098454714">
        <ele>69.9273910522461</ele>
        <time>2021-03-12T21:42:02.811Z</time>
      </trkpt>
      <trkpt lat="42.201863983646" lon="-8.60772899352014">
        <ele>78.46499633789062</ele>
        <time>2021-03-12T21:42:30.047Z</time>
      </trkpt>
      <trkpt lat="42.2024779580534" lon="-8.60664999112487">
        <ele>78.57699584960938</ele>
        <time>2021-03-12T21:42:57.310Z</time>
      </trkpt>
      <trkpt lat="42.2032399568707" lon="-8.60600399784744">
        <ele>80.43389892578125</ele>
        <time>2021-03-12T21:43:24.597Z</time>
      </trkpt>
      <trkpt lat="42.2039109282196" lon="-8.60570291988552">
        <ele>80.98982238769531</ele>
        <time>2021-03-12T21:43:51.902Z</time>
      </trkpt>
      <trkpt lat="42.2047059517354" lon="-8.60630096867681">
        <ele>94.21656036376953</ele>
        <time>2021-03-12T21:44:19.232Z</time>
      </trkpt>
      <trkpt lat="42.2053909208626" lon="-8.60621597617865">
        <ele>100.84573364257812</ele>
        <time>2021-03-12T21:44:46.580Z</time>
      </trkpt>
      <trkpt lat="42.2060989402235" lon="-8.60646491870284">
        <ele>111.62423706054688</ele>
        <time>2021-03-12T21:45:13.948Z</time>
      </trkpt>
      <trkpt lat="42.2069789562374" lon="-8.60708895139396">
        <ele>124.17660522460938</ele>
        <time>2021-03-12T21:45:41.342Z</time>
      </trkpt>
      <trkpt lat="42.2089509665966" lon="-8.60893196426332">
        <ele>149.0726318359375</ele>
        <time>2021-03-12T21:46:08.800Z</time>
      </trkpt>
      <trkpt lat="42.2124099265784" lon="-8.60949397087097">
        <ele>149.02210998535156</ele>
        <time>2021-03-12T21:46:36.351Z</time>
      </trkpt>
      <trkpt lat="42.214028974995" lon="-8.60930495895445">
        <ele>143.48387145996094</ele>
        <time>2021-03-12T21:47:03.945Z</time>
      </trkpt>
      <trkpt lat="42.2147379163653" lon="-8.60889893956482">
        <ele>143.0</ele>
        <time>2021-03-12T21:47:31.560Z</time>
      </trkpt>
      <trkpt lat="42.2155069559813" lon="-8.60816493630409">
        <ele>145.96234130859375</ele>
        <time>2021-03-12T21:47:59.200Z</time>
      </trkpt>
      <trkpt lat="42.2175199538469" lon="-8.60751399770379">
        <ele>141.97203063964844</ele>
        <time>2021-03-12T21:48:26.895Z</time>
      </trkpt>
      <trkpt lat="42.220355970785" lon="-8.60771097242832">
        <ele>167.73800659179688</ele>
        <time>2021-03-12T21:48:54.666Z</time>
      </trkpt>
      <trkpt lat="42.2214859351516" lon="-8.6081419698894">
        <ele>180.089599609375</ele>
        <time>2021-03-12T21:49:22.468Z</time>
      </trkpt>
      <trkpt lat="42.2226149775088" lon="-8.60807198099792">
        <ele>194.18348693847656</ele>
        <time>2021-03-12T21:49:50.300Z</time>
      </trkpt>
      <trkpt lat="42.2231589630246" lon="-8.60748591832817">
        <ele>196.8241424560547</ele>
        <time>2021-03-12T21:50:18.151Z</time>
      </trkpt>
      <trkpt lat="42.2242459282279" lon="-8.60676893033087">
        <ele>204.31167602539062</ele>
        <time>2021-03-12T21:50:46.034Z</time>
      </trkpt>
      <trkpt lat="42.2252919897437" lon="-8.60610994510353">
        <ele>204.6678009033203</ele>
        <time>2021-03-12T21:51:13.948Z</time>
      </trkpt>
      <trkpt lat="42.2258269228041" lon="-8.60598497092724">
        <ele>203.62753295898438</ele>
        <time>2021-03-12T21:51:41.876Z</time>
      </trkpt>
      <trkpt lat="42.2274349909276" lon="-8.60710496082902">
        <ele>214.71844482421875</ele>
        <time>2021-03-12T21:52:09.853Z</time>
      </trkpt>
      <trkpt lat="42.228146949783" lon="-8.60933496616781">
        <ele>229.49327087402344</ele>
        <time>2021-03-12T21:52:37.878Z</time>
      </trkpt>
      <trkpt lat="42.2290649358183" lon="-8.61069392412901">
        <ele>228.7095184326172</ele>
        <time>2021-03-12T21:53:05.939Z</time>
      </trkpt>
      <trkpt lat="42.2295109368861" lon="-8.61100497655571">
        <ele>227.93743896484375</ele>
        <time>2021-03-12T21:53:34.014Z</time>
      </trkpt>
      <trkpt lat="42.2300059720874" lon="-8.61111494712532">
        <ele>227.93910217285156</ele>
        <time>2021-03-12T21:54:02.102Z</time>
      </trkpt>
      <trkpt lat="42.2315719630569" lon="-8.61253593116999">
        <ele>222.89588928222656</ele>
        <time>2021-03-12T21:54:30.240Z</time>
      </trkpt>
      <trkpt lat="42.2319439519197" lon="-8.61237298697233">
        <ele>219.68350219726562</ele>
        <time>2021-03-12T21:54:58.389Z</time>
      </trkpt>
      <trkpt lat="42.2337749786675" lon="-8.61285293474793">
        <ele>209.68988037109375</ele>
        <time>2021-03-12T21:55:26.587Z</time>
      </trkpt>
      <trkpt lat="42.2350339405239" lon="-8.61357998102903">
        <ele>204.7935028076172</ele>
        <time>2021-03-12T21:55:54.822Z</time>
      </trkpt>
      <trkpt lat="42.2355719748884" lon="-8.61368995159864">
        <ele>202.98883056640625</ele>
        <time>2021-03-12T21:56:23.071Z</time>
      </trkpt>
      <trkpt lat="42.239024983719" lon="-8.61284296028316">
        <ele>196.1180877685547</ele>
        <time>2021-03-12T21:56:51.414Z</time>
      </trkpt>
      <trkpt lat="42.239986974746" lon="-8.61220492981374">
        <ele>193.27964782714844</ele>
        <time>2021-03-12T21:57:19.786Z</time>
      </trkpt>
      <trkpt lat="42.2416119743139" lon="-8.61034699715674">
        <ele>183.25181579589844</ele>
        <time>2021-03-12T21:57:48.214Z</time>
      </trkpt>
      <trkpt lat="42.241741977632" lon="-8.61083893105388">
        <ele>184.0686492919922</ele>
        <time>2021-03-12T21:58:16.653Z</time>
      </trkpt>
      <trkpt lat="42.2438679635525" lon="-8.61053693108261">
        <ele>188.1915283203125</ele>
        <time>2021-03-12T21:58:45.149Z</time>
      </trkpt>
      <trkpt lat="42.2458339389414" lon="-8.60985095612705">
        <ele>177.44589233398438</ele>
        <time>2021-03-12T21:59:13.699Z</time>
      </trkpt>
      <trkpt lat="42.247489951551" lon="-8.61066794022918">
        <ele>175.87820434570312</ele>
        <time>2021-03-12T21:59:42.296Z</time>
      </trkpt>
      <trkpt lat="42.2486809361726" lon="-8.61098997294903">
        <ele>176.2301025390625</ele>
        <time>2021-03-12T22:00:10.925Z</time>
      </trkpt>
      <trkpt lat="42.2494639735669" lon="-8.61082593910396">
        <ele>164.8587646484375</ele>
        <time>2021-03-12T22:00:39.575Z</time>
      </trkpt>
      <trkpt lat="42.251292988658" lon="-8.61145994625986">
        <ele>130.98919677734375</ele>
        <time>2021-03-12T22:01:08.276Z</time>
      </trkpt>
      <trkpt lat="42.2517349664122" lon="-8.61120798625052">
        <ele>121.16397857666016</ele>
        <time>2021-03-12T22:01:36.990Z</time>
      </trkpt>
      <trkpt lat="42.2521939594299" lon="-8.61124997958541">
        <ele>107.79602813720703</ele>
        <time>2021-03-12T22:02:05.716Z</time>
      </trkpt>
      <trkpt lat="42.252944977954" lon="-8.61020592972636">
        <ele>93.81072998046875</ele>
        <time>2021-03-12T22:02:34.471Z</time>
      </trkpt>
      <trkpt lat="42.2537749540061" lon="-8.61066894605756">
        <ele>76.05976867675781</ele>
        <time>2021-03-12T22:03:03.250Z</time>
      </trkpt>
      <trkpt lat="42.2542639542371" lon="-8.60927193425596">
        <ele>60.49139404296875</ele>
        <time>2021-03-12T22:03:32.059Z</time>
      </trkpt>
      <trkpt lat="42.255045985803" lon="-8.60999596305192">
        <ele>48.27267074584961</ele>
        <time>2021-03-12T22:04:00.894Z</time>
      </trkpt>
      <trkpt lat="42.2555939946324" lon="-8.61001498997211">
        <ele>43.112186431884766</ele>
        <time>2021-03-12T22:04:29.743Z</time>
      </trkpt>
      <trkpt lat="42.2570309881121" lon="-8.60895593650639">
        <ele>39.37651062011719</ele>
        <time>2021-03-12T22:04:58.636Z</time>
      </trkpt>
      <trkpt lat="42.2589809540659" lon="-8.60814297571778">
        <ele>39.744903564453125</ele>
        <time>2021-03-12T22:05:27.583Z</time>
      </trkpt>
      <trkpt lat="42.2597799170762" lon="-8.60786796547472">
        <ele>37.325531005859375</ele>
        <time>2021-03-12T22:05:56.552Z</time>
      </trkpt>
      <trkpt lat="42.2611199319363" lon="-8.60791197046638">
        <ele>33.29793930053711</ele>
        <time>2021-03-12T22:06:25.557Z</time>
      </trkpt>
      <trkpt lat="42.2622649837285" lon="-8.60756797716022">
        <ele>36.04631805419922</ele>
        <time>2021-03-12T22:06:54.593Z</time>
      </trkpt>
      <trkpt lat="42.263095965609" lon="-8.60788992606103">
        <ele>32.80527877807617</ele>
        <time>2021-03-12T22:07:23.652Z</time>
      </trkpt>
      <trkpt lat="42.2654379531741" lon="-8.60834699124098">
        <ele>33.31220245361328</ele>
        <time>2021-03-12T22:07:52.774Z</time>
      </trkpt>
      <trkpt lat="42.2705159615725" lon="-8.61100598238409">
        <ele>24.086599349975586</ele>
        <time>2021-03-12T22:08:22.042Z</time>
      </trkpt>
      <trkpt lat="42.2708459571004" lon="-8.61096792854369">
        <ele>24.23788070678711</ele>
        <time>2021-03-12T22:08:51.318Z</time>
      </trkpt>
      <trkpt lat="42.2718709800392" lon="-8.61028295941651">
        <ele>26.47426414489746</ele>
        <time>2021-03-12T22:09:20.625Z</time>
      </trkpt>
      <trkpt lat="42.2769829351455" lon="-8.61030299216509">
        <ele>14.873215675354004</ele>
        <time>2021-03-12T22:09:50.068Z</time>
      </trkpt>
      <trkpt lat="42.2784499358386" lon="-8.60995698720217">
        <ele>18.91431999206543</ele>
        <time>2021-03-12T22:10:19.551Z</time>
      </trkpt>
      <trkpt lat="42.2787669394165" lon="-8.61003695055842">
        <ele>17.18739891052246</ele>
        <time>2021-03-12T22:10:49.043Z</time>
      </trkpt>
      <trkpt lat="42.2791799996048" lon="-8.61043299548328">
        <ele>12.331207275390625</ele>
        <time>2021-03-12T22:11:18.548Z</time>
      </trkpt>
      <trkpt lat="42.2801959700882" lon="-8.61049996688962">
        <ele>12.992329597473145</ele>
        <time>2021-03-12T22:11:48.080Z</time>
      </trkpt>
      <trkpt lat="42.2807509358972" lon="-8.61027298495173">
        <ele>11.89388370513916</ele>
        <time>2021-03-12T22:12:17.628Z</time>
      </trkpt>
      <trkpt lat="42.2809239383787" lon="-8.60963193699718">
        <ele>12.15227222442627</ele>
        <time>2021-03-12T22:12:47.189Z</time>
      </trkpt>
      <trkpt lat="42.2815519943833" lon="-8.60892198979855">
        <ele>12.905814170837402</ele>
        <time>2021-03-12T22:13:16.772Z</time>
      </trkpt>
      <trkpt lat="42.2820549923927" lon="-8.60896792262793">
        <ele>12.441075325012207</ele>
        <time>2021-03-12T22:13:46.368Z</time>
      </trkpt>
      <trkpt lat="42.282195976004" lon="-8.60863398760557">
        <ele>12.321537017822266</ele>
        <time>2021-03-12T22:14:15.972Z</time>
      </trkpt>
      <trkpt lat="42.2827279753983" lon="-8.60820994712412">
        <ele>12.950268745422363</ele>
        <time>2021-03-12T22:14:45.593Z</time>
      </trkpt>
      <trkpt lat="42.283733971417" lon="-8.6077899299562">
        <ele>15.66666030883789</ele>
        <time>2021-03-12T22:15:15.242Z</time>
      </trkpt>
      <trkpt lat="42.2843759413809" lon="-8.60786293633282">
        <ele>16.594717025756836</ele>
        <time>2021-03-12T22:15:44.908Z</time>
      </trkpt>
      <trkpt lat="42.2854039818048" lon="-8.60758692026138">
        <ele>23.625829696655273</ele>
        <time>2021-03-12T22:16:14.602Z</time>
      </trkpt>
      <trkpt lat="42.2862349636853" lon="-8.60770099796355">
        <ele>26.419742584228516</ele>
        <time>2021-03-12T22:16:44.318Z</time>
      </trkpt>
      <trkpt lat="42.2876549419016" lon="-8.60840197652578">
        <ele>17.145992279052734</ele>
        <time>2021-03-12T22:17:14.074Z</time>
      </trkpt>
      <trkpt lat="42.2881139349192" lon="-8.60843994654715">
        <ele>12.421497344970703</ele>
        <time>2021-03-12T22:17:43.843Z</time>
      </trkpt>
      <trkpt lat="42.2883269190788" lon="-8.60870397649705">
        <ele>8.761387825012207</ele>
        <time>2021-03-12T22:18:13.619Z</time>
      </trkpt>
      <trkpt lat="42.2887319326401" lon="-8.60858897678554">
        <ele>11.047053337097168</ele>
        <time>2021-03-12T22:18:43.406Z</time>
      </trkpt>
      <trkpt lat="42.2887809667736" lon="-8.60870397649705">
        <ele>10.395687103271484</ele>
        <time>2021-03-12T22:19:13.196Z</time>
      </trkpt>
      <trkpt lat="42.29382192716" lon="-8.60738491639495">
        <ele>5.268291473388672</ele>
        <time>2021-03-12T22:19:43.123Z</time>
      </trkpt>
      <trkpt lat="42.2940659243613" lon="-8.60754492692649">
        <ele>5.7530198097229</ele>
        <time>2021-03-12T22:20:13.057Z</time>
      </trkpt>
      <trkpt lat="42.2946829162538" lon="-8.60879399813712">
        <ele>13.975767135620117</ele>
        <time>2021-03-12T22:20:43.021Z</time>
      </trkpt>
      <trkpt lat="42.2960269544274" lon="-8.61012998968363">
        <ele>22.48029327392578</ele>
        <time>2021-03-12T22:21:13.029Z</time>
      </trkpt>
      <trkpt lat="42.2962449677289" lon="-8.61026795580983">
        <ele>22.368310928344727</ele>
        <time>2021-03-12T22:21:43.044Z</time>
      </trkpt>
      <trkpt lat="42.2972679790109" lon="-8.61015094444156">
        <ele>23.15753173828125</ele>
        <time>2021-03-12T22:22:13.086Z</time>
      </trkpt>
      <trkpt lat="42.2983389347792" lon="-8.60968097113073">
        <ele>19.884897232055664</ele>
        <time>2021-03-12T22:22:43.158Z</time>
      </trkpt>
      <trkpt lat="42.29834953400218" lon="-8.609687089920046">
        <ele>19.953857421875</ele>
        <time>2021-03-12T22:23:13.230Z</time>
      </trkpt>
      <trkpt lat="42.29942082937155" lon="-8.609493970870973">
        <ele>24.971269607543945</ele>
        <time>2021-03-12T22:23:43.331Z</time>
      </trkpt>
      <trkpt lat="42.299531925626056" lon="-8.610888719558718">
        <ele>25.981792449951172</ele>
        <time>2021-03-12T22:24:13.460Z</time>
      </trkpt>
      <trkpt lat="42.299682698800844" lon="-8.61107110977173">
        <ele>27.827255249023438</ele>
        <time>2021-03-12T22:24:43.594Z</time>
      </trkpt>
      <trkpt lat="42.3019283828266" lon="-8.610802888870241">
        <ele>34.25810623168945</ele>
        <time>2021-03-12T22:25:13.788Z</time>
      </trkpt>
      <trkpt lat="42.3023747327421" lon="-8.611269593238832">
        <ele>32.650203704833984</ele>
        <time>2021-03-12T22:25:43.998Z</time>
      </trkpt>
      <trkpt lat="42.30328924424133" lon="-8.612329065799715">
        <ele>27.680326461791992</ele>
        <time>2021-03-12T22:26:14.240Z</time>
      </trkpt>
      <trkpt lat="42.303874445280776" lon="-8.612959384918215">
        <ele>28.430801391601562</ele>
        <time>2021-03-12T22:26:44.502Z</time>
      </trkpt>
      <trkpt lat="42.30651274174593" lon="-8.614509701728823">
        <ele>25.564634323120117</ele>
        <time>2021-03-12T22:27:14.840Z</time>
      </trkpt>
      <trkpt lat="42.309339365266396" lon="-8.616062700748445">
        <ele>23.38042449951172</ele>
        <time>2021-03-12T22:27:45.260Z</time>
      </trkpt>
      <trkpt lat="42.30989475707334" lon="-8.616293370723726">
        <ele>28.08647918701172</ele>
        <time>2021-03-12T22:28:15.695Z</time>
      </trkpt>
      <trkpt lat="42.310400556062476" lon="-8.616660833358766">
        <ele>29.998943328857422</ele>
        <time>2021-03-12T22:28:46.146Z</time>
      </trkpt>
      <trkpt lat="42.31056518779787" lon="-8.617087304592134">
        <ele>27.618791580200195</ele>
        <time>2021-03-12T22:29:16.606Z</time>
      </trkpt>
      <trkpt lat="42.3107556046897" lon="-8.619651496410372">
        <ele>2.3387839794158936</ele>
        <time>2021-03-12T22:29:47.117Z</time>
      </trkpt>
      <trkpt lat="42.310158566464956" lon="-8.620086014270784">
        <ele>2.0124411582946777</ele>
        <time>2021-03-12T22:30:17.646Z</time>
      </trkpt>
      <trkpt lat="42.30931357909918" lon="-8.620206713676454">
        <ele>2.7612311840057373</ele>
        <time>2021-03-12T22:30:48.198Z</time>
      </trkpt>
      <trkpt lat="42.308924801759325" lon="-8.620716333389284">
        <ele>2.1116631031036377</ele>
        <time>2021-03-12T22:31:18.764Z</time>
      </trkpt>
      <trkpt lat="42.30778424213693" lon="-8.61980438232422">
        <ele>2.216644525527954</ele>
        <time>2021-03-12T22:31:49.366Z</time>
      </trkpt>
      <trkpt lat="42.30782391412287" lon="-8.619664907455446">
        <ele>2.4791834354400635</ele>
        <time>2021-03-12T22:32:19.971Z</time>
      </trkpt>
      <trkpt lat="42.30780209453369" lon="-8.61980438232422">
        <ele>2.8239946365356445</ele>
      </trkpt>
      <trkpt lat="42.308111535273234" lon="-8.620120882987978">
        <ele>2.393362045288086</ele>
      </trkpt>
      <trkpt lat="42.308609414296114" lon="-8.620568811893465">
        <ele>3.072812557220459</ele>
      </trkpt>
      <trkpt lat="42.30895653877503" lon="-8.620689511299135">
        <ele>2.6384153366088867</ele>
      </trkpt>
      <trkpt lat="42.309220352098784" lon="-8.620367646217348">
        <ele>3.0</ele>
      </trkpt>
      <trkpt lat="42.30936118432272" lon="-8.620195984840395">
        <ele>3.0</ele>
      </trkpt>
      <trkpt lat="42.30990864180571" lon="-8.620150387287142">
        <ele>2.1388509273529053</ele>
      </trkpt>
      <trkpt lat="42.310134764159216" lon="-8.620102107524874">
        <ele>1.3250365257263184</ele>
      </trkpt>
      <trkpt lat="42.31070403350503" lon="-8.619681000709535">
        <ele>2.26804518699646</ele>
      </trkpt>
      <trkpt lat="42.31062866015914" lon="-8.618991672992708">
        <ele>5.4978718757629395</ele>
      </trkpt>
      <trkpt lat="42.310531468079894" lon="-8.617800772190096">
        <ele>15.139952659606934</ele>
      </trkpt>
      <trkpt lat="42.310553286723" lon="-8.617242872714998">
        <ele>23.438438415527344</ele>
      </trkpt>
      <trkpt lat="42.31047592968151" lon="-8.616886138916017">
        <ele>27.91828727722168</ele>
      </trkpt>
      <trkpt lat="42.31030138011044" lon="-8.61656963825226">
        <ele>29.579364776611328</ele>
      </trkpt>
      <trkpt lat="42.30979756386087" lon="-8.61626520752907">
        <ele>24.607215881347656</ele>
      </trkpt>
      <trkpt lat="42.30974103304582" lon="-8.61626520752907">
        <ele>24.200307846069336</ele>
      </trkpt>
      <trkpt lat="42.30975392604321" lon="-8.616115003824236">
        <ele>26.118999481201172</ele>
      </trkpt>
      <trkpt lat="42.30969541164927" lon="-8.616053313016893">
        <ele>26.577577590942383</ele>
      </trkpt>
      <trkpt lat="42.310061373659835" lon="-8.616135120391847">
        <ele>29.583663940429688</ele>
      </trkpt>
      <trkpt lat="42.31048188022653" lon="-8.616204857826235">
        <ele>36.8814582824707</ele>
      </trkpt>
      <trkpt lat="42.310711967536186" lon="-8.616145849227907">
        <ele>40.230125427246094</ele>
      </trkpt>
      <trkpt lat="42.310961889005796" lon="-8.615663051605226">
        <ele>48.141292572021484</ele>
      </trkpt>
      <trkpt lat="42.31121974345023" lon="-8.614912033081056">
        <ele>55.45429229736328</ele>
      </trkpt>
      <trkpt lat="42.310382704402635" lon="-8.613501191139223">
        <ele>63.85486602783203</ele>
      </trkpt>
      <trkpt lat="42.31021608866669" lon="-8.612723350524904">
        <ele>62.45551300048828</ele>
      </trkpt>
      <trkpt lat="42.31039460550974" lon="-8.612508773803713">
        <ele>66.52142333984375</ele>
      </trkpt>
      <trkpt lat="42.31045014397991" lon="-8.612299561500551">
        <ele>68.09774017333984</ele>
      </trkpt>
      <trkpt lat="42.310581055894176" lon="-8.612476587295534">
        <ele>69.49027252197266</ele>
      </trkpt>
      <trkpt lat="42.31078337377162" lon="-8.612524867057802">
        <ele>74.05150604248047</ele>
      </trkpt>
      <trkpt lat="42.311263380251695" lon="-8.612288832664492">
        <ele>83.9474105834961</ele>
      </trkpt>
      <trkpt lat="42.3115371013163" lon="-8.612133264541628">
        <ele>89.76419830322266</ele>
      </trkpt>
      <trkpt lat="42.31178305256194" lon="-8.611752390861513">
        <ele>98.46346282958984</ele>
      </trkpt>
      <trkpt lat="42.311933796398726" lon="-8.611650466918947">
        <ele>103.23796081542969</ele>
      </trkpt>
      <trkpt lat="42.312116275297065" lon="-8.611988425254824">
        <ele>109.11060333251953</ele>
      </trkpt>
      <trkpt lat="42.312132143002366" lon="-8.612229824066164">
        <ele>109.77177429199219</ele>
      </trkpt>
      <trkpt lat="42.312036936710626" lon="-8.612433671951296">
        <ele>106.51824951171875</ele>
      </trkpt>
      <trkpt lat="42.31213610992805" lon="-8.612691164016725">
        <ele>108.69131469726562</ele>
      </trkpt>
      <trkpt lat="42.3123106544112" lon="-8.61283600330353">
        <ele>109.72156524658203</ele>
      </trkpt>
      <trkpt lat="42.312508999827216" lon="-8.6128306388855">
        <ele>111.6468505859375</ele>
      </trkpt>
      <trkpt lat="42.3131357672335" lon="-8.61233174800873">
        <ele>126.82318115234375</ele>
      </trkpt>
      <trkpt lat="42.31411160785961" lon="-8.611264228820803">
        <ele>142.68002319335938</ele>
      </trkpt>
      <trkpt lat="42.315448405619556" lon="-8.60957980155945">
        <ele>156.17649841308594</ele>
      </trkpt>
      <trkpt lat="42.316297277290225" lon="-8.609054088592531">
        <ele>152.26368713378906</ele>
      </trkpt>
      <trkpt lat="42.31633396891501" lon="-8.608492165803911">
        <ele>147.95486450195312</ele>
      </trkpt>
      <trkpt lat="42.316373635512356" lon="-8.608085811138155">
        <ele>146.74267578125</ele>
      </trkpt>
      <trkpt lat="42.316464868591346" lon="-8.608024120330812">
        <ele>146.52830505371094</ele>
      </trkpt>
      <trkpt lat="42.31656700981637" lon="-8.607755899429323">
        <ele>147.36187744140625</ele>
      </trkpt>
      <trkpt lat="42.31657593476989" lon="-8.607511818408968">
        <ele>148.27313232421875</ele>
      </trkpt>
      <trkpt lat="42.31756659674397" lon="-8.606929779052736">
        <ele>155.36843872070312</ele>
      </trkpt>
      <trkpt lat="42.3180703508053" lon="-8.60632359981537">
        <ele>147.3780059814453</ele>
      </trkpt>
      <trkpt lat="42.31839560719062" lon="-8.605991005897524">
        <ele>147.7683868408203</ele>
      </trkpt>
      <trkpt lat="42.31897075156203" lon="-8.60609829425812">
        <ele>143.97872924804688</ele>
      </trkpt>
      <trkpt lat="42.319593488160876" lon="-8.606275320053102">
        <ele>142.06967163085938</ele>
      </trkpt>
      <trkpt lat="42.320152755904495" lon="-8.606736660003664">
        <ele>133.7972412109375</ele>
      </trkpt>
      <trkpt lat="42.32067235481459" lon="-8.607460856437685">
        <ele>119.57992553710938</ele>
      </trkpt>
      <trkpt lat="42.321207814851014" lon="-8.60757887363434">
        <ele>116.18228912353516</ele>
      </trkpt>
      <trkpt lat="42.32214386737628" lon="-8.607289195060732">
        <ele>108.39146423339844</ele>
      </trkpt>
      <trkpt lat="42.323286149896774" lon="-8.607187271118166">
        <ele>93.52197265625</ele>
      </trkpt>
      <trkpt lat="42.32433322398896" lon="-8.607037067413332">
        <ele>85.31405639648438</ele>
      </trkpt>
      <trkpt lat="42.325185941908934" lon="-8.60681712627411">
        <ele>78.17001342773438</ele>
      </trkpt>
      <trkpt lat="42.325792752738685" lon="-8.606446981430055">
        <ele>68.45865631103516</ele>
      </trkpt>
      <trkpt lat="42.326046580369145" lon="-8.606227040290834">
        <ele>69.97525024414062</ele>
      </trkpt>
      <trkpt lat="42.326363863467016" lon="-8.606221675872805">
        <ele>64.24662780761719</ele>
      </trkpt>
      <trkpt lat="42.32653836848875" lon="-8.606173396110536">
        <ele>59.70377731323242</ele>
      </trkpt>
      <trkpt lat="42.32712930235361" lon="-8.605712056159975">
        <ele>55.47006607055664</ele>
      </trkpt>
      <trkpt lat="42.32760125225867" lon="-8.605508208274843">
        <ele>59.46836471557617</ele>
      </trkpt>
      <trkpt lat="42.32812872149185" lon="-8.605631589889528">
        <ele>62.77071762084961</ele>
      </trkpt>
      <trkpt lat="42.328505482521955" lon="-8.605808615684511">
        <ele>64.91567993164062</ele>
      </trkpt>
      <trkpt lat="42.32937004140796" lon="-8.606430888175966">
        <ele>66.48421478271484</ele>
      </trkpt>
      <trkpt lat="42.32988559839059" lon="-8.606666922569277">
        <ele>68.57360076904297</ele>
      </trkpt>
      <trkpt lat="42.33027424624562" lon="-8.606715202331545">
        <ele>73.58069610595703</ele>
      </trkpt>
      <trkpt lat="42.3307342752971" lon="-8.606758117675783">
        <ele>74.00470733642578</ele>
      </trkpt>
      <trkpt lat="42.33143224398475" lon="-8.606774210929872">
        <ele>68.11457061767578</ele>
      </trkpt>
      <trkpt lat="42.33193985271101" lon="-8.60681712627411">
        <ele>68.56513214111328</ele>
      </trkpt>
      <trkpt lat="42.332391938283834" lon="-8.606736660003664">
        <ele>68.2214584350586</ele>
      </trkpt>
      <trkpt lat="42.33274884565121" lon="-8.606768846511843">
        <ele>67.3516845703125</ele>
      </trkpt>
      <trkpt lat="42.33286781432363" lon="-8.606768846511843">
        <ele>66.49534606933594</ele>
      </trkpt>
      <trkpt lat="42.332919367345085" lon="-8.606978058815004">
        <ele>65.3373031616211</ele>
      </trkpt>
      <trkpt lat="42.33293919541904" lon="-8.607230186462404">
        <ele>65.5037612915039</ele>
      </trkpt>
      <trkpt lat="42.333030404478606" lon="-8.607299923896791">
        <ele>65.44098663330078</ele>
      </trkpt>
      <trkpt lat="42.33329609968094" lon="-8.607417941093447">
        <ele>65.72636413574219</ele>
      </trkpt>
      <trkpt lat="42.33377196887964" lon="-8.607423305511476">
        <ele>63.95376968383789</ele>
      </trkpt>
      <trkpt lat="42.33438662793236" lon="-8.607423305511476">
        <ele>60.2528190612793</ele>
      </trkpt>
      <trkpt lat="42.334878350849316" lon="-8.607444763183596">
        <ele>53.5123176574707</ele>
      </trkpt>
      <trkpt lat="42.335421620892056" lon="-8.607959747314455">
        <ele>41.905792236328125</ele>
      </trkpt>
      <trkpt lat="42.335671444226975" lon="-8.607879281044008">
        <ele>38.25555419921875</ele>
      </trkpt>
      <trkpt lat="42.33594505912176" lon="-8.607670068740847">
        <ele>37.35373306274414</ele>
      </trkpt>
      <trkpt lat="42.336559696935986" lon="-8.606672286987306">
        <ele>48.17281723022461</ele>
      </trkpt>
      <trkpt lat="42.33718622478319" lon="-8.606548905372621">
        <ele>46.06092071533203</ele>
      </trkpt>
      <trkpt lat="42.33752724364619" lon="-8.606683015823366">
        <ele>46.95220184326172</ele>
      </trkpt>
      <trkpt lat="42.337876191266105" lon="-8.606479167938234">
        <ele>45.702186584472656</ele>
      </trkpt>
      <trkpt lat="42.3386414900613" lon="-8.606532812118532">
        <ele>40.72932052612305</ele>
      </trkpt>
      <trkpt lat="42.33883182199418" lon="-8.606452345848085">
        <ele>39.96661376953125</ele>
      </trkpt>
      <trkpt lat="42.339038014271324" lon="-8.606452345848085">
        <ele>39.18021011352539</ele>
      </trkpt>
      <trkpt lat="42.33919265803549" lon="-8.606538176536562">
        <ele>38.392478942871094</ele>
      </trkpt>
      <trkpt lat="42.339450396797275" lon="-8.606661558151247">
        <ele>37.363868713378906</ele>
      </trkpt>
      <trkpt lat="42.33970416931516" lon="-8.606618642807009">
        <ele>38.809478759765625</ele>
      </trkpt>
      <trkpt lat="42.33988260250357" lon="-8.606629371643068">
        <ele>38.021697998046875</ele>
      </trkpt>
      <trkpt lat="42.34006500035059" lon="-8.60682785511017">
        <ele>35.950950622558594</ele>
      </trkpt>
      <trkpt lat="42.34042979445735" lon="-8.607010245323183">
        <ele>30.619836807250977</ele>
      </trkpt>
      <trkpt lat="42.340723214268316" lon="-8.607155084609987">
        <ele>29.0</ele>
      </trkpt>
      <trkpt lat="42.34085406320203" lon="-8.607144355773928">
        <ele>29.0</ele>
      </trkpt>
      <trkpt lat="42.34100077228875" lon="-8.60807240009308">
        <ele>30.0</ele>
      </trkpt>
      <trkpt lat="42.34135366571693" lon="-8.608528375625612">
        <ele>25.749094009399414</ele>
      </trkpt>
      <trkpt lat="42.34149640856349" lon="-8.608705401420595">
        <ele>23.992929458618164</ele>
      </trkpt>
      <trkpt lat="42.34175413788231" lon="-8.608737587928774">
        <ele>24.946197509765625</ele>
      </trkpt>
      <trkpt lat="42.341996005974444" lon="-8.608780503273012">
        <ele>27.689285278320312</ele>
      </trkpt>
      <trkpt lat="42.34233303373161" lon="-8.608893156051638">
        <ele>29.256452560424805</ele>
      </trkpt>
      <trkpt lat="42.342586794615386" lon="-8.608989715576174">
        <ele>28.098543167114258</ele>
      </trkpt>
      <trkpt lat="42.3428881343346" lon="-8.609000444412233">
        <ele>22.935611724853516</ele>
      </trkpt>
      <trkpt lat="42.343213262411865" lon="-8.608957529067995">
        <ele>19.551023483276367</ele>
      </trkpt>
      <trkpt lat="42.343470984693134" lon="-8.60881268978119">
        <ele>18.233800888061523</ele>
      </trkpt>
      <trkpt lat="42.343708881245846" lon="-8.608496189117433">
        <ele>15.969594955444336</ele>
      </trkpt>
      <trkpt lat="42.343998320837784" lon="-8.608238697052004">
        <ele>14.248058319091797</ele>
      </trkpt>
      <trkpt lat="42.34412123313817" lon="-8.60806703567505">
        <ele>14.356719017028809</ele>
      </trkpt>
      <trkpt lat="42.3443353378617" lon="-8.60759496688843">
        <ele>19.77422332763672</ele>
      </trkpt>
      <trkpt lat="42.34443049528254" lon="-8.607434034347536">
        <ele>21.887617111206055</ele>
      </trkpt>
      <trkpt lat="42.344557371619636" lon="-8.607455492019655">
        <ele>19.6524600982666</ele>
      </trkpt>
      <trkpt lat="42.344727861294416" lon="-8.607525229454042">
        <ele>14.015995025634766</ele>
      </trkpt>
      <trkpt lat="42.344977647657444" lon="-8.607412576675417">
        <ele>0.0</ele>
      </trkpt>
      <trkpt lat="42.34525518689683" lon="-8.607155084609987">
        <ele>0.0</ele>
      </trkpt>
      <trkpt lat="42.345366202249494" lon="-8.606929779052736">
        <ele>0.0</ele>
      </trkpt>
      <trkpt lat="42.346623040961894" lon="-8.606715202331545">
        <ele>8.988845825195312</ele>
      </trkpt>
      <trkpt lat="42.346852996114265" lon="-8.607031702995302">
        <ele>11.678800582885742</ele>
      </trkpt>
      <trkpt lat="42.34696400864537" lon="-8.607197999954225">
        <ele>13.504961967468262</ele>
      </trkpt>
      <trkpt lat="42.346907511221005" lon="-8.60744208097458">
        <ele>14.448519706726074</ele>
      </trkpt>
      <trkpt lat="42.34692436133535" lon="-8.607535958290102">
        <ele>15.344879150390625</ele>
      </trkpt>
      <trkpt lat="42.346968964557384" lon="-8.60753729939461">
        <ele>15.991814613342285</ele>
      </trkpt>
      <trkpt lat="42.347001673566766" lon="-8.607455492019655">
        <ele>15.900613784790039</ele>
      </trkpt>
      <trkpt lat="42.34704231200926" lon="-8.607420623302461">
        <ele>16.23465919494629</ele>
      </trkpt>
      <trkpt lat="42.34715035066762" lon="-8.607364296913149">
        <ele>17.38454818725586</ele>
      </trkpt>
      <trkpt lat="42.347255415606845" lon="-8.607356250286104">
        <ele>18.566944122314453</ele>
      </trkpt>
      <trkpt lat="42.34732182448731" lon="-8.607375025749208">
        <ele>19.41910743713379</ele>
      </trkpt>
      <trkpt lat="42.34731885095684" lon="-8.60744208097458">
        <ele>19.869665145874023</ele>
      </trkpt>
      <trkpt lat="42.34728415975775" lon="-8.607702255249025">
        <ele>20.747392654418945</ele>
      </trkpt>
      <trkpt lat="42.34751708601298" lon="-8.607782721519472">
        <ele>22.910045623779297</ele>
      </trkpt>
      <trkpt lat="42.347660806037794" lon="-8.607856482267382">
        <ele>22.82448959350586</ele>
      </trkpt>
      <trkpt lat="42.347754967255185" lon="-8.607876598834993">
        <ele>22.929914474487305</ele>
      </trkpt>
      <trkpt lat="42.34788084571499" lon="-8.607864528894426">
        <ele>22.476879119873047</ele>
      </trkpt>
      <trkpt lat="42.348057273368255" lon="-8.607851117849352">
        <ele>21.369543075561523</ele>
      </trkpt>
      <trkpt lat="42.34818414238591" lon="-8.607853800058367">
        <ele>19.99008560180664</ele>
      </trkpt>
      <trkpt lat="42.34822973587657" lon="-8.607869893312456">
        <ele>19.439891815185547</ele>
      </trkpt>
      <trkpt lat="42.348270373525146" lon="-8.60794633626938">
        <ele>18.726009368896484</ele>
      </trkpt>
      <trkpt lat="42.34852014581272" lon="-8.608528375625612">
        <ele>11.571112632751465</ele>
      </trkpt>
      <trkpt lat="42.3486499873638" lon="-8.608494848012926">
        <ele>10.998510360717773</ele>
      </trkpt>
      <trkpt lat="42.34893543960187" lon="-8.608437180519106">
        <ele>10.097347259521484</ele>
      </trkpt>
      <trkpt lat="42.3493081114062" lon="-8.60840901732445">
        <ele>8.34014892578125</ele>
      </trkpt>
      <trkpt lat="42.349520216180565" lon="-8.608315140008928">
        <ele>7.826219081878662</ele>
      </trkpt>
      <trkpt lat="42.34967681644254" lon="-8.60820919275284">
        <ele>7.444914817810059</ele>
      </trkpt>
      <trkpt lat="42.349779894883085" lon="-8.608221262693407">
        <ele>7.846154689788818</ele>
      </trkpt>
      <trkpt lat="42.34983539858874" lon="-8.60833525657654">
        <ele>8.4561767578125</ele>
      </trkpt>
      <trkpt lat="42.349844318822576" lon="-8.608575314283373">
        <ele>10.467082023620605</ele>
      </trkpt>
      <trkpt lat="42.34978980626269" lon="-8.608843535184862">
        <ele>12.970682144165039</ele>
      </trkpt>
      <trkpt lat="42.349688710117405" lon="-8.609046041965486">
        <ele>15.342928886413574</ele>
      </trkpt>
      <trkpt lat="42.349561844136396" lon="-8.609141260385515">
        <ele>16.14320182800293</ele>
      </trkpt>
      <trkpt lat="42.349460747624455" lon="-8.609166741371157">
        <ele>15.874040603637695</ele>
      </trkpt>
      <trkpt lat="42.34947858819719" lon="-8.609243184328081">
        <ele>17.54429817199707</ele>
      </trkpt>
      <trkpt lat="42.34952913645913" lon="-8.609433621168138">
        <ele>21.713485717773438</ele>
      </trkpt>
      <trkpt lat="42.34964807338572" lon="-8.609616011381151">
        <ele>25.93170738220215</ele>
      </trkpt>
      <trkpt lat="42.34988198201817" lon="-8.609819859266283">
        <ele>28.03298568725586</ele>
      </trkpt>
      <trkpt lat="42.350051466119" lon="-8.609956651926042">
        <ele>28.462486267089844</ele>
      </trkpt>
      <trkpt lat="42.350106969584864" lon="-8.61028388142586">
        <ele>29.306894302368164</ele>
      </trkpt>
      <trkpt lat="42.3501238188416" lon="-8.61075058579445">
        <ele>28.030475616455078</ele>
      </trkpt>
      <trkpt lat="42.35016346413371" lon="-8.610899448394777">
        <ele>26.53091049194336</ele>
      </trkpt>
      <trkpt lat="42.350314116015724" lon="-8.611103296279909">
        <ele>24.85874366760254</ele>
      </trkpt>
      <trkpt lat="42.350595596196115" lon="-8.611264228820803">
        <ele>23.560009002685547</ele>
      </trkpt>
      <trkpt lat="42.350988080540624" lon="-8.611441254615785">
        <ele>21.433666229248047</ele>
      </trkpt>
      <trkpt lat="42.35130127336045" lon="-8.611650466918947">
        <ele>17.67339324951172</ele>
      </trkpt>
      <trkpt lat="42.35132506009313" lon="-8.611688017845156">
        <ele>17.23188591003418</ele>
      </trkpt>
      <trkpt lat="42.35138056243438" lon="-8.611891865730287">
        <ele>14.784829139709473</ele>
      </trkpt>
      <trkpt lat="42.35142813583071" lon="-8.61207962036133">
        <ele>12.58642578125</ele>
      </trkpt>
      <trkpt lat="42.35147174474574" lon="-8.612262010574343">
        <ele>10.013442039489746</ele>
      </trkpt>
      <trkpt lat="42.35163428679877" lon="-8.612020611763002">
        <ele>12.255877494812012</ele>
      </trkpt>
      <trkpt lat="42.351848365934565" lon="-8.61184358596802">
        <ele>12.492928504943848</ele>
      </trkpt>
      <trkpt lat="42.3520505511155" lon="-8.611698746681215">
        <ele>12.924934387207031</ele>
      </trkpt>
      <trkpt lat="42.35227255762384" lon="-8.611607551574709">
        <ele>13.288558006286621</ele>
      </trkpt>
      <trkpt lat="42.352415275679405" lon="-8.611736297607424">
        <ele>9.898029327392578</ele>
      </trkpt>
      <trkpt lat="42.35247474144025" lon="-8.61184895038605">
        <ele>9.512149810791016</ele>
      </trkpt>
      <trkpt lat="42.35263728089947" lon="-8.611945509910585">
        <ele>9.216157913208008</ele>
      </trkpt>
      <trkpt lat="42.352752247580234" lon="-8.6120742559433">
        <ele>9.465874671936035</ele>
      </trkpt>
      <trkpt lat="42.35281964174361" lon="-8.612213730812075">
        <ele>10.452947616577148</ele>
      </trkpt>
      <trkpt lat="42.35291875067609" lon="-8.61231565475464">
        <ele>11.757230758666992</ele>
      </trkpt>
      <trkpt lat="42.353017859452315" lon="-8.61234784126282">
        <ele>12.736001014709473</ele>
      </trkpt>
      <trkpt lat="42.353081288987084" lon="-8.612455129623415">
        <ele>14.649677276611328</ele>
      </trkpt>
      <trkpt lat="42.35300200205863" lon="-8.612658977508547">
        <ele>13.954164505004883</ele>
      </trkpt>
      <trkpt lat="42.353033716842006" lon="-8.612798452377321">
        <ele>14.273224830627441</ele>
      </trkpt>
      <trkpt lat="42.35316454015429" lon="-8.613136410713198">
        <ele>13.544357299804688</ele>
      </trkpt>
      <trkpt lat="42.35332311350107" lon="-8.613227605819704">
        <ele>13.304795265197754</ele>
      </trkpt>
      <trkpt lat="42.35350150803798" lon="-8.613383173942568">
        <ele>13.12351131439209</ele>
      </trkpt>
      <trkpt lat="42.35366800914892" lon="-8.613624572753908">
        <ele>12.3790283203125</ele>
      </trkpt>
      <trkpt lat="42.353886045650945" lon="-8.61383378505707">
        <ele>11.927892684936523</ele>
      </trkpt>
      <trkpt lat="42.35415165273146" lon="-8.61407518386841">
        <ele>10.67569637298584</ele>
      </trkpt>
      <trkpt lat="42.35440140164888" lon="-8.614187836647035">
        <ele>13.142741203308105</ele>
      </trkpt>
      <trkpt lat="42.35465511381859" lon="-8.614273667335512">
        <ele>16.531015396118164</ele>
      </trkpt>
      <trkpt lat="42.35478593375587" lon="-8.614386320114138">
        <ele>17.490686416625977</ele>
      </trkpt>
      <trkpt lat="42.3548731468961" lon="-8.61455798149109">
        <ele>16.853662490844727</ele>
      </trkpt>
      <trkpt lat="42.35502775171091" lon="-8.614713549613954">
        <ele>16.562965393066406</ele>
      </trkpt>
      <trkpt lat="42.35525371190991" lon="-8.61481547355652">
        <ele>19.337059020996094</ele>
      </trkpt>
      <trkpt lat="42.355428136771074" lon="-8.614895939826967">
        <ele>20.685823440551758</ele>
      </trkpt>
      <trkpt lat="42.35555895509923" lon="-8.61505150794983">
        <ele>21.36786651611328</ele>
      </trkpt>
      <trkpt lat="42.35572941493643" lon="-8.615298271179201">
        <ele>23.917020797729492</ele>
      </trkpt>
      <trkpt lat="42.35594348012361" lon="-8.615550398826601">
        <ele>27.59775161743164</ele>
      </trkpt>
      <trkpt lat="42.356375572446666" lon="-8.61582934856415">
        <ele>33.25364303588867</ele>
      </trkpt>
      <trkpt lat="42.35702965150337" lon="-8.616145849227907">
        <ele>43.97090148925781</ele>
      </trkpt>
      <trkpt lat="42.35725956858495" lon="-8.616274595260622">
        <ele>48.30610275268555</ele>
      </trkpt>
      <trkpt lat="42.357513269215964" lon="-8.616290688514711">
        <ele>48.18132019042969</ele>
      </trkpt>
      <trkpt lat="42.35772732832673" lon="-8.616183400154116">
        <ele>45.655128479003906</ele>
      </trkpt>
      <trkpt lat="42.357969134963625" lon="-8.615872263908388">
        <ele>44.5655632019043</ele>
      </trkpt>
      <trkpt lat="42.35826247291348" lon="-8.615545034408571">
        <ele>46.93284606933594</ele>
      </trkpt>
      <trkpt lat="42.35844085342964" lon="-8.615282177925112">
        <ele>44.56013488769531</ele>
      </trkpt>
      <trkpt lat="42.358674729339214" lon="-8.615368008613588">
        <ele>47.99759292602539</ele>
      </trkpt>
      <trkpt lat="42.35892446028166" lon="-8.615362644195558">
        <ele>48.06475830078125</ele>
      </trkpt>
      <trkpt lat="42.35906319926531" lon="-8.615475296974184">
        <ele>48.13605499267578</ele>
      </trkpt>
      <trkpt lat="42.359308964712945" lon="-8.615636229515077">
        <ele>50.39857864379883</ele>
      </trkpt>
      <trkpt lat="42.3595745488741" lon="-8.615732789039614">
        <ele>54.65637969970703</ele>
      </trkpt>
      <trkpt lat="42.35984409583022" lon="-8.615679144859316">
        <ele>54.462646484375</ele>
      </trkpt>
      <trkpt lat="42.36004229138377" lon="-8.615641593933107">
        <ele>53.5823860168457</ele>
      </trkpt>
      <trkpt lat="42.360220666847475" lon="-8.615705966949465">
        <ele>54.63737106323242</ele>
      </trkpt>
      <trkpt lat="42.36033958354194" lon="-8.61580789089203">
        <ele>56.01577377319336</ele>
      </trkpt>
      <trkpt lat="42.36051003041159" lon="-8.616049289703371">
        <ele>58.62126541137695</ele>
      </trkpt>
      <trkpt lat="42.360624982690496" lon="-8.61609220504761">
        <ele>59.263511657714844</ele>
      </trkpt>
      <trkpt lat="42.360807320356734" lon="-8.616215586662294">
        <ele>60.73427963256836</ele>
      </trkpt>
      <trkpt lat="42.361057042823646" lon="-8.616167306900026">
        <ele>59.28382110595703</ele>
      </trkpt>
      <trkpt lat="42.36128694516967" lon="-8.616140484809877">
        <ele>60.512264251708984</ele>
      </trkpt>
      <trkpt lat="42.36149306379919" lon="-8.616210222244264">
        <ele>63.0217399597168</ele>
      </trkpt>
      <trkpt lat="42.36174674733811" lon="-8.616285324096681">
        <ele>67.32317352294922</ele>
      </trkpt>
      <trkpt lat="42.36191322660385" lon="-8.61631214618683">
        <ele>70.7473373413086</ele>
      </trkpt>
      <trkpt lat="42.36218276352746" lon="-8.616279959678652">
        <ele>73.93255615234375</ele>
      </trkpt>
      <trkpt lat="42.36258310300045" lon="-8.616237044334413">
        <ele>76.3600845336914</ele>
      </trkpt>
      <trkpt lat="42.36269408774927" lon="-8.61631214618683">
        <ele>80.02584838867188</ele>
      </trkpt>
      <trkpt lat="42.36313009736448" lon="-8.616414070129396">
        <ele>84.26033782958984</ele>
      </trkpt>
      <trkpt lat="42.36371672370893" lon="-8.616741299629213">
        <ele>93.46117401123047</ele>
      </trkpt>
      <trkpt lat="42.36414876258173" lon="-8.616623282432558">
        <ele>93.57743072509766</ele>
      </trkpt>
      <trkpt lat="42.364370726351915" lon="-8.616526722908022">
        <ele>93.63895416259766</ele>
      </trkpt>
      <trkpt lat="42.36465610718981" lon="-8.616542816162111">
        <ele>95.7552719116211</ele>
      </trkpt>
      <trkpt lat="42.364854287564576" lon="-8.61657500267029">
        <ele>96.99278259277344</ele>
      </trkpt>
      <trkpt lat="42.36515155695451" lon="-8.616757392883303">
        <ele>97.68861389160156</ele>
      </trkpt>
      <trkpt lat="42.36532199077035" lon="-8.616902232170107">
        <ele>99.974609375</ele>
      </trkpt>
      <trkpt lat="42.365207047084844" lon="-8.61708462238312">
        <ele>104.1007080078125</ele>
      </trkpt>
      <trkpt lat="42.36502472218685" lon="-8.617535233497621">
        <ele>113.49456787109375</ele>
      </trkpt>
      <trkpt lat="42.36476312466982" lon="-8.617669343948366">
        <ele>114.02490234375</ele>
      </trkpt>
      <trkpt lat="42.36438658087692" lon="-8.6178195476532">
        <ele>115.26824188232422</ele>
      </trkpt>
      <trkpt lat="42.36418839902677" lon="-8.61782491207123">
        <ele>116.09733581542969</ele>
      </trkpt>
      <trkpt lat="42.364247853647456" lon="-8.617942929267885">
        <ele>118.43182373046875</ele>
      </trkpt>
      <trkpt lat="42.36449756243991" lon="-8.618200421333315">
        <ele>125.95683288574219</ele>
      </trkpt>
      <trkpt lat="42.36479879712265" lon="-8.618216514587404">
        <ele>128.02352905273438</ele>
      </trkpt>
      <trkpt lat="42.36523082855427" lon="-8.618350625038149">
        <ele>131.6978759765625</ele>
      </trkpt>
      <trkpt lat="42.365484497001326" lon="-8.618543744087221">
        <ele>131.68313598632812</ele>
      </trkpt>
      <trkpt lat="42.36584914359948" lon="-8.619015812873842">
        <ele>135.17457580566406</ele>
      </trkpt>
      <trkpt lat="42.36603939315828" lon="-8.619241118431093">
        <ele>137.06776428222656</ele>
      </trkpt>
      <trkpt lat="42.36646745255908" lon="-8.619482517242433">
        <ele>139.83265686035156</ele>
      </trkpt>
      <trkpt lat="42.36676075083494" lon="-8.619681000709535">
        <ele>142.47190856933594</ele>
      </trkpt>
      <trkpt lat="42.36666562721984" lon="-8.620029687881472">
        <ele>143.11643981933594</ele>
      </trkpt>
      <trkpt lat="42.36660617488725" lon="-8.620206713676454">
        <ele>143.53958129882812</ele>
      </trkpt>
      <trkpt lat="42.36682812997516" lon="-8.620405197143556">
        <ele>143.37606811523438</ele>
      </trkpt>
      <trkpt lat="42.36704215735293" lon="-8.620523214340212">
        <ele>143.48468017578125</ele>
      </trkpt>
      <trkpt lat="42.367236366749886" lon="-8.62057685852051">
        <ele>143.8163604736328</ele>
      </trkpt>
      <trkpt lat="42.36758514946554" lon="-8.620609045028688">
        <ele>141.9062042236328</ele>
      </trkpt>
      <trkpt lat="42.36773575958502" lon="-8.620625138282778">
        <ele>140.87008666992188</ele>
      </trkpt>
      <trkpt lat="42.367894296162774" lon="-8.620748519897463">
        <ele>141.1030731201172</ele>
      </trkpt>
      <trkpt lat="42.36799734472376" lon="-8.621129393577577">
        <ele>138.06593322753906</ele>
      </trkpt>
      <trkpt lat="42.36815984403416" lon="-8.621724843978884">
        <ele>131.19970703125</ele>
      </trkpt>
      <trkpt lat="42.368235148450104" lon="-8.621971607208254">
        <ele>127.28211212158203</ele>
      </trkpt>
      <trkpt lat="42.368310452775766" lon="-8.622272014617922">
        <ele>122.01835632324219</ele>
      </trkpt>
      <trkpt lat="42.368346123214295" lon="-8.62257242202759">
        <ele>118.29610443115234</ele>
      </trkpt>
      <trkpt lat="42.36850862162245" lon="-8.622867465019228">
        <ele>117.84992980957031</ele>
      </trkpt>
      <trkpt lat="42.36871075320204" lon="-8.623398542404177">
        <ele>112.554443359375</ele>
      </trkpt>
      <trkpt lat="42.368912884131184" lon="-8.623720407485964">
        <ele>110.11273956298828</ele>
      </trkpt>
      <trkpt lat="42.36898818764438" lon="-8.624267578125002">
        <ele>111.1928482055664</ele>
      </trkpt>
      <trkpt lat="42.369111051077375" lon="-8.624525070190431">
        <ele>112.46038818359375</ele>
      </trkpt>
      <trkpt lat="42.36935281390511" lon="-8.624943494796755">
        <ele>113.05887603759766</ele>
      </trkpt>
      <trkpt lat="42.36947567662489" lon="-8.625243902206423">
        <ele>114.4575424194336</ele>
      </trkpt>
      <trkpt lat="42.3697531076888" lon="-8.625399470329286">
        <ele>115.8942642211914</ele>
      </trkpt>
      <trkpt lat="42.370113766240024" lon="-8.625689148902895">
        <ele>115.47356414794922</ele>
      </trkpt>
      <trkpt lat="42.37062106267522" lon="-8.625935912132265">
        <ele>109.90486907958984</ele>
      </trkpt>
      <trkpt lat="42.37083507712998" lon="-8.626102209091188">
        <ele>107.79057312011719</ele>
      </trkpt>
      <trkpt lat="42.37121950867104" lon="-8.625984191894533">
        <ele>107.42124938964844</ele>
      </trkpt>
      <trkpt lat="42.37178228049801" lon="-8.625673055648805">
        <ele>104.14617156982422</ele>
      </trkpt>
      <trkpt lat="42.37224596898902" lon="-8.625184893608095">
        <ele>117.31609344482422</ele>
      </trkpt>
      <trkpt lat="42.37272550647727" lon="-8.624761104583742">
        <ele>116.44168853759766</ele>
      </trkpt>
      <trkpt lat="42.373002923187165" lon="-8.624873757362367">
        <ele>111.86296844482422</ele>
      </trkpt>
      <trkpt lat="42.37329222787939" lon="-8.62507224082947">
        <ele>111.59490966796875</ele>
      </trkpt>
      <trkpt lat="42.37368060742565" lon="-8.625345826148989">
        <ele>113.00975036621094</ele>
      </trkpt>
      <trkpt lat="42.37398972412353" lon="-8.625383377075197">
        <ele>113.98076629638672</ele>
      </trkpt>
      <trkpt lat="42.37433450633779" lon="-8.62530827522278">
        <ele>115.82274627685547</ele>
      </trkpt>
      <trkpt lat="42.374746657305614" lon="-8.625512123107912">
        <ele>116.82557678222656</ele>
      </trkpt>
      <trkpt lat="42.37547980378448" lon="-8.626155853271486">
        <ele>101.82524871826172</ele>
      </trkpt>
      <trkpt lat="42.37609801794762" lon="-8.626751303672792">
        <ele>93.36482238769531</ele>
      </trkpt>
      <trkpt lat="42.37649034300997" lon="-8.627019524574282">
        <ele>92.05879974365234</ele>
      </trkpt>
      <trkpt lat="42.37689455414709" lon="-8.626976609230043">
        <ele>94.92037963867188</ele>
      </trkpt>
      <trkpt lat="42.37712836136218" lon="-8.626955151557924">
        <ele>97.61994171142578</ele>
      </trkpt>
      <trkpt lat="42.37729876268242" lon="-8.627014160156252">
        <ele>98.69864654541016</ele>
      </trkpt>
      <trkpt lat="42.37741764705059" lon="-8.627207279205324">
        <ele>96.55699157714844</ele>
      </trkpt>
      <trkpt lat="42.37751275438309" lon="-8.627271652221681">
        <ele>96.1338882446289</ele>
      </trkpt>
      <trkpt lat="42.37783374056683" lon="-8.627212643623354">
        <ele>100.10269165039062</ele>
      </trkpt>
      <trkpt lat="42.3782141665118" lon="-8.627223372459413">
        <ele>104.57044219970703</ele>
      </trkpt>
      <trkpt lat="42.37862629201807" lon="-8.627400398254396">
        <ele>105.61988067626953</ele>
      </trkpt>
      <trkpt lat="42.378982936907654" lon="-8.627759814262392">
        <ele>94.17401123046875</ele>
      </trkpt>
      <trkpt lat="42.37915729589421" lon="-8.628188967704775">
        <ele>82.9819564819336</ele>
      </trkpt>
      <trkpt lat="42.37927617674383" lon="-8.628596663475038">
        <ele>77.63579559326172</ele>
      </trkpt>
      <trkpt lat="42.379387132000424" lon="-8.628848791122438">
        <ele>75.3589096069336</ele>
      </trkpt>
      <trkpt lat="42.37963281794229" lon="-8.629122376441957">
        <ele>74.79847717285156</ele>
      </trkpt>
      <trkpt lat="42.3805204494637" lon="-8.62953543663025">
        <ele>70.9930648803711</ele>
      </trkpt>
      <trkpt lat="42.38085330804924" lon="-8.6295622587204">
        <ele>73.2784652709961</ele>
      </trkpt>
      <trkpt lat="42.38116238944151" lon="-8.629519343376161">
        <ele>76.16325378417969</ele>
      </trkpt>
      <trkpt lat="42.38146750675952" lon="-8.629331588745119">
        <ele>75.5273208618164</ele>
      </trkpt>
      <trkpt lat="42.38181224791917" lon="-8.629235029220583">
        <ele>72.9493179321289</ele>
      </trkpt>
      <trkpt lat="42.38216094969528" lon="-8.629267215728762">
        <ele>72.69823455810547</ele>
      </trkpt>
      <trkpt lat="42.382608711635974" lon="-8.629283308982851">
        <ele>70.56388854980469</ele>
      </trkpt>
      <trkpt lat="42.38303269566289" lon="-8.62932085990906">
        <ele>65.89608001708984</ele>
      </trkpt>
      <trkpt lat="42.383385353092905" lon="-8.629395961761476">
        <ele>63.392250061035156</ele>
      </trkpt>
      <trkpt lat="42.38370630925684" lon="-8.629481792449953">
        <ele>60.159095764160156</ele>
      </trkpt>
      <trkpt lat="42.38391631672297" lon="-8.629766106605532">
        <ele>54.65474319458008</ele>
      </trkpt>
      <trkpt lat="42.38407085007015" lon="-8.63003969192505">
        <ele>48.55175018310547</ele>
      </trkpt>
      <trkpt lat="42.38420160875916" lon="-8.630163073539736">
        <ele>45.57683181762695</ele>
      </trkpt>
      <trkpt lat="42.38441557693553" lon="-8.630415201187136">
        <ele>42.0</ele>
      </trkpt>
      <trkpt lat="42.38463746908894" lon="-8.630613684654238">
        <ele>41.11109161376953</ele>
      </trkpt>
      <trkpt lat="42.38513276124515" lon="-8.630506396293642">
        <ele>40.61488723754883</ele>
      </trkpt>
      <trkpt lat="42.385560690521615" lon="-8.630463480949404">
        <ele>40.25279235839844</ele>
      </trkpt>
      <trkpt lat="42.385929182838936" lon="-8.630442023277284">
        <ele>40.078243255615234</ele>
      </trkpt>
      <trkpt lat="42.3861629564135" lon="-8.630420565605165">
        <ele>40.61634826660156</ele>
      </trkpt>
      <trkpt lat="42.38640861584195" lon="-8.630372285842897">
        <ele>40.79010772705078</ele>
      </trkpt>
      <trkpt lat="42.386753329870665" lon="-8.630077242851259">
        <ele>40.574798583984375</ele>
      </trkpt>
      <trkpt lat="42.38705445781796" lon="-8.629846572875978">
        <ele>40.173187255859375</ele>
      </trkpt>
      <trkpt lat="42.387450676600544" lon="-8.629642724990847">
        <ele>40.312435150146484</ele>
      </trkpt>
      <trkpt lat="42.38762104990819" lon="-8.629508614540102">
        <ele>41.69538116455078</ele>
      </trkpt>
      <trkpt lat="42.38777557413614" lon="-8.629487156867983">
        <ele>41.927059173583984</ele>
      </trkpt>
      <trkpt lat="42.38800141655434" lon="-8.629492521286013">
        <ele>41.869140625</ele>
      </trkpt>
      <trkpt lat="42.388163864107085" lon="-8.629583716392519">
        <ele>39.50924301147461</ele>
      </trkpt>
      <trkpt lat="42.388496682170576" lon="-8.629658818244936">
        <ele>37.715755462646484</ele>
      </trkpt>
      <trkpt lat="42.388857233081346" lon="-8.62980902194977">
        <ele>37.63174057006836</ele>
      </trkpt>
      <trkpt lat="42.38927721284982" lon="-8.629959225654604">
        <ele>38.785369873046875</ele>
      </trkpt>
      <trkpt lat="42.389641721314526" lon="-8.629991412162783">
        <ele>39.98139572143555</ele>
      </trkpt>
      <trkpt lat="42.390212252053296" lon="-8.6298143863678">
        <ele>37.848243713378906</ele>
      </trkpt>
      <trkpt lat="42.39054109727595" lon="-8.629712462425234">
        <ele>37.387001037597656</ele>
      </trkpt>
      <trkpt lat="42.39082635920614" lon="-8.629642724990847">
        <ele>38.583534240722656</ele>
      </trkpt>
      <trkpt lat="42.39109973400605" lon="-8.629723191261293">
        <ele>40.70853042602539</ele>
      </trkpt>
      <trkpt lat="42.391317640602466" lon="-8.629680275917055">
        <ele>43.10757064819336</ele>
      </trkpt>
      <trkpt lat="42.39158308943418" lon="-8.629766106605532">
        <ele>41.05122375488281</ele>
      </trkpt>
      <trkpt lat="42.391800994352515" lon="-8.629835844039919">
        <ele>38.1077995300293</ele>
      </trkpt>
      <trkpt lat="42.39202286040118" lon="-8.629921674728395">
        <ele>35.65298080444336</ele>
      </trkpt>
      <trkpt lat="42.392240763792714" lon="-8.629868030548097">
        <ele>34.03536605834961</ele>
      </trkpt>
      <trkpt lat="42.392446780848985" lon="-8.629776835441591">
        <ele>33.95033264160156</ele>
      </trkpt>
      <trkpt lat="42.39259733134708" lon="-8.629691004753115">
        <ele>33.56854248046875</ele>
      </trkpt>
      <trkpt lat="42.392949935047646" lon="-8.629610538482668">
        <ele>31.27321434020996</ele>
      </trkpt>
      <trkpt lat="42.39336196382833" lon="-8.6295622587204">
        <ele>31.91507339477539</ele>
      </trkpt>
      <trkpt lat="42.39386114891961" lon="-8.629513978958132">
        <ele>32.74581527709961</ele>
      </trkpt>
      <trkpt lat="42.394269209973395" lon="-8.629433512687685">
        <ele>31.33750343322754</ele>
      </trkpt>
      <trkpt lat="42.39459011049185" lon="-8.629272580146791">
        <ele>31.236339569091797</ele>
      </trkpt>
      <trkpt lat="42.39498628170809" lon="-8.629009723663332">
        <ele>29.638370513916016</ele>
      </trkpt>
      <trkpt lat="42.39516851962777" lon="-8.628886342048647">
        <ele>29.426546096801758</ele>
      </trkpt>
      <trkpt lat="42.3957865399367" lon="-8.62878441810608">
        <ele>30.440570831298828</ele>
      </trkpt>
      <trkpt lat="42.39607573965757" lon="-8.62882733345032">
        <ele>32.57928466796875</ele>
      </trkpt>
      <trkpt lat="42.39630551382815" lon="-8.629095554351808">
        <ele>32.80351638793945</ele>
      </trkpt>
      <trkpt lat="42.39653924875918" lon="-8.629433512687685">
        <ele>33.475975036621094</ele>
      </trkpt>
      <trkpt lat="42.39681656026006" lon="-8.629739284515383">
        <ele>34.06827926635742</ele>
      </trkpt>
      <trkpt lat="42.39721667898028" lon="-8.629916310310366">
        <ele>33.945125579833984</ele>
      </trkpt>
      <trkpt lat="42.39768017965485" lon="-8.629943132400514">
        <ele>35.83650588989258</ele>
      </trkpt>
      <trkpt lat="42.39821894536717" lon="-8.62979292869568">
        <ele>37.875213623046875</ele>
      </trkpt>
      <trkpt lat="42.39854378716428" lon="-8.629653453826906">
        <ele>38.37718200683594</ele>
      </trkpt>
      <trkpt lat="42.39919346571366" lon="-8.629889488220217">
        <ele>40.1972541809082</ele>
      </trkpt>
      <trkpt lat="42.39954999376633" lon="-8.630264997482302">
        <ele>42.0</ele>
      </trkpt>
      <trkpt lat="42.400167970925544" lon="-8.630447387695314">
        <ele>42.18468475341797</ele>
      </trkpt>
      <trkpt lat="42.400682947242316" lon="-8.630887269973757">
        <ele>42.49457931518555</ele>
      </trkpt>
      <trkpt lat="42.40122960978463" lon="-8.631498813629152">
        <ele>42.52533721923828</ele>
      </trkpt>
      <trkpt lat="42.40171288719612" lon="-8.631949424743654">
        <ele>40.378639221191406</ele>
      </trkpt>
      <trkpt lat="42.40199017583357" lon="-8.632142543792726">
        <ele>39.25684356689453</ele>
      </trkpt>
      <trkpt lat="42.40260020652228" lon="-8.632174730300905">
        <ele>36.68998718261719</ele>
      </trkpt>
      <trkpt lat="42.403226075999626" lon="-8.63206744194031">
        <ele>37.77833938598633</ele>
      </trkpt>
      <trkpt lat="42.404248051978215" lon="-8.63229274749756">
        <ele>37.023807525634766</ele>
      </trkpt>
      <trkpt lat="42.40506403634957" lon="-8.632383942604067">
        <ele>33.67414093017578</ele>
      </trkpt>
      <trkpt lat="42.405697803295766" lon="-8.63254487514496">
        <ele>27.335546493530273</ele>
      </trkpt>
      <trkpt lat="42.40604241138557" lon="-8.632625341415407">
        <ele>26.36271858215332</ele>
      </trkpt>
      <trkpt lat="42.40641474443549" lon="-8.6327862739563">
        <ele>25.662080764770508</ele>
      </trkpt>
      <trkpt lat="42.40681480195183" lon="-8.632990121841432">
        <ele>28.62140655517578</ele>
      </trkpt>
      <trkpt lat="42.40724654432986" lon="-8.633151054382326">
        <ele>27.789318084716797</ele>
      </trkpt>
      <trkpt lat="42.40766244014101" lon="-8.633220791816713">
        <ele>27.39957046508789</ele>
      </trkpt>
      <trkpt lat="42.40845461501048" lon="-8.633381724357607">
        <ele>30.446407318115234</ele>
      </trkpt>
      <trkpt lat="42.408819012091065" lon="-8.633365631103517">
        <ele>31.03411293029785</ele>
      </trkpt>
      <trkpt lat="42.40925470147407" lon="-8.63328516483307">
        <ele>31.613309860229492</ele>
      </trkpt>
      <trkpt lat="42.40965474087893" lon="-8.633113503456117">
        <ele>32.00154113769531</ele>
      </trkpt>
      <trkpt lat="42.41009042445709" lon="-8.633081316947939">
        <ele>31.49601936340332</ele>
      </trkpt>
      <trkpt lat="42.410514222852285" lon="-8.633027672767641">
        <ele>31.292705535888672</ele>
      </trkpt>
      <trkpt lat="42.41087860796809" lon="-8.63305449485779">
        <ele>28.769500732421875</ele>
      </trkpt>
      <trkpt lat="42.41133804705336" lon="-8.633075952529909">
        <ele>27.119218826293945</ele>
      </trkpt>
      <trkpt lat="42.41164697833913" lon="-8.6330384016037">
        <ele>26.159854888916016</ele>
      </trkpt>
      <trkpt lat="42.41245890587381" lon="-8.63303303718567">
        <ele>22.214061737060547</ele>
      </trkpt>
      <trkpt lat="42.41293021508467" lon="-8.633140325546266">
        <ele>22.19211196899414</ele>
      </trkpt>
      <trkpt lat="42.4132430990753" lon="-8.633140325546266">
        <ele>20.64828872680664</ele>
      </trkpt>
      <trkpt lat="42.41380549422269" lon="-8.633006215095522">
        <ele>19.21405029296875</ele>
      </trkpt>
      <trkpt lat="42.414181741681844" lon="-8.632990121841432">
        <ele>18.49142074584961</ele>
      </trkpt>
      <trkpt lat="42.414696602968135" lon="-8.633161783218386">
        <ele>18.00695037841797</ele>
      </trkpt>
      <trkpt lat="42.41495007158718" lon="-8.633242249488832">
        <ele>17.555822372436523</ele>
      </trkpt>
      <trkpt lat="42.415191657911194" lon="-8.633204698562624">
        <ele>17.59625244140625</ele>
      </trkpt>
      <trkpt lat="42.41541344125818" lon="-8.63306522369385">
        <ele>17.901777267456055</ele>
      </trkpt>
      <trkpt lat="42.41568274855363" lon="-8.633086681365969">
        <ele>18.0</ele>
      </trkpt>
      <trkpt lat="42.41597581694346" lon="-8.633177876472475">
        <ele>18.28972816467285</ele>
      </trkpt>
      <trkpt lat="42.41624512182389" lon="-8.633365631103517">
        <ele>18.166454315185547</ele>
      </trkpt>
      <trkpt lat="42.41655006860108" lon="-8.6335426568985">
        <ele>19.043615341186523</ele>
      </trkpt>
      <trkpt lat="42.41679560908427" lon="-8.633708953857424">
        <ele>19.0</ele>
      </trkpt>
      <trkpt lat="42.416771847144034" lon="-8.634406328201296">
        <ele>18.538145065307617</ele>
      </trkpt>
      <trkpt lat="42.41666887863234" lon="-8.636369705200197">
        <ele>23.589214324951172</ele>
      </trkpt>
      <trkpt lat="42.41664511664412" lon="-8.636906147003176">
        <ele>28.44477081298828</ele>
      </trkpt>
      <trkpt lat="42.41697778366019" lon="-8.63731384277344">
        <ele>30.0</ele>
      </trkpt>
      <trkpt lat="42.41728668716636" lon="-8.637195825576784">
        <ele>29.45305061340332</ele>
      </trkpt>
      <trkpt lat="42.41743915820787" lon="-8.637273609638216">
        <ele>29.088733673095703</ele>
      </trkpt>
      <trkpt lat="42.417637171994144" lon="-8.63740235567093">
        <ele>27.336565017700195</ele>
      </trkpt>
      <trkpt lat="42.41777776140283" lon="-8.637501597404482">
        <ele>25.803150177001953</ele>
      </trkpt>
      <trkpt lat="42.41785300630897" lon="-8.637622296810152">
        <ele>24.2855281829834</ele>
      </trkpt>
      <trkpt lat="42.41789854923461" lon="-8.637737631797792">
        <ele>23.449432373046875</ele>
      </trkpt>
      <trkpt lat="42.418023297078946" lon="-8.63779127597809">
        <ele>22.102529525756836</ele>
      </trkpt>
      <trkpt lat="42.41834506616674" lon="-8.637831509113314">
        <ele>21.111278533935547</ele>
      </trkpt>
      <trkpt lat="42.421587416363614" lon="-8.6382794380188">
        <ele>20.0</ele>
      </trkpt>
      <trkpt lat="42.42186065714751" lon="-8.638166785240175">
        <ele>22.290668487548828</ele>
      </trkpt>
      <trkpt lat="42.42202301704929" lon="-8.638241887092592">
        <ele>23.910676956176758</ele>
      </trkpt>
      <trkpt lat="42.422205176438624" lon="-8.63853693008423">
        <ele>24.43836784362793</ele>
      </trkpt>
      <trkpt lat="42.42502461949465" lon="-8.639738559722902">
        <ele>21.67283058166504</ele>
      </trkpt>
      <trkpt lat="42.42673523100574" lon="-8.640747070312502">
        <ele>26.960227966308594</ele>
      </trkpt>
      <trkpt lat="42.42847747252586" lon="-8.642120361328127">
        <ele>34.836753845214844</ele>
      </trkpt>
      <trkpt lat="42.42939608946678" lon="-8.642957210540773">
        <ele>35.58602523803711</ele>
      </trkpt>
      <trkpt lat="42.43037804441324" lon="-8.643815517425539">
        <ele>32.022647857666016</ele>
      </trkpt>
      <trkpt lat="42.43096404245509" lon="-8.644394874572756">
        <ele>29.302152633666992</ele>
      </trkpt>
      <trkpt lat="42.4310119729" lon="-8.64436796866">
        <ele>28.43964385986328</ele>
      </trkpt>
      <trkpt lat="42.4332069419" lon="-8.64526692778">
        <ele>15.0</ele>
      </trkpt>
      <trkpt lat="42.4346619565" lon="-8.64498395473">
        <ele>7.746223449707031</ele>
      </trkpt>
      <trkpt lat="42.4352169223" lon="-8.64435296506">
        <ele>4.255906581878662</ele>
      </trkpt>
      <trkpt lat="42.4372029305" lon="-8.64335099235">
        <ele>10.073068618774414</ele>
      </trkpt>
      <trkpt lat="42.4395989813" lon="-8.6426579766">
        <ele>15.531087875366211</ele>
      </trkpt>
      <trkpt lat="42.4411609489" lon="-8.6429539416">
        <ele>15.0</ele>
      </trkpt>
      <trkpt lat="42.4420989677" lon="-8.64302895963">
        <ele>12.716203689575195</ele>
      </trkpt>
      <trkpt lat="42.4454769585" lon="-8.64288797602">
        <ele>12.492269515991211</ele>
      </trkpt>
      <trkpt lat="42.4464179948" lon="-8.64269091748">
        <ele>14.752347946166992</ele>
      </trkpt>
      <trkpt lat="42.4489509221" lon="-8.64218096249">
        <ele>7.290676593780518</ele>
      </trkpt>
      <trkpt lat="42.4518119171" lon="-8.6414679978">
        <ele>4.28434944152832</ele>
      </trkpt>
      <trkpt lat="42.4530389439" lon="-8.64203092642">
        <ele>8.817802429199219</ele>
      </trkpt>
      <trkpt lat="42.4567579944" lon="-8.64443393424">
        <ele>7.108480930328369</ele>
      </trkpt>
      <trkpt lat="42.4576339871" lon="-8.64418197423">
        <ele>13.316519737243652</ele>
      </trkpt>
      <trkpt lat="42.4604509771" lon="-8.64472998306">
        <ele>21.350252151489258</ele>
      </trkpt>
      <trkpt lat="42.4616759922" lon="-8.64400997758">
        <ele>23.779935836791992</ele>
      </trkpt>
      <trkpt lat="42.4624599516" lon="-8.64436092786">
        <ele>25.34173011779785</ele>
      </trkpt>
      <trkpt lat="42.4636199232" lon="-8.64431994036">
        <ele>35.45736312866211</ele>
      </trkpt>
      <trkpt lat="42.4639369268" lon="-8.64462898113">
        <ele>37.37849426269531</ele>
      </trkpt>
      <trkpt lat="42.4642409384" lon="-8.6456629727">
        <ele>26.88301658630371</ele>
      </trkpt>
      <trkpt lat="42.4648989178" lon="-8.64622296765">
        <ele>22.230497360229492</ele>
      </trkpt>
      <trkpt lat="42.4653699808" lon="-8.64735293202">
        <ele>17.142961502075195</ele>
      </trkpt>
      <trkpt lat="42.4667259213" lon="-8.64826999605">
        <ele>17.36256980895996</ele>
      </trkpt>
      <trkpt lat="42.4671469443" lon="-8.64839597605">
        <ele>19.68468475341797</ele>
      </trkpt>
      <trkpt lat="42.4677999783" lon="-8.64823596552">
        <ele>18.773212432861328</ele>
      </trkpt>
      <trkpt lat="42.4688219838" lon="-8.64826094359">
        <ele>17.989444732666016</ele>
      </trkpt>
      <trkpt lat="42.4700799398" lon="-8.64846697077">
        <ele>24.28774642944336</ele>
      </trkpt>
      <trkpt lat="42.4712779652" lon="-8.64837191999">
        <ele>32.1657829284668</ele>
      </trkpt>
      <trkpt lat="42.4718799535" lon="-8.64886393771">
        <ele>32.51188659667969</ele>
      </trkpt>
      <trkpt lat="42.4735519756" lon="-8.64960498177">
        <ele>32.10007095336914</ele>
      </trkpt>
      <trkpt lat="42.4741629325" lon="-8.64955997095">
        <ele>37.984039306640625</ele>
      </trkpt>
      <trkpt lat="42.4749849457" lon="-8.64991595037">
        <ele>41.116329193115234</ele>
      </trkpt>
      <trkpt lat="42.4764129706" lon="-8.6501089856">
        <ele>42.74513244628906</ele>
      </trkpt>
      <trkpt lat="42.4772189744" lon="-8.65053998306">
        <ele>44.4902458190918</ele>
      </trkpt>
      <trkpt lat="42.4797839206" lon="-8.65118295886">
        <ele>38.89249038696289</ele>
      </trkpt>
      <trkpt lat="42.4809499271" lon="-8.65070393309">
        <ele>41.17771911621094</ele>
      </trkpt>
      <trkpt lat="42.4821779598" lon="-8.65095497109">
        <ele>39.0</ele>
      </trkpt>
      <trkpt lat="42.4859819189" lon="-8.65057392977">
        <ele>54.57723617553711</ele>
      </trkpt>
      <trkpt lat="42.4872409645" lon="-8.6500089895">
        <ele>62.705631256103516</ele>
      </trkpt>
      <trkpt lat="42.4881939869" lon="-8.65003799088">
        <ele>60.542762756347656</ele>
      </trkpt>
      <trkpt lat="42.4890469294" lon="-8.64981494844">
        <ele>64.31585693359375</ele>
      </trkpt>
      <trkpt lat="42.4896949343" lon="-8.64941999316">
        <ele>72.63783264160156</ele>
      </trkpt>
      <trkpt lat="42.4908529781" lon="-8.64919695072">
        <ele>65.40052795410156</ele>
      </trkpt>
      <trkpt lat="42.4922979344" lon="-8.64850795828">
        <ele>77.59908294677734</ele>
      </trkpt>
      <trkpt lat="42.4940989539" lon="-8.64832992665">
        <ele>84.08126068115234</ele>
      </trkpt>
      <trkpt lat="42.4966349825" lon="-8.64915495738">
        <ele>79.43296813964844</ele>
      </trkpt>
      <trkpt lat="42.4974309281" lon="-8.64891992882">
        <ele>93.20130920410156</ele>
      </trkpt>
      <trkpt lat="42.4986579549" lon="-8.64922997542">
        <ele>102.4813461303711</ele>
      </trkpt>
      <trkpt lat="42.4994149245" lon="-8.64961797372">
        <ele>100.30729675292969</ele>
      </trkpt>
      <trkpt lat="42.5000209361" lon="-8.64943692461">
        <ele>113.93917846679688</ele>
      </trkpt>
      <trkpt lat="42.5005739741" lon="-8.64978997037">
        <ele>119.63233184814453</ele>
      </trkpt>
      <trkpt lat="42.5011839252" lon="-8.64972995594">
        <ele>126.63577270507812</ele>
      </trkpt>
      <trkpt lat="42.5019109715" lon="-8.65034795366">
        <ele>124.52914428710938</ele>
      </trkpt>
      <trkpt lat="42.5032069813" lon="-8.65092697553">
        <ele>123.05210876464844</ele>
      </trkpt>
      <trkpt lat="42.5039109774" lon="-8.65088297054">
        <ele>126.76522064208984</ele>
      </trkpt>
      <trkpt lat="42.5048169773" lon="-8.64975292236">
        <ele>125.03028106689453</ele>
      </trkpt>
      <trkpt lat="42.5057299342" lon="-8.64930499345">
        <ele>117.33182525634766</ele>
      </trkpt>
      <trkpt lat="42.5074129365" lon="-8.64887793548">
        <ele>116.46866607666016</ele>
      </trkpt>
      <trkpt lat="42.5078979973" lon="-8.64894993603">
        <ele>112.07058715820312</ele>
      </trkpt>
      <trkpt lat="42.5081469398" lon="-8.64928797819">
        <ele>104.52513885498047</ele>
      </trkpt>
      <trkpt lat="42.5088689569" lon="-8.64962199703">
        <ele>103.0232925415039</ele>
      </trkpt>
      <trkpt lat="42.509748973" lon="-8.64964496344">
        <ele>99.8790054321289</ele>
      </trkpt>
      <trkpt lat="42.5117339753" lon="-8.65014896728">
        <ele>78.67977905273438</ele>
      </trkpt>
      <trkpt lat="42.5130589865" lon="-8.64973599091">
        <ele>75.3998031616211</ele>
      </trkpt>
      <trkpt lat="42.5136589631" lon="-8.64920097403">
        <ele>77.67808532714844</ele>
      </trkpt>
      <trkpt lat="42.517394945" lon="-8.64698194899">
        <ele>69.39559173583984</ele>
      </trkpt>
      <trkpt lat="42.5181529205" lon="-8.6460839957">
        <ele>68.4239730834961</ele>
      </trkpt>
      <trkpt lat="42.5187149271" lon="-8.64492695779">
        <ele>66.23713684082031</ele>
      </trkpt>
      <trkpt lat="42.5189329404" lon="-8.64540196024">
        <ele>66.27933502197266</ele>
      </trkpt>
      <trkpt lat="42.5195979606" lon="-8.64540598355">
        <ele>61.6838264465332</ele>
      </trkpt>
      <trkpt lat="42.519979924" lon="-8.64527598023">
        <ele>61.395660400390625</ele>
      </trkpt>
      <trkpt lat="42.5205009431" lon="-8.64469695836">
        <ele>56.65129852294922</ele>
      </trkpt>
      <trkpt lat="42.5210179389" lon="-8.64469293505">
        <ele>59.03704833984375</ele>
      </trkpt>
      <trkpt lat="42.521430999" lon="-8.64505394362">
        <ele>63.520687103271484</ele>
      </trkpt>
      <trkpt lat="42.5223349873" lon="-8.6452269461">
        <ele>76.42361450195312</ele>
      </trkpt>
      <trkpt lat="42.5233139936" lon="-8.64576095715">
        <ele>73.3733139038086</ele>
      </trkpt>
      <trkpt lat="42.5234909356" lon="-8.64669294097">
        <ele>76.42041015625</ele>
      </trkpt>
      <trkpt lat="42.5238319952" lon="-8.64644693211">
        <ele>74.39473724365234</ele>
      </trkpt>
      <trkpt lat="42.5244909804" lon="-8.64652295597">
        <ele>70.8569564819336</ele>
      </trkpt>
      <trkpt lat="42.5247089937" lon="-8.64593798295">
        <ele>68.30316925048828</ele>
      </trkpt>
      <trkpt lat="42.5263919961" lon="-8.64471891895">
        <ele>66.84342956542969</ele>
      </trkpt>
      <trkpt lat="42.5266489852" lon="-8.64501195028">
        <ele>64.47478485107422</ele>
      </trkpt>
      <trkpt lat="42.5281449873" lon="-8.64523298107">
        <ele>59.944671630859375</ele>
      </trkpt>
      <trkpt lat="42.5283939298" lon="-8.6454819236">
        <ele>55.04179000854492</ele>
      </trkpt>
      <trkpt lat="42.5286979415" lon="-8.64636395127">
        <ele>50.76390075683594</ele>
      </trkpt>
      <trkpt lat="42.5304639246" lon="-8.64669294097">
        <ele>49.412391662597656</ele>
      </trkpt>
      <trkpt lat="42.5317489542" lon="-8.6462689843">
        <ele>46.84238052368164</ele>
      </trkpt>
      <trkpt lat="42.5326239411" lon="-8.64617192186">
        <ele>44.58642578125</ele>
      </trkpt>
      <trkpt lat="42.5337609462" lon="-8.64554294385">
        <ele>42.69655990600586</ele>
      </trkpt>
      <trkpt lat="42.5348999631" lon="-8.64545795135">
        <ele>40.0</ele>
      </trkpt>
      <trkpt lat="42.5353359897" lon="-8.64557898603">
        <ele>42.400333404541016</ele>
      </trkpt>
      <trkpt lat="42.5366099551" lon="-8.64520397969">
        <ele>43.937564849853516</ele>
      </trkpt>
      <trkpt lat="42.537327949" lon="-8.64544797689">
        <ele>42.904720306396484</ele>
      </trkpt>
      <trkpt lat="42.5377759617" lon="-8.64534395747">
        <ele>38.225852966308594</ele>
      </trkpt>
      <trkpt lat="42.5386699755" lon="-8.64479393698">
        <ele>36.17325210571289</ele>
      </trkpt>
      <trkpt lat="42.5392809324" lon="-8.64403294399">
        <ele>37.2533073425293</ele>
      </trkpt>
      <trkpt lat="42.542590946" lon="-8.64264196716">
        <ele>47.810909271240234</ele>
      </trkpt>
      <trkpt lat="42.54367196" lon="-8.6430459749">
        <ele>47.53248977661133</ele>
      </trkpt>
      <trkpt lat="42.5441779755" lon="-8.64256795496">
        <ele>48.51017761230469</ele>
      </trkpt>
      <trkpt lat="42.5448669679" lon="-8.64230895415">
        <ele>47.51784896850586</ele>
      </trkpt>
      <trkpt lat="42.5452559721" lon="-8.6423439905">
        <ele>46.50776672363281</ele>
      </trkpt>
      <trkpt lat="42.5458489917" lon="-8.64268094301">
        <ele>40.936946868896484</ele>
      </trkpt>
      <trkpt lat="42.5473859813" lon="-8.6424399633">
        <ele>42.174903869628906</ele>
      </trkpt>
      <trkpt lat="42.5478049926" lon="-8.64255395718">
        <ele>37.6958122253418</ele>
      </trkpt>
      <trkpt lat="42.5485349726" lon="-8.64140194841">
        <ele>42.44703674316406</ele>
      </trkpt>
      <trkpt lat="42.5493779406" lon="-8.64043593407">
        <ele>36.85981369018555</ele>
      </trkpt>
      <trkpt lat="42.5495409686" lon="-8.63948098384">
        <ele>36.0</ele>
      </trkpt>
      <trkpt lat="42.5514959637" lon="-8.63887195475">
        <ele>33.86581039428711</ele>
      </trkpt>
      <trkpt lat="42.5539809465" lon="-8.6384039931">
        <ele>31.767980575561523</ele>
      </trkpt>
      <trkpt lat="42.5550829992" lon="-8.63779898733">
        <ele>29.756271362304688</ele>
      </trkpt>
      <trkpt lat="42.5579249673" lon="-8.63753998652">
        <ele>34.93104553222656</ele>
      </trkpt>
      <trkpt lat="42.55883893" lon="-8.63794994541">
        <ele>34.83830261230469</ele>
      </trkpt>
      <trkpt lat="42.5601289887" lon="-8.63901595585">
        <ele>38.085784912109375</ele>
      </trkpt>
      <trkpt lat="42.5602109637" lon="-8.63958894275">
        <ele>35.31863021850586</ele>
      </trkpt>
      <trkpt lat="42.5611109287" lon="-8.63959698938">
        <ele>31.771188735961914</ele>
      </trkpt>
      <trkpt lat="42.5614119228" lon="-8.6391619686">
        <ele>34.156036376953125</ele>
      </trkpt>
      <trkpt lat="42.5615439378" lon="-8.63917898387">
        <ele>34.09479904174805</ele>
      </trkpt>
      <trkpt lat="42.5622829702" lon="-8.63971492276">
        <ele>33.6447639465332</ele>
      </trkpt>
      <trkpt lat="42.5623579882" lon="-8.64052394405">
        <ele>30.852832794189453</ele>
      </trkpt>
      <trkpt lat="42.5639609434" lon="-8.64164996892">
        <ele>29.800621032714844</ele>
      </trkpt>
      <trkpt lat="42.5648669433" lon="-8.64181098528">
        <ele>33.16607666015625</ele>
      </trkpt>
      <trkpt lat="42.5667639356" lon="-8.6415789742">
        <ele>30.8903865814209</ele>
      </trkpt>
      <trkpt lat="42.5673279539" lon="-8.64198298194">
        <ele>28.313323974609375</ele>
      </trkpt>
      <trkpt lat="42.5679729413" lon="-8.6421449203">
        <ele>30.05502700805664</ele>
      </trkpt>
      <trkpt lat="42.5684479438" lon="-8.64204098471">
        <ele>32.933082580566406</ele>
      </trkpt>
      <trkpt lat="42.5684559904" lon="-8.64145198837">
        <ele>36.574764251708984</ele>
      </trkpt>
      <trkpt lat="42.5704469439" lon="-8.6416159384">
        <ele>37.109825134277344</ele>
      </trkpt>
      <trkpt lat="42.5706609339" lon="-8.64248497412">
        <ele>38.224365234375</ele>
      </trkpt>
      <trkpt lat="42.5722279307" lon="-8.64312895574">
        <ele>27.276123046875</ele>
      </trkpt>
      <trkpt lat="42.5741879549" lon="-8.64343699068">
        <ele>26.0</ele>
      </trkpt>
      <trkpt lat="42.575582955" lon="-8.64316298626">
        <ele>25.779449462890625</ele>
      </trkpt>
      <trkpt lat="42.5768699963" lon="-8.64314194769">
        <ele>27.142366409301758</ele>
      </trkpt>
      <trkpt lat="42.5778809376" lon="-8.64338493906">
        <ele>25.328096389770508</ele>
      </trkpt>
      <trkpt lat="42.5800739788" lon="-8.64336599596">
        <ele>28.23775291442871</ele>
      </trkpt>
      <trkpt lat="42.58156294" lon="-8.64463694394">
        <ele>26.903196334838867</ele>
      </trkpt>
      <trkpt lat="42.5819679536" lon="-8.64478798583">
        <ele>22.902624130249023</ele>
      </trkpt>
      <trkpt lat="42.5826779846" lon="-8.64458095282">
        <ele>22.30622100830078</ele>
      </trkpt>
      <trkpt lat="42.583329929" lon="-8.64468798973">
        <ele>26.17232322692871</ele>
      </trkpt>
      <trkpt lat="42.5840109587" lon="-8.64505293779">
        <ele>25.59897232055664</ele>
      </trkpt>
      <trkpt lat="42.5848979317" lon="-8.6458659824">
        <ele>24.547679901123047</ele>
      </trkpt>
      <trkpt lat="42.5865099393" lon="-8.64589791745">
        <ele>26.349294662475586</ele>
      </trkpt>
      <trkpt lat="42.5879619364" lon="-8.64527698606">
        <ele>27.148086547851562</ele>
      </trkpt>
      <trkpt lat="42.5894109998" lon="-8.64551595412">
        <ele>26.0</ele>
      </trkpt>
      <trkpt lat="42.5904079434" lon="-8.64490298554">
        <ele>26.62178611755371</ele>
      </trkpt>
      <trkpt lat="42.5913309585" lon="-8.64405892789">
        <ele>28.868412017822266</ele>
      </trkpt>
      <trkpt lat="42.5916459505" lon="-8.64398198202">
        <ele>29.216188430786133</ele>
      </trkpt>
      <trkpt lat="42.5925839692" lon="-8.64425196312">
        <ele>34.20973205566406</ele>
      </trkpt>
      <trkpt lat="42.5944929477" lon="-8.64355098456">
        <ele>44.88046646118164</ele>
      </trkpt>
      <trkpt lat="42.5957899634" lon="-8.64367897622">
        <ele>45.89932632446289</ele>
      </trkpt>
      <trkpt lat="42.5978929829" lon="-8.64356498234">
        <ele>34.98543167114258</ele>
      </trkpt>
      <trkpt lat="42.5983399898" lon="-8.6433239188">
        <ele>33.32587432861328</ele>
      </trkpt>
      <trkpt lat="42.5995039847" lon="-8.64322895184">
        <ele>32.28922653198242</ele>
      </trkpt>
      <trkpt lat="42.5998979341" lon="-8.64293097518">
        <ele>31.11737632751465</ele>
      </trkpt>
      <trkpt lat="42.6002679951" lon="-8.64287397824">
        <ele>29.863941192626953</ele>
      </trkpt>
      <trkpt lat="42.6005309355" lon="-8.6430719588">
        <ele>27.273115158081055</ele>
      </trkpt>
      <trkpt lat="42.6013579778" lon="-8.64302191883">
        <ele>25.0</ele>
      </trkpt>
      <trkpt lat="42.6016519312" lon="-8.64271597937">
        <ele>23.789520263671875</ele>
      </trkpt>
      <trkpt lat="42.6034779288" lon="-8.64232697524">
        <ele>25.486106872558594</ele>
      </trkpt>
      <trkpt lat="42.6036499254" lon="-8.64293592051">
        <ele>26.60969352722168</ele>
      </trkpt>
      <trkpt lat="42.6044119243" lon="-8.64381995983">
        <ele>26.170469284057617</ele>
      </trkpt>
      <trkpt lat="42.6061419491" lon="-8.64538293332">
        <ele>24.771686553955078</ele>
      </trkpt>
      <trkpt lat="42.6064139418" lon="-8.64547496662">
        <ele>25.96761131286621</ele>
      </trkpt>
      <trkpt lat="42.6075899228" lon="-8.64540992305">
        <ele>30.339292526245117</ele>
      </trkpt>
      <trkpt lat="42.6094849873" lon="-8.64490591921">
        <ele>35.065773010253906</ele>
      </trkpt>
      <trkpt lat="42.6101089362" lon="-8.64443494007">
        <ele>31.489055633544922</ele>
      </trkpt>
      <trkpt lat="42.6108889561" lon="-8.64450593479">
        <ele>34.064414978027344</ele>
      </trkpt>
      <trkpt lat="42.6119919308" lon="-8.6441399809">
        <ele>35.18117904663086</ele>
      </trkpt>
      <trkpt lat="42.6137829758" lon="-8.64487398416">
        <ele>42.61595916748047</ele>
      </trkpt>
      <trkpt lat="42.6159499492" lon="-8.64450098947">
        <ele>43.687705993652344</ele>
      </trkpt>
      <trkpt lat="42.6170599647" lon="-8.64477097057">
        <ele>42.628456115722656</ele>
      </trkpt>
      <trkpt lat="42.6181029249" lon="-8.64458899945">
        <ele>45.80415725708008</ele>
      </trkpt>
      <trkpt lat="42.6192059834" lon="-8.64473392256">
        <ele>52.304359436035156</ele>
      </trkpt>
      <trkpt lat="42.6207529474" lon="-8.6442329362">
        <ele>52.92583084106445</ele>
      </trkpt>
      <trkpt lat="42.6220089756" lon="-8.64355592988">
        <ele>56.82549285888672</ele>
      </trkpt>
      <trkpt lat="42.6229299791" lon="-8.6434229929">
        <ele>57.105796813964844</ele>
      </trkpt>
      <trkpt lat="42.6236839313" lon="-8.64381794818">
        <ele>56.7271728515625</ele>
      </trkpt>
      <trkpt lat="42.6256289519" lon="-8.64394099452">
        <ele>58.07976531982422</ele>
      </trkpt>
      <trkpt lat="42.6265369635" lon="-8.64474398084">
        <ele>63.19519805908203</ele>
      </trkpt>
      <trkpt lat="42.6277789939" lon="-8.64513793029">
        <ele>69.63787841796875</ele>
      </trkpt>
      <trkpt lat="42.6295799296" lon="-8.64501496777">
        <ele>68.09525299072266</ele>
      </trkpt>
      <trkpt lat="42.6310149953" lon="-8.64457491785">
        <ele>70.99702453613281</ele>
      </trkpt>
      <trkpt lat="42.6317819394" lon="-8.64452596754">
        <ele>71.47650909423828</ele>
      </trkpt>
      <trkpt lat="42.6323309541" lon="-8.64517296664">
        <ele>76.30626678466797</ele>
      </trkpt>
      <trkpt lat="42.6327169407" lon="-8.64521596581">
        <ele>73.41010284423828</ele>
      </trkpt>
      <trkpt lat="42.6417289954" lon="-8.64298897795">
        <ele>95.41346740722656</ele>
      </trkpt>
      <trkpt lat="42.644611951" lon="-8.64315795712">
        <ele>124.32341766357422</ele>
      </trkpt>
      <trkpt lat="42.6477809809" lon="-8.64456796087">
        <ele>131.0277099609375</ele>
      </trkpt>
      <trkpt lat="42.6493549347" lon="-8.64523692057">
        <ele>140.0</ele>
      </trkpt>
      <trkpt lat="42.6492649969" lon="-8.6453599669">
        <ele>140.0</ele>
      </trkpt>
      <trkpt lat="42.6502759382" lon="-8.64678095095">
        <ele>142.26467895507812</ele>
      </trkpt>
      <trkpt lat="42.650924949" lon="-8.64637593739">
        <ele>141.77899169921875</ele>
      </trkpt>
      <trkpt lat="42.65218894" lon="-8.6455629766">
        <ele>148.40257263183594</ele>
      </trkpt>
      <trkpt lat="42.6537579484" lon="-8.64418691956">
        <ele>159.053466796875</ele>
      </trkpt>
      <trkpt lat="42.6542169414" lon="-8.64423494786">
        <ele>161.15524291992188</ele>
      </trkpt>
      <trkpt lat="42.65484198" lon="-8.64315896295">
        <ele>160.78179931640625</ele>
      </trkpt>
      <trkpt lat="42.6551289763" lon="-8.64300993271">
        <ele>162.62046813964844</ele>
      </trkpt>
      <trkpt lat="42.6554109436" lon="-8.64310598932">
        <ele>165.32403564453125</ele>
      </trkpt>
      <trkpt lat="42.6557799987" lon="-8.64209697582">
        <ele>164.05931091308594</ele>
      </trkpt>
      <trkpt lat="42.6573649328" lon="-8.64278093912">
        <ele>162.64356994628906</ele>
      </trkpt>
      <trkpt lat="42.6579689328" lon="-8.64138493314">
        <ele>166.0</ele>
      </trkpt>
      <trkpt lat="42.6586659718" lon="-8.63968793303">
        <ele>159.24960327148438</ele>
      </trkpt>
      <trkpt lat="42.6586949732" lon="-8.63935894333">
        <ele>156.26637268066406</ele>
      </trkpt>
      <trkpt lat="42.6582079846" lon="-8.63871194422">
        <ele>152.05807495117188</ele>
      </trkpt>
      <trkpt lat="42.6580649894" lon="-8.63806595095">
        <ele>149.89939880371094</ele>
      </trkpt>
      <trkpt lat="42.6583349705" lon="-8.63775799982">
        <ele>148.15240478515625</ele>
      </trkpt>
      <trkpt lat="42.6584699191" lon="-8.63693892024">
        <ele>148.82334899902344</ele>
      </trkpt>
      <trkpt lat="42.6587709971" lon="-8.63644992001">
        <ele>151.0</ele>
      </trkpt>
      <trkpt lat="42.6589429937" lon="-8.63537695259">
        <ele>150.29344177246094</ele>
      </trkpt>
      <trkpt lat="42.6594999712" lon="-8.63520797342">
        <ele>152.2675018310547</ele>
      </trkpt>
      <trkpt lat="42.660984993" lon="-8.63631396554">
        <ele>156.19703674316406</ele>
      </trkpt>
      <trkpt lat="42.6613829657" lon="-8.63640298136">
        <ele>154.43955993652344</ele>
      </trkpt>
      <trkpt lat="42.663393952" lon="-8.63427892327">
        <ele>135.32476806640625</ele>
      </trkpt>
      <trkpt lat="42.6648759563" lon="-8.63343494944">
        <ele>138.14654541015625</ele>
      </trkpt>
      <trkpt lat="42.6658789348" lon="-8.63318894058">
        <ele>135.9622344970703</ele>
      </trkpt>
      <trkpt lat="42.6672269963" lon="-8.63311794586">
        <ele>138.96694946289062</ele>
      </trkpt>
      <trkpt lat="42.6672319416" lon="-8.63381699659">
        <ele>136.1322021484375</ele>
      </trkpt>
      <trkpt lat="42.6692749467" lon="-8.63386192359">
        <ele>128.9029541015625</ele>
      </trkpt>
      <trkpt lat="42.6727949269" lon="-8.63297997974">
        <ele>118.56293487548828</ele>
      </trkpt>
      <trkpt lat="42.6746699587" lon="-8.63344391808">
        <ele>125.5293960571289</ele>
      </trkpt>
      <trkpt lat="42.6750229206" lon="-8.63569295034">
        <ele>141.0877685546875</ele>
      </trkpt>
      <trkpt lat="42.6754359808" lon="-8.63700798713">
        <ele>136.2117156982422</ele>
      </trkpt>
      <trkpt lat="42.6764739957" lon="-8.63864195533">
        <ele>135.8700408935547</ele>
      </trkpt>
      <trkpt lat="42.6769019756" lon="-8.63826292567">
        <ele>134.60830688476562</ele>
      </trkpt>
      <trkpt lat="42.6772919856" lon="-8.63719398156">
        <ele>126.58417510986328</ele>
      </trkpt>
      <trkpt lat="42.6775259245" lon="-8.63705693744">
        <ele>121.9598388671875</ele>
      </trkpt>
      <trkpt lat="42.6784809586" lon="-8.63693397492">
        <ele>110.01280212402344</ele>
      </trkpt>
      <trkpt lat="42.6789929252" lon="-8.63737997599">
        <ele>106.96199798583984</ele>
      </trkpt>
      <trkpt lat="42.6791359205" lon="-8.63716799766">
        <ele>98.94625854492188</ele>
      </trkpt>
      <trkpt lat="42.6792759821" lon="-8.6373249907">
        <ele>98.73477935791016</ele>
      </trkpt>
      <trkpt lat="42.6803859975" lon="-8.63631698303">
        <ele>81.07150268554688</ele>
      </trkpt>
      <trkpt lat="42.6808229461" lon="-8.63611296751">
        <ele>79.43427276611328</ele>
      </trkpt>
      <trkpt lat="42.6825079601" lon="-8.63706791773">
        <ele>80.53652954101562</ele>
      </trkpt>
      <trkpt lat="42.6831519417" lon="-8.63704998046">
        <ele>78.02820587158203</ele>
      </trkpt>
      <trkpt lat="42.68366592" lon="-8.63665292971">
        <ele>69.09705352783203</ele>
      </trkpt>
      <trkpt lat="42.6842419244" lon="-8.63653994165">
        <ele>68.94969940185547</ele>
      </trkpt>
      <trkpt lat="42.6854399499" lon="-8.63719297573">
        <ele>76.62272644042969</ele>
      </trkpt>
      <trkpt lat="42.6856929995" lon="-8.63710798323">
        <ele>71.75586700439453</ele>
      </trkpt>
      <trkpt lat="42.6865109894" lon="-8.63751199096">
        <ele>77.67485046386719</ele>
      </trkpt>
      <trkpt lat="42.6867069583" lon="-8.63778691739">
        <ele>81.45413208007812</ele>
      </trkpt>
      <trkpt lat="42.6869549789" lon="-8.63759396598">
        <ele>75.55403137207031</ele>
      </trkpt>
      <trkpt lat="42.6879259385" lon="-8.63782497123">
        <ele>71.81063842773438</ele>
      </trkpt>
      <trkpt lat="42.6884469576" lon="-8.63850097172">
        <ele>74.44256591796875</ele>
      </trkpt>
      <trkpt lat="42.6892519556" lon="-8.63806494512">
        <ele>58.12535858154297</ele>
      </trkpt>
      <trkpt lat="42.6896759961" lon="-8.63832193427">
        <ele>59.63355255126953</ele>
      </trkpt>
      <trkpt lat="42.6902349852" lon="-8.63840893842">
        <ele>51.1358757019043</ele>
      </trkpt>
      <trkpt lat="42.6905469596" lon="-8.63868797198">
        <ele>50.85210418701172</ele>
      </trkpt>
      <trkpt lat="42.6910179388" lon="-8.63754292019">
        <ele>48.913211822509766</ele>
      </trkpt>
      <trkpt lat="42.6926359814" lon="-8.63747192547">
        <ele>53.96646499633789</ele>
      </trkpt>
      <trkpt lat="42.6940239407" lon="-8.63813099451">
        <ele>58.63491439819336</ele>
      </trkpt>
      <trkpt lat="42.6957219467" lon="-8.63834397867">
        <ele>61.10662841796875</ele>
      </trkpt>
      <trkpt lat="42.6966089197" lon="-8.6393579375">
        <ele>65.09259796142578</ele>
      </trkpt>
      <trkpt lat="42.6965279505" lon="-8.63984995522">
        <ele>59.6323356628418</ele>
      </trkpt>
      <trkpt lat="42.6966659166" lon="-8.64036896266">
        <ele>56.81550598144531</ele>
      </trkpt>
      <trkpt lat="42.6972199604" lon="-8.64081295207">
        <ele>60.67779541015625</ele>
      </trkpt>
      <trkpt lat="42.6985389367" lon="-8.64096994512">
        <ele>63.70395278930664</ele>
      </trkpt>
      <trkpt lat="42.6990779769" lon="-8.64065294154">
        <ele>65.19670867919922</ele>
      </trkpt>
      <trkpt lat="42.6994159352" lon="-8.64011096768">
        <ele>67.42974090576172</ele>
      </trkpt>
      <trkpt lat="42.6999079529" lon="-8.6402079463">
        <ele>64.64346313476562</ele>
      </trkpt>
      <trkpt lat="42.700951919" lon="-8.64006796852">
        <ele>69.90333557128906</ele>
      </trkpt>
      <trkpt lat="42.7011859417" lon="-8.64014097489">
        <ele>66.89777374267578</ele>
      </trkpt>
      <trkpt lat="42.7016639616" lon="-8.64109994844">
        <ele>68.39606475830078</ele>
      </trkpt>
      <trkpt lat="42.7015029453" lon="-8.64189195447">
        <ele>67.74913024902344</ele>
      </trkpt>
      <trkpt lat="42.7017969824" lon="-8.64222798496">
        <ele>69.38883972167969</ele>
      </trkpt>
      <trkpt lat="42.7027199976" lon="-8.64209596999">
        <ele>71.01447296142578</ele>
      </trkpt>
      <trkpt lat="42.7054489776" lon="-8.64238891751">
        <ele>73.67356872558594</ele>
      </trkpt>
      <trkpt lat="42.7056999318" lon="-8.64254297689">
        <ele>69.63703155517578</ele>
      </trkpt>
      <trkpt lat="42.7059319429" lon="-8.64297397435">
        <ele>63.90635681152344</ele>
      </trkpt>
      <trkpt lat="42.7060629521" lon="-8.64408893511">
        <ele>62.906368255615234</ele>
      </trkpt>
      <trkpt lat="42.7065779362" lon="-8.64475898445">
        <ele>60.49879837036133</ele>
      </trkpt>
      <trkpt lat="42.7064829692" lon="-8.64534295164">
        <ele>53.953617095947266</ele>
      </trkpt>
      <trkpt lat="42.7068439778" lon="-8.64748695865">
        <ele>30.388790130615234</ele>
      </trkpt>
      <trkpt lat="42.7074389253" lon="-8.64756197669">
        <ele>29.276060104370117</ele>
      </trkpt>
      <trkpt lat="42.7091519348" lon="-8.64715092815">
        <ele>33.54541015625</ele>
      </trkpt>
      <trkpt lat="42.7102279197" lon="-8.64728093147">
        <ele>32.302181243896484</ele>
      </trkpt>
      <trkpt lat="42.7118609659" lon="-8.64707498811">
        <ele>33.16475296020508</ele>
      </trkpt>
      <trkpt lat="42.7134279627" lon="-8.64742694423">
        <ele>33.358455657958984</ele>
      </trkpt>
      <trkpt lat="42.7150369529" lon="-8.64818693139">
        <ele>30.350385665893555</ele>
      </trkpt>
      <trkpt lat="42.7169129904" lon="-8.64863594994">
        <ele>31.448436737060547</ele>
      </trkpt>
      <trkpt lat="42.7178229298" lon="-8.64857199602">
        <ele>32.757606506347656</ele>
      </trkpt>
      <trkpt lat="42.7187039517" lon="-8.6491519399">
        <ele>24.837547302246094</ele>
      </trkpt>
      <trkpt lat="42.7196529508" lon="-8.64895496517">
        <ele>29.291046142578125</ele>
      </trkpt>
      <trkpt lat="42.7198599838" lon="-8.6494549457">
        <ele>27.55228614807129</ele>
      </trkpt>
      <trkpt lat="42.7202019654" lon="-8.64951294847">
        <ele>29.91672706604004</ele>
      </trkpt>
      <trkpt lat="42.7209049556" lon="-8.65021493286">
        <ele>31.71583366394043</ele>
      </trkpt>
      <trkpt lat="42.7222189866" lon="-8.64981394261">
        <ele>38.991127014160156</ele>
      </trkpt>
      <trkpt lat="42.7235969715" lon="-8.65053394809">
        <ele>25.82623291015625</ele>
      </trkpt>
      <trkpt lat="42.7253039461" lon="-8.65041391924">
        <ele>21.77208709716797</ele>
      </trkpt>
      <trkpt lat="42.7256219555" lon="-8.65052397363">
        <ele>19.571582794189453</ele>
      </trkpt>
      <trkpt lat="42.7261309884" lon="-8.6509889178">
        <ele>11.92703914642334</ele>
      </trkpt>
      <trkpt lat="42.7256469335" lon="-8.6527699884">
        <ele>7.284145832061768</ele>
      </trkpt>
      <trkpt lat="42.7255079616" lon="-8.65551296622">
        <ele>4.691208839416504</ele>
      </trkpt>
      <trkpt lat="42.7258079499" lon="-8.65590993315">
        <ele>5.6828742027282715</ele>
      </trkpt>
      <trkpt lat="42.726196954" lon="-8.65604597144">
        <ele>7.390505313873291</ele>
      </trkpt>
      <trkpt lat="42.7263389435" lon="-8.6558449734">
        <ele>7.886102676391602</ele>
      </trkpt>
      <trkpt lat="42.7262339182" lon="-8.65574095398">
        <ele>7.5117363929748535</ele>
      </trkpt>
      <trkpt lat="42.7257729974" lon="-8.65658392198">
        <ele>5.102659225463867</ele>
      </trkpt>
      <trkpt lat="42.7260759193" lon="-8.65771799348">
        <ele>7.0</ele>
      </trkpt>
      <trkpt lat="42.726403987" lon="-8.65841897205">
        <ele>4.850075721740723</ele>
      </trkpt>
      <trkpt lat="42.7267139498" lon="-8.65844395012">
        <ele>4.520359039306641</ele>
      </trkpt>
      <trkpt lat="42.7268029656" lon="-8.65861292928">
        <ele>3.2639362812042236</ele>
      </trkpt>
      <trkpt lat="42.7269449551" lon="-8.65964197554">
        <ele>3.4484856128692627</ele>
      </trkpt>
      <trkpt lat="42.7272349689" lon="-8.66004497744">
        <ele>4.639350414276123</ele>
      </trkpt>
      <trkpt lat="42.7271319553" lon="-8.66127896123">
        <ele>4.0</ele>
      </trkpt>
      <trkpt lat="42.7300379612" lon="-8.66089892574">
        <ele>5.924721717834473</ele>
      </trkpt>
      <trkpt lat="42.7309319749" lon="-8.66093697958">
        <ele>3.797193765640259</ele>
      </trkpt>
      <trkpt lat="42.7340149228" lon="-8.66163494065">
        <ele>5.7802276611328125</ele>
      </trkpt>
      <trkpt lat="42.7342229616" lon="-8.66151591763">
        <ele>5.031496047973633</ele>
      </trkpt>
      <trkpt lat="42.7349889837" lon="-8.66163795814">
        <ele>4.725417613983154</ele>
      </trkpt>
      <trkpt lat="42.7352799196" lon="-8.66140795872">
        <ele>6.544991970062256</ele>
      </trkpt>
      <trkpt lat="42.7358579356" lon="-8.66130595095">
        <ele>6.0</ele>
      </trkpt>
      <trkpt lat="42.7379789762" lon="-8.66152597591">
        <ele>11.667967796325684</ele>
      </trkpt>
      <trkpt lat="42.7388529573" lon="-8.66150099784">
        <ele>12.757863998413086</ele>
      </trkpt>
      <trkpt lat="42.7391559631" lon="-8.66121098399">
        <ele>13.079246520996094</ele>
      </trkpt>
      <trkpt lat="42.7396929916" lon="-8.66127099842">
        <ele>10.275344848632812</ele>
      </trkpt>
      <trkpt lat="42.7399979252" lon="-8.66020699963">
        <ele>9.15716552734375</ele>
      </trkpt>
      <trkpt lat="42.7418029681" lon="-8.65923997946">
        <ele>8.0</ele>
      </trkpt>
      <trkpt lat="42.7434079349" lon="-8.6575969588">
        <ele>6.0</ele>
      </trkpt>
      <trkpt lat="42.7443309501" lon="-8.65715196356">
        <ele>7.0</ele>
      </trkpt>
      <trkpt lat="42.7457339969" lon="-8.65462196991">
        <ele>10.515487670898438</ele>
      </trkpt>
      <trkpt lat="42.7461829316" lon="-8.65495598875">
        <ele>12.686646461486816</ele>
      </trkpt>
      <trkpt lat="42.747173924" lon="-8.65481995046">
        <ele>11.0</ele>
      </trkpt>
      <trkpt lat="42.7478419617" lon="-8.65496596321">
        <ele>11.705833435058594</ele>
      </trkpt>
      <trkpt lat="42.7484549303" lon="-8.65473395213">
        <ele>13.0</ele>
      </trkpt>
      <trkpt lat="42.7485849336" lon="-8.65452398546">
        <ele>12.789112091064453</ele>
      </trkpt>
      <trkpt lat="42.7497469168" lon="-8.65425693803">
        <ele>14.84920883178711</ele>
      </trkpt>
      <trkpt lat="42.7553359699" lon="-8.65207596682">
        <ele>19.357107162475586</ele>
      </trkpt>
      <trkpt lat="42.756170975" lon="-8.65157992579">
        <ele>21.49560546875</ele>
      </trkpt>
      <trkpt lat="42.7582099568" lon="-8.65117197856">
        <ele>22.527420043945312</ele>
      </trkpt>
      <trkpt lat="42.7598219644" lon="-8.65109193139">
        <ele>32.05874252319336</ele>
      </trkpt>
      <trkpt lat="42.7599979844" lon="-8.65132595412">
        <ele>27.110580444335938</ele>
      </trkpt>
      <trkpt lat="42.7602129802" lon="-8.6534799356">
        <ele>13.251338005065918</ele>
      </trkpt>
      <trkpt lat="42.7620929573" lon="-8.65379392169">
        <ele>12.759525299072266</ele>
      </trkpt>
      <trkpt lat="42.7629519347" lon="-8.65366199054">
        <ele>14.576820373535156</ele>
      </trkpt>
      <trkpt lat="42.7634449583" lon="-8.65435492247">
        <ele>11.615069389343262</ele>
      </trkpt>
      <trkpt lat="42.7641629521" lon="-8.65464996547">
        <ele>11.4147310256958</ele>
      </trkpt>
      <trkpt lat="42.7649199218" lon="-8.65540592931">
        <ele>11.0</ele>
      </trkpt>
      <trkpt lat="42.7653109375" lon="-8.65534398705">
        <ele>11.0</ele>
      </trkpt>
      <trkpt lat="42.7655759733" lon="-8.65503695793">
        <ele>11.021944999694824</ele>
      </trkpt>
      <trkpt lat="42.7658889536" lon="-8.65417697467">
        <ele>15.920278549194336</ele>
      </trkpt>
      <trkpt lat="42.7663539816" lon="-8.65410296246">
        <ele>17.775341033935547</ele>
      </trkpt>
      <trkpt lat="42.7665379643" lon="-8.65418896079">
        <ele>16.92611312866211</ele>
      </trkpt>
      <trkpt lat="42.7667969652" lon="-8.65511499345">
        <ele>14.02093505859375</ele>
      </trkpt>
      <trkpt lat="42.7670409624" lon="-8.65542093292">
        <ele>10.280038833618164</ele>
      </trkpt>
      <trkpt lat="42.7671769168" lon="-8.65537298843">
        <ele>10.625143051147461</ele>
      </trkpt>
      <trkpt lat="42.7695829421" lon="-8.65351798944">
        <ele>16.458166122436523</ele>
      </trkpt>
      <trkpt lat="42.7698989399" lon="-8.65311498754">
        <ele>18.36635971069336</ele>
      </trkpt>
      <trkpt lat="42.770470921" lon="-8.65372896194">
        <ele>19.0</ele>
      </trkpt>
      <trkpt lat="42.770419959" lon="-8.65423095413">
        <ele>20.24150848388672</ele>
      </trkpt>
      <trkpt lat="42.7712149825" lon="-8.65457997657">
        <ele>24.666757583618164</ele>
      </trkpt>
      <trkpt lat="42.7713229414" lon="-8.65410497412">
        <ele>22.11518669128418</ele>
      </trkpt>
      <trkpt lat="42.7738739736" lon="-8.65360097028">
        <ele>28.0</ele>
      </trkpt>
      <trkpt lat="42.7741139475" lon="-8.65407094359">
        <ele>29.03754234313965</ele>
      </trkpt>
      <trkpt lat="42.7768359706" lon="-8.65358998999">
        <ele>30.79549217224121</ele>
      </trkpt>
      <trkpt lat="42.7775879949" lon="-8.65373499691">
        <ele>22.415407180786133</ele>
      </trkpt>
      <trkpt lat="42.7779869735" lon="-8.65345797502">
        <ele>24.6389217376709</ele>
      </trkpt>
      <trkpt lat="42.778794989" lon="-8.65349795669">
        <ele>25.56081199645996</ele>
      </trkpt>
      <trkpt lat="42.7800499275" lon="-8.65187798627">
        <ele>29.0</ele>
      </trkpt>
      <trkpt lat="42.7802369278" lon="-8.65109696053">
        <ele>30.831212997436523</ele>
      </trkpt>
      <trkpt lat="42.7841299865" lon="-8.65006397478">
        <ele>37.17523956298828</ele>
      </trkpt>
      <trkpt lat="42.7845929191" lon="-8.64984897897">
        <ele>39.8304557800293</ele>
      </trkpt>
      <trkpt lat="42.7849089168" lon="-8.64905496128">
        <ele>45.981224060058594</ele>
      </trkpt>
      <trkpt lat="42.7860649489" lon="-8.64782298915">
        <ele>50.422210693359375</ele>
      </trkpt>
      <trkpt lat="42.7862629294" lon="-8.64776792005">
        <ele>50.1832160949707</ele>
      </trkpt>
      <trkpt lat="42.7869559452" lon="-8.64808098413">
        <ele>48.86751937866211</ele>
      </trkpt>
      <trkpt lat="42.7875789721" lon="-8.64773095585">
        <ele>49.32264709472656</ele>
      </trkpt>
      <trkpt lat="42.7881189343" lon="-8.6477029603">
        <ele>46.89388656616211</ele>
      </trkpt>
      <trkpt lat="42.7881819662" lon="-8.64715696312">
        <ele>50.59712219238281</ele>
      </trkpt>
      <trkpt lat="42.7898849174" lon="-8.64662194625">
        <ele>49.319252014160156</ele>
      </trkpt>
      <trkpt lat="42.790068984" lon="-8.64490399137">
        <ele>59.961978912353516</ele>
      </trkpt>
      <trkpt lat="42.7914999425" lon="-8.6448129639">
        <ele>67.74458312988281</ele>
      </trkpt>
      <trkpt lat="42.7919339575" lon="-8.64463593811">
        <ele>68.54478454589844</ele>
      </trkpt>
      <trkpt lat="42.7944129892" lon="-8.64173194394">
        <ele>61.03609848022461</ele>
      </trkpt>
      <trkpt lat="42.7948269714" lon="-8.64173797891">
        <ele>58.0</ele>
      </trkpt>
      <trkpt lat="42.7955959272" lon="-8.64233292639">
        <ele>45.68892288208008</ele>
      </trkpt>
      <trkpt lat="42.796149971" lon="-8.64151795395">
        <ele>43.82220458984375</ele>
      </trkpt>
      <trkpt lat="42.7965299226" lon="-8.63999596797">
        <ele>44.57745361328125</ele>
      </trkpt>
      <trkpt lat="42.7964089718" lon="-8.63947092555">
        <ele>46.760284423828125</ele>
      </trkpt>
      <trkpt lat="42.7965279948" lon="-8.63908896223">
        <ele>48.03034591674805</ele>
      </trkpt>
      <trkpt lat="42.7973529417" lon="-8.63871697336">
        <ele>41.41093444824219</ele>
      </trkpt>
      <trkpt lat="42.797872955" lon="-8.63797995262">
        <ele>40.77537536621094</ele>
      </trkpt>
      <trkpt lat="42.798073953" lon="-8.63795497455">
        <ele>40.50000762939453</ele>
      </trkpt>
      <trkpt lat="42.7984669805" lon="-8.63702399656">
        <ele>42.81725311279297</ele>
      </trkpt>
      <trkpt lat="42.7992089465" lon="-8.63641899079">
        <ele>45.0560302734375</ele>
      </trkpt>
      <trkpt lat="42.7989419829" lon="-8.63552698866">
        <ele>49.23833084106445</ele>
      </trkpt>
      <trkpt lat="42.7997059934" lon="-8.6344829388">
        <ele>57.2797737121582</ele>
      </trkpt>
      <trkpt lat="42.8003029525" lon="-8.63594197668">
        <ele>54.11601638793945</ele>
      </trkpt>
      <trkpt lat="42.8008919489" lon="-8.63646492362">
        <ele>53.72540283203125</ele>
      </trkpt>
      <trkpt lat="42.8013449907" lon="-8.63733496517">
        <ele>47.731422424316406</ele>
      </trkpt>
      <trkpt lat="42.8021489829" lon="-8.63795396872">
        <ele>46.0</ele>
      </trkpt>
      <trkpt lat="42.8071809746" lon="-8.63353896886">
        <ele>61.75997543334961</ele>
      </trkpt>
      <trkpt lat="42.808737997" lon="-8.63172797486">
        <ele>67.05137634277344</ele>
      </trkpt>
      <trkpt lat="42.8094019275" lon="-8.63063296303">
        <ele>71.1662368774414</ele>
      </trkpt>
      <trkpt lat="42.8098709788" lon="-8.6285289377">
        <ele>75.6727294921875</ele>
      </trkpt>
      <trkpt lat="42.8093889356" lon="-8.6261599604">
        <ele>65.52740478515625</ele>
      </trkpt>
      <trkpt lat="42.8097679652" lon="-8.62505698577">
        <ele>66.98475646972656</ele>
      </trkpt>
      <trkpt lat="42.810202986" lon="-8.62438693643">
        <ele>72.73224639892578</ele>
      </trkpt>
      <trkpt lat="42.8114099801" lon="-8.62359291874">
        <ele>71.62557220458984</ele>
      </trkpt>
      <trkpt lat="42.8119559772" lon="-8.62266797572">
        <ele>82.67102813720703</ele>
      </trkpt>
      <trkpt lat="42.8130999394" lon="-8.62205693498">
        <ele>91.12971496582031</ele>
      </trkpt>
      <trkpt lat="42.8134219721" lon="-8.62172593363">
        <ele>90.10319519042969</ele>
      </trkpt>
      <trkpt lat="42.8140189312" lon="-8.62033193931">
        <ele>98.61688232421875</ele>
      </trkpt>
      <trkpt lat="42.8142449912" lon="-8.62036295235">
        <ele>101.8712387084961</ele>
      </trkpt>
      <trkpt lat="42.8145629168" lon="-8.62005198374">
        <ele>103.17914581298828</ele>
      </trkpt>
      <trkpt lat="42.8148089256" lon="-8.62137892283">
        <ele>100.0</ele>
      </trkpt>
      <trkpt lat="42.8155339602" lon="-8.62215592526">
        <ele>100.9176254272461</ele>
      </trkpt>
      <trkpt lat="42.8160229605" lon="-8.62212197855">
        <ele>97.81765747070312</ele>
      </trkpt>
      <trkpt lat="42.8163309954" lon="-8.62163197249">
        <ele>92.50700378417969</ele>
      </trkpt>
      <trkpt lat="42.8167719673" lon="-8.62133994699">
        <ele>91.82730102539062</ele>
      </trkpt>
      <trkpt lat="42.817993965" lon="-8.62102394924">
        <ele>100.25064849853516</ele>
      </trkpt>
      <trkpt lat="42.8192059882" lon="-8.61972492188">
        <ele>114.46732330322266</ele>
      </trkpt>
      <trkpt lat="42.8193929885" lon="-8.61917498522">
        <ele>115.48636627197266</ele>
      </trkpt>
      <trkpt lat="42.819754919" lon="-8.61872998998">
        <ele>120.77559661865234</ele>
      </trkpt>
      <trkpt lat="42.8205919359" lon="-8.61810595728">
        <ele>127.87384033203125</ele>
      </trkpt>
      <trkpt lat="42.8207899164" lon="-8.61705092713">
        <ele>124.4310073852539</ele>
      </trkpt>
      <trkpt lat="42.8213549405" lon="-8.61696199514">
        <ele>121.49723052978516</ele>
      </trkpt>
      <trkpt lat="42.8213259391" lon="-8.61567696556">
        <ele>125.54785919189453</ele>
      </trkpt>
      <trkpt lat="42.8218979202" lon="-8.61538695171">
        <ele>126.0</ele>
      </trkpt>
      <trkpt lat="42.822848931" lon="-8.61390897073">
        <ele>125.06660461425781</ele>
      </trkpt>
      <trkpt lat="42.8243539855" lon="-8.61292996444">
        <ele>124.86486053466797</ele>
      </trkpt>
      <trkpt lat="42.8244549874" lon="-8.61270398833">
        <ele>124.95113372802734</ele>
      </trkpt>
      <trkpt lat="42.823476987" lon="-8.61163596623">
        <ele>130.2221221923828</ele>
      </trkpt>
      <trkpt lat="42.8235099278" lon="-8.61149196513">
        <ele>130.74038696289062</ele>
      </trkpt>
      <trkpt lat="42.8248189297" lon="-8.61088796519">
        <ele>125.9765853881836</ele>
      </trkpt>
      <trkpt lat="42.8261299431" lon="-8.61107395962">
        <ele>124.49696350097656</ele>
      </trkpt>
      <trkpt lat="42.828003969" lon="-8.61021095887">
        <ele>128.64927673339844</ele>
      </trkpt>
      <trkpt lat="42.8282569349" lon="-8.60968993977">
        <ele>127.8290786743164</ele>
      </trkpt>
      <trkpt lat="42.828223994" lon="-8.60870699398">
        <ele>133.87648010253906</ele>
      </trkpt>
      <trkpt lat="42.8288179357" lon="-8.60804197378">
        <ele>142.32522583007812</ele>
      </trkpt>
      <trkpt lat="42.8290579934" lon="-8.60620399006">
        <ele>138.17657470703125</ele>
      </trkpt>
      <trkpt lat="42.8294319939" lon="-8.60585597344">
        <ele>137.30032348632812</ele>
      </trkpt>
      <trkpt lat="42.8307729308" lon="-8.60544391908">
        <ele>145.52191162109375</ele>
      </trkpt>
      <trkpt lat="42.8314809501" lon="-8.60495399684">
        <ele>148.27044677734375</ele>
      </trkpt>
      <trkpt lat="42.8329439275" lon="-8.60237396322">
        <ele>160.50506591796875</ele>
      </trkpt>
      <trkpt lat="42.8334409744" lon="-8.60109999776">
        <ele>165.1624755859375</ele>
      </trkpt>
      <trkpt lat="42.8341549449" lon="-8.60067293979">
        <ele>169.6780548095703</ele>
      </trkpt>
      <trkpt lat="42.8352569975" lon="-8.59958195128">
        <ele>170.19454956054688</ele>
      </trkpt>
      <trkpt lat="42.836266933" lon="-8.59763491899">
        <ele>177.4505615234375</ele>
      </trkpt>
      <trkpt lat="42.8365409374" lon="-8.59558696859">
        <ele>184.0546417236328</ele>
      </trkpt>
      <trkpt lat="42.836347986" lon="-8.59450193122">
        <ele>190.4505157470703</ele>
      </trkpt>
      <trkpt lat="42.8364189807" lon="-8.59353692271">
        <ele>196.7657470703125</ele>
      </trkpt>
      <trkpt lat="42.8366769757" lon="-8.59217293561">
        <ele>204.29946899414062</ele>
      </trkpt>
      <trkpt lat="42.8357179184" lon="-8.59142191708">
        <ele>207.5022430419922</ele>
      </trkpt>
      <trkpt lat="42.8352279961" lon="-8.59069596045">
        <ele>211.51434326171875</ele>
      </trkpt>
      <trkpt lat="42.8350769542" lon="-8.59017393552">
        <ele>209.55010986328125</ele>
      </trkpt>
      <trkpt lat="42.8354599234" lon="-8.58991392888">
        <ele>208.4414825439453</ele>
      </trkpt>
      <trkpt lat="42.8351279162" lon="-8.58906593174">
        <ele>201.7992401123047</ele>
      </trkpt>
      <trkpt lat="42.8352239728" lon="-8.58900591731">
        <ele>202.274658203125</ele>
      </trkpt>
      <trkpt lat="42.8358649369" lon="-8.5900179483">
        <ele>210.5052490234375</ele>
      </trkpt>
      <trkpt lat="42.836178923" lon="-8.58992893249">
        <ele>210.43771362304688</ele>
      </trkpt>
      <trkpt lat="42.8380159847" lon="-8.58675193973">
        <ele>210.0</ele>
      </trkpt>
      <trkpt lat="42.8396619391" lon="-8.58830996789">
        <ele>210.0</ele>
      </trkpt>
      <trkpt lat="42.8415049519" lon="-8.58374794945">
        <ele>230.0293731689453</ele>
      </trkpt>
      <trkpt lat="42.8421149869" lon="-8.58290296979">
        <ele>236.8965606689453</ele>
      </trkpt>
      <trkpt lat="42.8429649957" lon="-8.58225697652">
        <ele>240.28823852539062</ele>
      </trkpt>
      <trkpt lat="42.8436419182" lon="-8.58142498881">
        <ele>247.6702423095703</ele>
      </trkpt>
      <trkpt lat="42.844849918" lon="-8.58064798638">
        <ele>250.2299041748047</ele>
      </trkpt>
      <trkpt lat="42.8455039579" lon="-8.5804789234">
        <ele>249.94981384277344</ele>
      </trkpt>
      <trkpt lat="42.8485979699" lon="-8.58010995202">
        <ele>246.60418701171875</ele>
      </trkpt>
      <trkpt lat="42.8492089268" lon="-8.58030097559">
        <ele>249.8030242919922</ele>
      </trkpt>
      <trkpt lat="42.8499419242" lon="-8.58018899336">
        <ele>253.27696228027344</ele>
      </trkpt>
      <trkpt lat="42.8512419574" lon="-8.58039594255">
        <ele>248.0</ele>
      </trkpt>
      <trkpt lat="42.8524269909" lon="-8.57965598814">
        <ele>250.6819305419922</ele>
      </trkpt>
      <trkpt lat="42.8554679453" lon="-8.57926798984">
        <ele>252.65846252441406</ele>
      </trkpt>
      <trkpt lat="42.8563789744" lon="-8.57942498289">
        <ele>254.78395080566406</ele>
      </trkpt>
      <trkpt lat="42.857902972" lon="-8.57834095135">
        <ele>237.95799255371094</ele>
      </trkpt>
      <trkpt lat="42.8582619689" lon="-8.57823894359">
        <ele>237.03309631347656</ele>
      </trkpt>
      <trkpt lat="42.8600779921" lon="-8.58060993254">
        <ele>233.30953979492188</ele>
      </trkpt>
      <trkpt lat="42.8616959509" lon="-8.57996393926">
        <ele>227.46592712402344</ele>
      </trkpt>
      <trkpt lat="42.8629359696" lon="-8.57822494581">
        <ele>219.26174926757812</ele>
      </trkpt>
      <trkpt lat="42.8639569692" lon="-8.57732397504">
        <ele>207.08311462402344</ele>
      </trkpt>
      <trkpt lat="42.8645599633" lon="-8.57609996572">
        <ele>187.66477966308594</ele>
      </trkpt>
      <trkpt lat="42.8642079234" lon="-8.57529496774">
        <ele>186.63336181640625</ele>
      </trkpt>
      <trkpt lat="42.863291949" lon="-8.57456197031">
        <ele>193.02130126953125</ele>
      </trkpt>
      <trkpt lat="42.8634159174" lon="-8.57413399033">
        <ele>191.6762237548828</ele>
      </trkpt>
      <trkpt lat="42.8637549654" lon="-8.57425091788">
        <ele>194.30844116210938</ele>
      </trkpt>
      <trkpt lat="42.865014933" lon="-8.57603391632">
        <ele>183.24461364746094</ele>
      </trkpt>
      <trkpt lat="42.8658759221" lon="-8.57507695444">
        <ele>173.08322143554688</ele>
      </trkpt>
      <trkpt lat="42.8660999704" lon="-8.57399694622">
        <ele>167.69674682617188</ele>
      </trkpt>
      <trkpt lat="42.8656509519" lon="-8.57258493081">
        <ele>168.8544158935547</ele>
      </trkpt>
      <trkpt lat="42.8657979704" lon="-8.57181496918">
        <ele>161.47608947753906</ele>
      </trkpt>
      <trkpt lat="42.8622279502" lon="-8.56976693496">
        <ele>179.20240783691406</ele>
      </trkpt>
      <trkpt lat="42.8618689533" lon="-8.56978093274">
        <ele>178.29202270507812</ele>
      </trkpt>
      <trkpt lat="42.861744985" lon="-8.5694619175">
        <ele>182.9268341064453</ele>
      </trkpt>
      <trkpt lat="42.8624519985" lon="-8.56816096231">
        <ele>184.9296875</ele>
      </trkpt>
      <trkpt lat="42.8624069877" lon="-8.5670699738">
        <ele>186.60569763183594</ele>
      </trkpt>
      <trkpt lat="42.8631109837" lon="-8.56632398441">
        <ele>189.67306518554688</ele>
      </trkpt>
      <trkpt lat="42.8632779513" lon="-8.56591494754">
        <ele>188.45582580566406</ele>
      </trkpt>
      <trkpt lat="42.8629669826" lon="-8.56526895426">
        <ele>189.31826782226562</ele>
      </trkpt>
      <trkpt lat="42.8625069838" lon="-8.56343893334">
        <ele>179.67453002929688</ele>
      </trkpt>
      <trkpt lat="42.8619809356" lon="-8.56280693784">
        <ele>178.08436584472656</ele>
      </trkpt>
      <trkpt lat="42.8623689339" lon="-8.56299092062">
        <ele>178.24278259277344</ele>
      </trkpt>
      <trkpt lat="42.8628479596" lon="-8.56103994884">
        <ele>175.52432250976562</ele>
      </trkpt>
      <trkpt lat="42.8629319463" lon="-8.558724951">
        <ele>185.4899444580078</ele>
      </trkpt>
      <trkpt lat="42.8623689339" lon="-8.55747294612">
        <ele>197.2986602783203</ele>
      </trkpt>
      <trkpt lat="42.8626849316" lon="-8.5563999787">
        <ele>204.71328735351562</ele>
      </trkpt>
      <trkpt lat="42.8636509459" lon="-8.55592095293">
        <ele>204.740478515625</ele>
      </trkpt>
      <trkpt lat="42.8637409676" lon="-8.55552197434">
        <ele>206.28024291992188</ele>
      </trkpt>
      <trkpt lat="42.8639539517" lon="-8.55547193438">
        <ele>207.22686767578125</ele>
      </trkpt>
      <trkpt lat="42.8642619867" lon="-8.55575398542">
        <ele>209.2783660888672</ele>
      </trkpt>
      <trkpt lat="42.865485996" lon="-8.55498896912">
        <ele>211.6157989501953</ele>
      </trkpt>
      <trkpt lat="42.8667199798" lon="-8.55449192226">
        <ele>221.7088623046875</ele>
      </trkpt>
      <trkpt lat="42.8671079781" lon="-8.55415396392">
        <ele>224.34356689453125</ele>
      </trkpt>
      <trkpt lat="42.8693779651" lon="-8.55327294208">
        <ele>229.4586639404297</ele>
      </trkpt>
      <trkpt lat="42.8701529559" lon="-8.55244598351">
        <ele>224.5062255859375</ele>
      </trkpt>
      <trkpt lat="42.87118393" lon="-8.55201398022">
        <ele>230.1787872314453</ele>
      </trkpt>
      <trkpt lat="42.8720249701" lon="-8.55196494609">
        <ele>235.8359375</ele>
      </trkpt>
      <trkpt lat="42.8723679576" lon="-8.55143395253">
        <ele>240.19395446777344</ele>
      </trkpt>
      <trkpt lat="42.8728019726" lon="-8.55113497004">
        <ele>242.0</ele>
      </trkpt>
      <trkpt lat="42.8732849378" lon="-8.55134594254">
        <ele>246.94590759277344</ele>
      </trkpt>
      <trkpt lat="42.8737619519" lon="-8.55194499716">
        <ele>251.44195556640625</ele>
      </trkpt>
      <trkpt lat="42.8736739419" lon="-8.55242595077">
        <ele>247.865478515625</ele>
      </trkpt>
      <trkpt lat="42.873993963" lon="-8.55233693495">
        <ele>245.54429626464844</ele>
      </trkpt>
      <trkpt lat="42.8748819418" lon="-8.55128995143">
        <ele>243.20724487304688</ele>
      </trkpt>
      <trkpt lat="42.8757249936" lon="-8.54954693466">
        <ele>251.46871948242188</ele>
      </trkpt>
      <trkpt lat="42.8769799322" lon="-8.54621395469">
        <ele>257.1741943359375</ele>
      </trkpt>
      <trkpt lat="42.8772359993" lon="-8.54597699828">
        <ele>258.0575256347656</ele>
      </trkpt>
      <trkpt lat="42.8773349896" lon="-8.54606995359">
        <ele>257.41717529296875</ele>
      </trkpt>
      <trkpt lat="42.8774429485" lon="-8.54566896334">
        <ele>260.6920471191406</ele>
      </trkpt>
      <trkpt lat="42.8778269235" lon="-8.54532798752">
        <ele>262.06536865234375</ele>
      </trkpt>
      <trkpt lat="42.8785789479" lon="-8.54517493397">
        <ele>261.2347106933594</ele>
      </trkpt>
      <trkpt lat="42.8786709812" lon="-8.5449649673">
        <ele>262.49713134765625</ele>
      </trkpt>
      <trkpt lat="42.8786639404" lon="-8.5452169273">
        <ele>260.1695556640625</ele>
      </trkpt>
      <trkpt lat="42.8785549756" lon="-8.54507099837">
        <ele>262.52947998046875</ele>
      </trkpt>
      <trkpt lat="42.8787669539" lon="-8.54531097226">
        <ele>258.59503173828125</ele>
      </trkpt>
      <trkpt lat="42.8787579853" lon="-8.54500997812">
        <ele>261.7088928222656</ele>
      </trkpt>
      <trkpt lat="42.8765419777" lon="-8.54770392179">
        <ele>253.4524688720703</ele>
      </trkpt>
      <trkpt lat="42.8756019473" lon="-8.55020994321">
        <ele>248.3001708984375</ele>
      </trkpt>
      <trkpt lat="42.8748289682" lon="-8.55152891949">
        <ele>242.52828979492188</ele>
      </trkpt>
      <trkpt lat="42.8731769789" lon="-8.5532849282">
        <ele>244.4904327392578</ele>
      </trkpt>
      <trkpt lat="42.8727419581" lon="-8.5560969729">
        <ele>230.82888793945312</ele>
      </trkpt>
      <trkpt lat="42.8723259643" lon="-8.55560495518">
        <ele>236.87774658203125</ele>
      </trkpt>
      <trkpt lat="42.8719659615" lon="-8.55563999154">
        <ele>238.13816833496094</ele>
      </trkpt>
      <trkpt lat="42.8717769496" lon="-8.55545894243">
        <ele>241.67977905273438</ele>
      </trkpt>
      <trkpt lat="42.8721139859" lon="-8.55562599376">
        <ele>237.56369018554688</ele>
      </trkpt>
      <trkpt lat="42.871836964" lon="-8.55538794771">
        <ele>241.11083984375</ele>
      </trkpt>
    </trkseg>
  </trk>
</gpx>
